<?xml version="1.0" encoding="UTF-8" standalone="yes"?>
<gpx
 xmlns="http://www.topografix.com/GPX/1/1"
 creator="OziExplorer Version 3956f - http://www.oziexplorer.com"
 version="1.1"
 xmlns:xsi="http://www.w3.org/2001/XMLSchema-instance"
 xsi:schemaLocation="http://www.topografix.com/GPX/1/1 http://www.topografix.com/GPX/1/1/gpx.xsd">
<metadata>
 <time>2024-04-17T06:38:30Z</time>
 <bounds minlat="31.481480" minlon="34.627730" maxlat="31.527860" maxlon="34.701250"/>
</metadata>
<wpt lat="31.4989800" lon="34.6997500">
 <time>2024-04-17T09:37:31.029Z</time>
 <name>St\Fin</name>
 <sym>Bike Trail</sym>
</wpt>
<wpt lat="31.5084000" lon="34.6455100">
 <time>2024-04-17T09:37:31.052Z</time>
 <name>Stoliki</name>
 <sym>Picnic Area</sym>
</wpt>
<trk>
 <name>Ruhama-Dorot_Sin_38km.420m</name>
 <desc>Ruhama-Dorot_Sin_38km.420m</desc>
<trkseg>
<trkpt lat="31.4989700" lon="34.6997600">
<ele>153.819992</ele>
<time>2024-04-17T09:37:31.052Z</time>
</trkpt>
<trkpt lat="31.4991100" lon="34.6995500">
<ele>151.410004</ele>
<time>2024-04-17T09:37:31.052Z</time>
</trkpt>
<trkpt lat="31.4992100" lon="34.6993800">
<ele>150.570007</ele>
<time>2024-04-17T09:37:31.052Z</time>
</trkpt>
<trkpt lat="31.4993300" lon="34.6992900">
<ele>150.210007</ele>
<time>2024-04-17T09:37:31.052Z</time>
</trkpt>
<trkpt lat="31.4994800" lon="34.6990800">
<ele>149.690002</ele>
<time>2024-04-17T09:37:31.052Z</time>
</trkpt>
<trkpt lat="31.4995300" lon="34.6991200">
<ele>149.830002</ele>
<time>2024-04-17T09:37:31.052Z</time>
</trkpt>
<trkpt lat="31.4995900" lon="34.6991800">
<ele>150.050003</ele>
<time>2024-04-17T09:37:31.052Z</time>
</trkpt>
<trkpt lat="31.4996800" lon="34.6992100">
<ele>150.160004</ele>
<time>2024-04-17T09:37:31.052Z</time>
</trkpt>
<trkpt lat="31.4997800" lon="34.6996600">
<ele>151.399994</ele>
<time>2024-04-17T09:37:31.052Z</time>
</trkpt>
<trkpt lat="31.4998400" lon="34.6997200">
<ele>150.449997</ele>
<time>2024-04-17T09:37:31.052Z</time>
</trkpt>
<trkpt lat="31.4998300" lon="34.6997200">
<ele>150.660004</ele>
<time>2024-04-17T09:37:31.052Z</time>
</trkpt>
<trkpt lat="31.4998300" lon="34.6997200">
<ele>150.660004</ele>
<time>2024-04-17T09:37:31.052Z</time>
</trkpt>
<trkpt lat="31.5000600" lon="34.6999700">
<ele>147.000000</ele>
<time>2024-04-17T09:37:31.052Z</time>
</trkpt>
<trkpt lat="31.5001800" lon="34.6999900">
<ele>145.350006</ele>
<time>2024-04-17T09:37:31.052Z</time>
</trkpt>
<trkpt lat="31.5003000" lon="34.7001700">
<ele>145.440002</ele>
<time>2024-04-17T09:37:31.052Z</time>
</trkpt>
<trkpt lat="31.5004400" lon="34.7000800">
<ele>141.940002</ele>
<time>2024-04-17T09:37:31.052Z</time>
</trkpt>
<trkpt lat="31.5005100" lon="34.7000800">
<ele>140.679993</ele>
<time>2024-04-17T09:37:31.052Z</time>
</trkpt>
<trkpt lat="31.5005500" lon="34.7001100">
<ele>140.290009</ele>
<time>2024-04-17T09:37:31.052Z</time>
</trkpt>
<trkpt lat="31.5006100" lon="34.7002800">
<ele>140.449997</ele>
<time>2024-04-17T09:37:31.052Z</time>
</trkpt>
<trkpt lat="31.5006600" lon="34.7005600">
<ele>141.360001</ele>
<time>2024-04-17T09:37:31.052Z</time>
</trkpt>
<trkpt lat="31.5006800" lon="34.7006600">
<ele>140.820007</ele>
<time>2024-04-17T09:37:31.052Z</time>
</trkpt>
<trkpt lat="31.5007300" lon="34.7008800">
<ele>139.740005</ele>
<time>2024-04-17T09:37:31.052Z</time>
</trkpt>
<trkpt lat="31.5006800" lon="34.7011600">
<ele>139.600006</ele>
<time>2024-04-17T09:37:31.052Z</time>
</trkpt>
<trkpt lat="31.5007000" lon="34.7012300">
<ele>139.199997</ele>
<time>2024-04-17T09:37:31.052Z</time>
</trkpt>
<trkpt lat="31.5007300" lon="34.7012500">
<ele>138.669998</ele>
<time>2024-04-17T09:37:31.052Z</time>
</trkpt>
<trkpt lat="31.5007300" lon="34.7012500">
<ele>138.669998</ele>
<time>2024-04-17T09:37:31.052Z</time>
</trkpt>
<trkpt lat="31.5008200" lon="34.7012000">
<ele>137.550003</ele>
<time>2024-04-17T09:37:31.052Z</time>
</trkpt>
<trkpt lat="31.5009300" lon="34.7008100">
<ele>137.539993</ele>
<time>2024-04-17T09:37:31.052Z</time>
</trkpt>
<trkpt lat="31.5009300" lon="34.7005800">
<ele>136.419998</ele>
<time>2024-04-17T09:37:31.052Z</time>
</trkpt>
<trkpt lat="31.5009500" lon="34.7004700">
<ele>135.239990</ele>
<time>2024-04-17T09:37:31.052Z</time>
</trkpt>
<trkpt lat="31.5011600" lon="34.6999000">
<ele>133.130005</ele>
<time>2024-04-17T09:37:31.052Z</time>
</trkpt>
<trkpt lat="31.5012000" lon="34.6997800">
<ele>134.190002</ele>
<time>2024-04-17T09:37:31.052Z</time>
</trkpt>
<trkpt lat="31.5012700" lon="34.6997900">
<ele>133.979996</ele>
<time>2024-04-17T09:37:31.052Z</time>
</trkpt>
<trkpt lat="31.5013000" lon="34.6998200">
<ele>133.740005</ele>
<time>2024-04-17T09:37:31.052Z</time>
</trkpt>
<trkpt lat="31.5013400" lon="34.6998100">
<ele>133.750000</ele>
<time>2024-04-17T09:37:31.052Z</time>
</trkpt>
<trkpt lat="31.5014000" lon="34.6997400">
<ele>134.100006</ele>
<time>2024-04-17T09:37:31.052Z</time>
</trkpt>
<trkpt lat="31.5014400" lon="34.6995600">
<ele>134.410004</ele>
<time>2024-04-17T09:37:31.052Z</time>
</trkpt>
<trkpt lat="31.5014500" lon="34.6995200">
<ele>134.399994</ele>
<time>2024-04-17T09:37:31.052Z</time>
</trkpt>
<trkpt lat="31.5014900" lon="34.6993800">
<ele>134.339996</ele>
<time>2024-04-17T09:37:31.052Z</time>
</trkpt>
<trkpt lat="31.5015600" lon="34.6992600">
<ele>134.050003</ele>
<time>2024-04-17T09:37:31.052Z</time>
</trkpt>
<trkpt lat="31.5017000" lon="34.6991000">
<ele>133.029999</ele>
<time>2024-04-17T09:37:31.052Z</time>
</trkpt>
<trkpt lat="31.5018100" lon="34.6988900">
<ele>132.009995</ele>
<time>2024-04-17T09:37:31.052Z</time>
</trkpt>
<trkpt lat="31.5019000" lon="34.6984600">
<ele>129.410004</ele>
<time>2024-04-17T09:37:31.052Z</time>
</trkpt>
<trkpt lat="31.5018500" lon="34.6982500">
<ele>128.860001</ele>
<time>2024-04-17T09:37:31.052Z</time>
</trkpt>
<trkpt lat="31.5018200" lon="34.6979400">
<ele>128.889999</ele>
<time>2024-04-17T09:37:31.052Z</time>
</trkpt>
<trkpt lat="31.5017100" lon="34.6976900">
<ele>131.739990</ele>
<time>2024-04-17T09:37:31.052Z</time>
</trkpt>
<trkpt lat="31.5016100" lon="34.6974000">
<ele>133.919998</ele>
<time>2024-04-17T09:37:31.052Z</time>
</trkpt>
<trkpt lat="31.5015300" lon="34.6970500">
<ele>133.849991</ele>
<time>2024-04-17T09:37:31.052Z</time>
</trkpt>
<trkpt lat="31.5014400" lon="34.6967600">
<ele>133.779999</ele>
<time>2024-04-17T09:37:31.052Z</time>
</trkpt>
<trkpt lat="31.5014300" lon="34.6966100">
<ele>133.500000</ele>
<time>2024-04-17T09:37:31.052Z</time>
</trkpt>
<trkpt lat="31.5014100" lon="34.6964900">
<ele>133.679993</ele>
<time>2024-04-17T09:37:31.052Z</time>
</trkpt>
<trkpt lat="31.5014600" lon="34.6960100">
<ele>135.770004</ele>
<time>2024-04-17T09:37:31.052Z</time>
</trkpt>
<trkpt lat="31.5014400" lon="34.6958600">
<ele>136.199997</ele>
<time>2024-04-17T09:37:31.052Z</time>
</trkpt>
<trkpt lat="31.5014400" lon="34.6952300">
<ele>129.660004</ele>
<time>2024-04-17T09:37:31.052Z</time>
</trkpt>
<trkpt lat="31.5014600" lon="34.6951700">
<ele>129.369995</ele>
<time>2024-04-17T09:37:31.052Z</time>
</trkpt>
<trkpt lat="31.5014600" lon="34.6949200">
<ele>130.729996</ele>
<time>2024-04-17T09:37:31.052Z</time>
</trkpt>
<trkpt lat="31.5014800" lon="34.6948600">
<ele>130.380005</ele>
<time>2024-04-17T09:37:31.052Z</time>
</trkpt>
<trkpt lat="31.5014800" lon="34.6947500">
<ele>130.899994</ele>
<time>2024-04-17T09:37:31.052Z</time>
</trkpt>
<trkpt lat="31.5015700" lon="34.6943500">
<ele>131.380005</ele>
<time>2024-04-17T09:37:31.052Z</time>
</trkpt>
<trkpt lat="31.5015900" lon="34.6941800">
<ele>131.779999</ele>
<time>2024-04-17T09:37:31.052Z</time>
</trkpt>
<trkpt lat="31.5015900" lon="34.6939900">
<ele>131.190002</ele>
<time>2024-04-17T09:37:31.052Z</time>
</trkpt>
<trkpt lat="31.5015500" lon="34.6938300">
<ele>130.929993</ele>
<time>2024-04-17T09:37:31.052Z</time>
</trkpt>
<trkpt lat="31.5015400" lon="34.6936400">
<ele>129.979996</ele>
<time>2024-04-17T09:37:31.052Z</time>
</trkpt>
<trkpt lat="31.5015400" lon="34.6936400">
<ele>129.979996</ele>
<time>2024-04-17T09:37:31.052Z</time>
</trkpt>
<trkpt lat="31.5015200" lon="34.6934600">
<ele>129.050003</ele>
<time>2024-04-17T09:37:31.052Z</time>
</trkpt>
<trkpt lat="31.5015400" lon="34.6930000">
<ele>128.039993</ele>
<time>2024-04-17T09:37:31.052Z</time>
</trkpt>
<trkpt lat="31.5015700" lon="34.6926800">
<ele>128.849991</ele>
<time>2024-04-17T09:37:31.052Z</time>
</trkpt>
<trkpt lat="31.5016300" lon="34.6924200">
<ele>128.860001</ele>
<time>2024-04-17T09:37:31.052Z</time>
</trkpt>
<trkpt lat="31.5017200" lon="34.6922000">
<ele>128.610001</ele>
<time>2024-04-17T09:37:31.052Z</time>
</trkpt>
<trkpt lat="31.5017800" lon="34.6920300">
<ele>127.019997</ele>
<time>2024-04-17T09:37:31.052Z</time>
</trkpt>
<trkpt lat="31.5018200" lon="34.6919500">
<ele>126.239998</ele>
<time>2024-04-17T09:37:31.052Z</time>
</trkpt>
<trkpt lat="31.5019000" lon="34.6917100">
<ele>125.370003</ele>
<time>2024-04-17T09:37:31.052Z</time>
</trkpt>
<trkpt lat="31.5019400" lon="34.6914800">
<ele>123.709999</ele>
<time>2024-04-17T09:37:31.052Z</time>
</trkpt>
<trkpt lat="31.5019600" lon="34.6911700">
<ele>122.370003</ele>
<time>2024-04-17T09:37:31.052Z</time>
</trkpt>
<trkpt lat="31.5020000" lon="34.6909500">
<ele>122.480003</ele>
<time>2024-04-17T09:37:31.052Z</time>
</trkpt>
<trkpt lat="31.5020700" lon="34.6907800">
<ele>123.029999</ele>
<time>2024-04-17T09:37:31.052Z</time>
</trkpt>
<trkpt lat="31.5021800" lon="34.6906200">
<ele>123.279999</ele>
<time>2024-04-17T09:37:31.052Z</time>
</trkpt>
<trkpt lat="31.5023100" lon="34.6905200">
<ele>123.799995</ele>
<time>2024-04-17T09:37:31.052Z</time>
</trkpt>
<trkpt lat="31.5024100" lon="34.6904400">
<ele>125.050003</ele>
<time>2024-04-17T09:37:31.052Z</time>
</trkpt>
<trkpt lat="31.5026900" lon="34.6903500">
<ele>132.130005</ele>
<time>2024-04-17T09:37:31.052Z</time>
</trkpt>
<trkpt lat="31.5029100" lon="34.6902800">
<ele>136.899994</ele>
<time>2024-04-17T09:37:31.052Z</time>
</trkpt>
<trkpt lat="31.5030500" lon="34.6900900">
<ele>136.929993</ele>
<time>2024-04-17T09:37:31.052Z</time>
</trkpt>
<trkpt lat="31.5031500" lon="34.6901500">
<ele>136.940002</ele>
<time>2024-04-17T09:37:31.052Z</time>
</trkpt>
<trkpt lat="31.5034300" lon="34.6903100">
<ele>138.110001</ele>
<time>2024-04-17T09:37:31.052Z</time>
</trkpt>
<trkpt lat="31.5038000" lon="34.6903800">
<ele>139.519989</ele>
<time>2024-04-17T09:37:31.052Z</time>
</trkpt>
<trkpt lat="31.5041000" lon="34.6904800">
<ele>139.440002</ele>
<time>2024-04-17T09:37:31.052Z</time>
</trkpt>
<trkpt lat="31.5042000" lon="34.6905300">
<ele>138.949997</ele>
<time>2024-04-17T09:37:31.052Z</time>
</trkpt>
<trkpt lat="31.5043300" lon="34.6906000">
<ele>140.610001</ele>
<time>2024-04-17T09:37:31.052Z</time>
</trkpt>
<trkpt lat="31.5047300" lon="34.6908400">
<ele>146.949997</ele>
<time>2024-04-17T09:37:31.052Z</time>
</trkpt>
<trkpt lat="31.5053200" lon="34.6909100">
<ele>150.360001</ele>
<time>2024-04-17T09:37:31.052Z</time>
</trkpt>
<trkpt lat="31.5054500" lon="34.6909300">
<ele>153.020004</ele>
<time>2024-04-17T09:37:31.052Z</time>
</trkpt>
<trkpt lat="31.5056200" lon="34.6909800">
<ele>154.739990</ele>
<time>2024-04-17T09:37:31.052Z</time>
</trkpt>
<trkpt lat="31.5067000" lon="34.6913800">
<ele>147.620010</ele>
<time>2024-04-17T09:37:31.052Z</time>
</trkpt>
<trkpt lat="31.5075700" lon="34.6915400">
<ele>149.490005</ele>
<time>2024-04-17T09:37:31.052Z</time>
</trkpt>
<trkpt lat="31.5079600" lon="34.6916500">
<ele>153.250000</ele>
<time>2024-04-17T09:37:31.052Z</time>
</trkpt>
<trkpt lat="31.5080700" lon="34.6916800">
<ele>154.020004</ele>
<time>2024-04-17T09:37:31.052Z</time>
</trkpt>
<trkpt lat="31.5085100" lon="34.6918200">
<ele>159.809998</ele>
<time>2024-04-17T09:37:31.052Z</time>
</trkpt>
<trkpt lat="31.5088500" lon="34.6919300">
<ele>163.600006</ele>
<time>2024-04-17T09:37:31.052Z</time>
</trkpt>
<trkpt lat="31.5089700" lon="34.6920000">
<ele>163.710007</ele>
<time>2024-04-17T09:37:31.052Z</time>
</trkpt>
<trkpt lat="31.5090600" lon="34.6920700">
<ele>163.799988</ele>
<time>2024-04-17T09:37:31.052Z</time>
</trkpt>
<trkpt lat="31.5091900" lon="34.6921700">
<ele>164.160004</ele>
<time>2024-04-17T09:37:31.052Z</time>
</trkpt>
<trkpt lat="31.5092900" lon="34.6922300">
<ele>161.590012</ele>
<time>2024-04-17T09:37:31.052Z</time>
</trkpt>
<trkpt lat="31.5094900" lon="34.6922700">
<ele>157.679993</ele>
<time>2024-04-17T09:37:31.052Z</time>
</trkpt>
<trkpt lat="31.5095900" lon="34.6922600">
<ele>156.820007</ele>
<time>2024-04-17T09:37:31.052Z</time>
</trkpt>
<trkpt lat="31.5097600" lon="34.6922200">
<ele>156.059998</ele>
<time>2024-04-17T09:37:31.052Z</time>
</trkpt>
<trkpt lat="31.5100700" lon="34.6921300">
<ele>159.989990</ele>
<time>2024-04-17T09:37:31.052Z</time>
</trkpt>
<trkpt lat="31.5102200" lon="34.6921400">
<ele>161.740005</ele>
<time>2024-04-17T09:37:31.052Z</time>
</trkpt>
<trkpt lat="31.5105100" lon="34.6922100">
<ele>164.430008</ele>
<time>2024-04-17T09:37:31.052Z</time>
</trkpt>
<trkpt lat="31.5105700" lon="34.6922100">
<ele>165.649994</ele>
<time>2024-04-17T09:37:31.052Z</time>
</trkpt>
<trkpt lat="31.5107200" lon="34.6922000">
<ele>168.590012</ele>
<time>2024-04-17T09:37:31.052Z</time>
</trkpt>
<trkpt lat="31.5108100" lon="34.6921800">
<ele>170.669998</ele>
<time>2024-04-17T09:37:31.052Z</time>
</trkpt>
<trkpt lat="31.5109500" lon="34.6921800">
<ele>172.550003</ele>
<time>2024-04-17T09:37:31.052Z</time>
</trkpt>
<trkpt lat="31.5110700" lon="34.6921900">
<ele>173.920013</ele>
<time>2024-04-17T09:37:31.052Z</time>
</trkpt>
<trkpt lat="31.5113000" lon="34.6922700">
<ele>174.789993</ele>
<time>2024-04-17T09:37:31.052Z</time>
</trkpt>
<trkpt lat="31.5113700" lon="34.6923100">
<ele>175.070007</ele>
<time>2024-04-17T09:37:31.052Z</time>
</trkpt>
<trkpt lat="31.5114900" lon="34.6921000">
<ele>177.159988</ele>
<time>2024-04-17T09:37:31.052Z</time>
</trkpt>
<trkpt lat="31.5115700" lon="34.6919500">
<ele>176.080002</ele>
<time>2024-04-17T09:37:31.052Z</time>
</trkpt>
<trkpt lat="31.5116700" lon="34.6918100">
<ele>172.500000</ele>
<time>2024-04-17T09:37:31.052Z</time>
</trkpt>
<trkpt lat="31.5117600" lon="34.6919200">
<ele>172.209991</ele>
<time>2024-04-17T09:37:31.052Z</time>
</trkpt>
<trkpt lat="31.5119100" lon="34.6920200">
<ele>170.639999</ele>
<time>2024-04-17T09:37:31.052Z</time>
</trkpt>
<trkpt lat="31.5119900" lon="34.6920200">
<ele>168.220001</ele>
<time>2024-04-17T09:37:31.052Z</time>
</trkpt>
<trkpt lat="31.5121600" lon="34.6919800">
<ele>161.039993</ele>
<time>2024-04-17T09:37:31.052Z</time>
</trkpt>
<trkpt lat="31.5124100" lon="34.6919800">
<ele>153.710007</ele>
<time>2024-04-17T09:37:31.052Z</time>
</trkpt>
<trkpt lat="31.5127300" lon="34.6919000">
<ele>149.360001</ele>
<time>2024-04-17T09:37:31.052Z</time>
</trkpt>
<trkpt lat="31.5128900" lon="34.6919700">
<ele>151.009995</ele>
<time>2024-04-17T09:37:31.052Z</time>
</trkpt>
<trkpt lat="31.5130000" lon="34.6919800">
<ele>152.040009</ele>
<time>2024-04-17T09:37:31.052Z</time>
</trkpt>
<trkpt lat="31.5130300" lon="34.6919900">
<ele>152.429993</ele>
<time>2024-04-17T09:37:31.052Z</time>
</trkpt>
<trkpt lat="31.5130300" lon="34.6919900">
<ele>152.429993</ele>
<time>2024-04-17T09:37:31.052Z</time>
</trkpt>
<trkpt lat="31.5131000" lon="34.6920200">
<ele>151.759995</ele>
<time>2024-04-17T09:37:31.052Z</time>
</trkpt>
<trkpt lat="31.5135700" lon="34.6920300">
<ele>147.419998</ele>
<time>2024-04-17T09:37:31.052Z</time>
</trkpt>
<trkpt lat="31.5136400" lon="34.6920600">
<ele>148.130005</ele>
<time>2024-04-17T09:37:31.052Z</time>
</trkpt>
<trkpt lat="31.5137800" lon="34.6920700">
<ele>146.460007</ele>
<time>2024-04-17T09:37:31.052Z</time>
</trkpt>
<trkpt lat="31.5138800" lon="34.6921100">
<ele>145.149994</ele>
<time>2024-04-17T09:37:31.052Z</time>
</trkpt>
<trkpt lat="31.5139500" lon="34.6921100">
<ele>144.819992</ele>
<time>2024-04-17T09:37:31.052Z</time>
</trkpt>
<trkpt lat="31.5140600" lon="34.6920700">
<ele>143.869995</ele>
<time>2024-04-17T09:37:31.052Z</time>
</trkpt>
<trkpt lat="31.5143400" lon="34.6920700">
<ele>142.500000</ele>
<time>2024-04-17T09:37:31.052Z</time>
</trkpt>
<trkpt lat="31.5145600" lon="34.6919200">
<ele>143.850006</ele>
<time>2024-04-17T09:37:31.052Z</time>
</trkpt>
<trkpt lat="31.5147600" lon="34.6918300">
<ele>141.860001</ele>
<time>2024-04-17T09:37:31.052Z</time>
</trkpt>
<trkpt lat="31.5151400" lon="34.6916100">
<ele>132.190002</ele>
<time>2024-04-17T09:37:31.052Z</time>
</trkpt>
<trkpt lat="31.5152700" lon="34.6915500">
<ele>131.080002</ele>
<time>2024-04-17T09:37:31.052Z</time>
</trkpt>
<trkpt lat="31.5154500" lon="34.6915500">
<ele>133.839996</ele>
<time>2024-04-17T09:37:31.052Z</time>
</trkpt>
<trkpt lat="31.5155100" lon="34.6915100">
<ele>134.710007</ele>
<time>2024-04-17T09:37:31.052Z</time>
</trkpt>
<trkpt lat="31.5156000" lon="34.6914400">
<ele>135.150009</ele>
<time>2024-04-17T09:37:31.052Z</time>
</trkpt>
<trkpt lat="31.5158300" lon="34.6911700">
<ele>134.169998</ele>
<time>2024-04-17T09:37:31.052Z</time>
</trkpt>
<trkpt lat="31.5160100" lon="34.6910400">
<ele>132.860001</ele>
<time>2024-04-17T09:37:31.052Z</time>
</trkpt>
<trkpt lat="31.5160400" lon="34.6910300">
<ele>132.479996</ele>
<time>2024-04-17T09:37:31.052Z</time>
</trkpt>
<trkpt lat="31.5162600" lon="34.6908700">
<ele>125.779999</ele>
<time>2024-04-17T09:37:31.052Z</time>
</trkpt>
<trkpt lat="31.5165600" lon="34.6907500">
<ele>127.860001</ele>
<time>2024-04-17T09:37:31.052Z</time>
</trkpt>
<trkpt lat="31.5168100" lon="34.6907200">
<ele>129.399994</ele>
<time>2024-04-17T09:37:31.052Z</time>
</trkpt>
<trkpt lat="31.5170300" lon="34.6906000">
<ele>128.580002</ele>
<time>2024-04-17T09:37:31.052Z</time>
</trkpt>
<trkpt lat="31.5172000" lon="34.6903900">
<ele>127.180008</ele>
<time>2024-04-17T09:37:31.052Z</time>
</trkpt>
<trkpt lat="31.5173600" lon="34.6901500">
<ele>121.910004</ele>
<time>2024-04-17T09:37:31.052Z</time>
</trkpt>
<trkpt lat="31.5174800" lon="34.6900600">
<ele>118.279999</ele>
<time>2024-04-17T09:37:31.052Z</time>
</trkpt>
<trkpt lat="31.5176100" lon="34.6900100">
<ele>116.750000</ele>
<time>2024-04-17T09:37:31.052Z</time>
</trkpt>
<trkpt lat="31.5177300" lon="34.6898500">
<ele>115.820000</ele>
<time>2024-04-17T09:37:31.052Z</time>
</trkpt>
<trkpt lat="31.5177600" lon="34.6898300">
<ele>115.529999</ele>
<time>2024-04-17T09:37:31.052Z</time>
</trkpt>
<trkpt lat="31.5177900" lon="34.6898600">
<ele>115.690002</ele>
<time>2024-04-17T09:37:31.052Z</time>
</trkpt>
<trkpt lat="31.5178700" lon="34.6900500">
<ele>117.930000</ele>
<time>2024-04-17T09:37:31.052Z</time>
</trkpt>
<trkpt lat="31.5179300" lon="34.6900900">
<ele>119.130005</ele>
<time>2024-04-17T09:37:31.052Z</time>
</trkpt>
<trkpt lat="31.5180300" lon="34.6900900">
<ele>120.340004</ele>
<time>2024-04-17T09:37:31.052Z</time>
</trkpt>
<trkpt lat="31.5181300" lon="34.6900400">
<ele>121.049995</ele>
<time>2024-04-17T09:37:31.052Z</time>
</trkpt>
<trkpt lat="31.5182200" lon="34.6899700">
<ele>121.839996</ele>
<time>2024-04-17T09:37:31.052Z</time>
</trkpt>
<trkpt lat="31.5183900" lon="34.6897500">
<ele>124.170006</ele>
<time>2024-04-17T09:37:31.052Z</time>
</trkpt>
<trkpt lat="31.5185500" lon="34.6896600">
<ele>125.050003</ele>
<time>2024-04-17T09:37:31.052Z</time>
</trkpt>
<trkpt lat="31.5186100" lon="34.6896100">
<ele>125.400002</ele>
<time>2024-04-17T09:37:31.052Z</time>
</trkpt>
<trkpt lat="31.5186900" lon="34.6895000">
<ele>126.480003</ele>
<time>2024-04-17T09:37:31.052Z</time>
</trkpt>
<trkpt lat="31.5187500" lon="34.6894200">
<ele>127.000000</ele>
<time>2024-04-17T09:37:31.052Z</time>
</trkpt>
<trkpt lat="31.5187500" lon="34.6890800">
<ele>126.379997</ele>
<time>2024-04-17T09:37:31.052Z</time>
</trkpt>
<trkpt lat="31.5188000" lon="34.6889700">
<ele>127.019997</ele>
<time>2024-04-17T09:37:31.052Z</time>
</trkpt>
<trkpt lat="31.5188700" lon="34.6888800">
<ele>128.369995</ele>
<time>2024-04-17T09:37:31.052Z</time>
</trkpt>
<trkpt lat="31.5192100" lon="34.6886400">
<ele>131.250000</ele>
<time>2024-04-17T09:37:31.052Z</time>
</trkpt>
<trkpt lat="31.5192400" lon="34.6885700">
<ele>130.279999</ele>
<time>2024-04-17T09:37:31.052Z</time>
</trkpt>
<trkpt lat="31.5193200" lon="34.6883300">
<ele>126.779999</ele>
<time>2024-04-17T09:37:31.052Z</time>
</trkpt>
<trkpt lat="31.5193300" lon="34.6882500">
<ele>126.349998</ele>
<time>2024-04-17T09:37:31.052Z</time>
</trkpt>
<trkpt lat="31.5192600" lon="34.6877900">
<ele>126.979996</ele>
<time>2024-04-17T09:37:31.052Z</time>
</trkpt>
<trkpt lat="31.5192700" lon="34.6875400">
<ele>126.349998</ele>
<time>2024-04-17T09:37:31.052Z</time>
</trkpt>
<trkpt lat="31.5192900" lon="34.6874200">
<ele>126.109993</ele>
<time>2024-04-17T09:37:31.052Z</time>
</trkpt>
<trkpt lat="31.5192900" lon="34.6873300">
<ele>126.109993</ele>
<time>2024-04-17T09:37:31.052Z</time>
</trkpt>
<trkpt lat="31.5192300" lon="34.6871900">
<ele>126.659996</ele>
<time>2024-04-17T09:37:31.052Z</time>
</trkpt>
<trkpt lat="31.5192000" lon="34.6870700">
<ele>127.309998</ele>
<time>2024-04-17T09:37:31.052Z</time>
</trkpt>
<trkpt lat="31.5191900" lon="34.6866000">
<ele>126.979996</ele>
<time>2024-04-17T09:37:31.052Z</time>
</trkpt>
<trkpt lat="31.5191600" lon="34.6865300">
<ele>127.040001</ele>
<time>2024-04-17T09:37:31.052Z</time>
</trkpt>
<trkpt lat="31.5190300" lon="34.6863200">
<ele>128.349991</ele>
<time>2024-04-17T09:37:31.052Z</time>
</trkpt>
<trkpt lat="31.5189300" lon="34.6860600">
<ele>128.339996</ele>
<time>2024-04-17T09:37:31.052Z</time>
</trkpt>
<trkpt lat="31.5189200" lon="34.6860100">
<ele>128.050003</ele>
<time>2024-04-17T09:37:31.052Z</time>
</trkpt>
<trkpt lat="31.5189300" lon="34.6859700">
<ele>127.690002</ele>
<time>2024-04-17T09:37:31.052Z</time>
</trkpt>
<trkpt lat="31.5190400" lon="34.6859700">
<ele>126.900002</ele>
<time>2024-04-17T09:37:31.052Z</time>
</trkpt>
<trkpt lat="31.5190600" lon="34.6859500">
<ele>126.610001</ele>
<time>2024-04-17T09:37:31.052Z</time>
</trkpt>
<trkpt lat="31.5191000" lon="34.6858700">
<ele>125.739998</ele>
<time>2024-04-17T09:37:31.052Z</time>
</trkpt>
<trkpt lat="31.5191100" lon="34.6857900">
<ele>125.339996</ele>
<time>2024-04-17T09:37:31.052Z</time>
</trkpt>
<trkpt lat="31.5190300" lon="34.6853800">
<ele>124.379997</ele>
<time>2024-04-17T09:37:31.052Z</time>
</trkpt>
<trkpt lat="31.5189600" lon="34.6852800">
<ele>123.519997</ele>
<time>2024-04-17T09:37:31.052Z</time>
</trkpt>
<trkpt lat="31.5188700" lon="34.6852100">
<ele>122.950005</ele>
<time>2024-04-17T09:37:31.052Z</time>
</trkpt>
<trkpt lat="31.5188400" lon="34.6851400">
<ele>122.739998</ele>
<time>2024-04-17T09:37:31.052Z</time>
</trkpt>
<trkpt lat="31.5188400" lon="34.6850100">
<ele>122.490005</ele>
<time>2024-04-17T09:37:31.052Z</time>
</trkpt>
<trkpt lat="31.5188800" lon="34.6847600">
<ele>122.040001</ele>
<time>2024-04-17T09:37:31.052Z</time>
</trkpt>
<trkpt lat="31.5188600" lon="34.6846800">
<ele>121.540001</ele>
<time>2024-04-17T09:37:31.052Z</time>
</trkpt>
<trkpt lat="31.5187400" lon="34.6844200">
<ele>119.349998</ele>
<time>2024-04-17T09:37:31.052Z</time>
</trkpt>
<trkpt lat="31.5187200" lon="34.6843000">
<ele>118.970001</ele>
<time>2024-04-17T09:37:31.052Z</time>
</trkpt>
<trkpt lat="31.5187200" lon="34.6842200">
<ele>118.860001</ele>
<time>2024-04-17T09:37:31.052Z</time>
</trkpt>
<trkpt lat="31.5187400" lon="34.6841400">
<ele>118.789993</ele>
<time>2024-04-17T09:37:31.052Z</time>
</trkpt>
<trkpt lat="31.5187900" lon="34.6840800">
<ele>118.779999</ele>
<time>2024-04-17T09:37:31.052Z</time>
</trkpt>
<trkpt lat="31.5189200" lon="34.6840100">
<ele>119.160004</ele>
<time>2024-04-17T09:37:31.052Z</time>
</trkpt>
<trkpt lat="31.5190000" lon="34.6839200">
<ele>119.379997</ele>
<time>2024-04-17T09:37:31.052Z</time>
</trkpt>
<trkpt lat="31.5190100" lon="34.6838400">
<ele>118.960007</ele>
<time>2024-04-17T09:37:31.052Z</time>
</trkpt>
<trkpt lat="31.5189900" lon="34.6837600">
<ele>118.159996</ele>
<time>2024-04-17T09:37:31.052Z</time>
</trkpt>
<trkpt lat="31.5189900" lon="34.6837200">
<ele>117.879997</ele>
<time>2024-04-17T09:37:31.052Z</time>
</trkpt>
<trkpt lat="31.5190000" lon="34.6836800">
<ele>117.699997</ele>
<time>2024-04-17T09:37:31.052Z</time>
</trkpt>
<trkpt lat="31.5190500" lon="34.6836200">
<ele>117.800003</ele>
<time>2024-04-17T09:37:31.052Z</time>
</trkpt>
<trkpt lat="31.5192500" lon="34.6834500">
<ele>119.459999</ele>
<time>2024-04-17T09:37:31.052Z</time>
</trkpt>
<trkpt lat="31.5195800" lon="34.6830600">
<ele>122.540001</ele>
<time>2024-04-17T09:37:31.052Z</time>
</trkpt>
<trkpt lat="31.5197300" lon="34.6827300">
<ele>116.840004</ele>
<time>2024-04-17T09:37:31.052Z</time>
</trkpt>
<trkpt lat="31.5198900" lon="34.6822600">
<ele>116.189995</ele>
<time>2024-04-17T09:37:31.052Z</time>
</trkpt>
<trkpt lat="31.5199700" lon="34.6821800">
<ele>116.459999</ele>
<time>2024-04-17T09:37:31.052Z</time>
</trkpt>
<trkpt lat="31.5200400" lon="34.6821500">
<ele>117.169998</ele>
<time>2024-04-17T09:37:31.052Z</time>
</trkpt>
<trkpt lat="31.5201800" lon="34.6821400">
<ele>118.639992</ele>
<time>2024-04-17T09:37:31.052Z</time>
</trkpt>
<trkpt lat="31.5201900" lon="34.6821100">
<ele>118.990005</ele>
<time>2024-04-17T09:37:31.052Z</time>
</trkpt>
<trkpt lat="31.5201800" lon="34.6819800">
<ele>119.989998</ele>
<time>2024-04-17T09:37:31.052Z</time>
</trkpt>
<trkpt lat="31.5201200" lon="34.6817900">
<ele>119.940002</ele>
<time>2024-04-17T09:37:31.052Z</time>
</trkpt>
<trkpt lat="31.5200500" lon="34.6816900">
<ele>119.949997</ele>
<time>2024-04-17T09:37:31.052Z</time>
</trkpt>
<trkpt lat="31.5199400" lon="34.6815800">
<ele>119.820000</ele>
<time>2024-04-17T09:37:31.052Z</time>
</trkpt>
<trkpt lat="31.5197900" lon="34.6813400">
<ele>120.070000</ele>
<time>2024-04-17T09:37:31.052Z</time>
</trkpt>
<trkpt lat="31.5196700" lon="34.6812500">
<ele>119.309998</ele>
<time>2024-04-17T09:37:31.052Z</time>
</trkpt>
<trkpt lat="31.5194900" lon="34.6812400">
<ele>118.619995</ele>
<time>2024-04-17T09:37:31.052Z</time>
</trkpt>
<trkpt lat="31.5194300" lon="34.6812000">
<ele>118.250000</ele>
<time>2024-04-17T09:37:31.052Z</time>
</trkpt>
<trkpt lat="31.5194100" lon="34.6811600">
<ele>118.029999</ele>
<time>2024-04-17T09:37:31.052Z</time>
</trkpt>
<trkpt lat="31.5193800" lon="34.6810400">
<ele>117.709999</ele>
<time>2024-04-17T09:37:31.052Z</time>
</trkpt>
<trkpt lat="31.5193500" lon="34.6807900">
<ele>117.109993</ele>
<time>2024-04-17T09:37:31.052Z</time>
</trkpt>
<trkpt lat="31.5193100" lon="34.6806300">
<ele>115.950005</ele>
<time>2024-04-17T09:37:31.052Z</time>
</trkpt>
<trkpt lat="31.5193100" lon="34.6805400">
<ele>115.379997</ele>
<time>2024-04-17T09:37:31.052Z</time>
</trkpt>
<trkpt lat="31.5193600" lon="34.6804300">
<ele>114.730003</ele>
<time>2024-04-17T09:37:31.052Z</time>
</trkpt>
<trkpt lat="31.5194400" lon="34.6803500">
<ele>114.730003</ele>
<time>2024-04-17T09:37:31.052Z</time>
</trkpt>
<trkpt lat="31.5196900" lon="34.6801700">
<ele>115.719994</ele>
<time>2024-04-17T09:37:31.052Z</time>
</trkpt>
<trkpt lat="31.5197400" lon="34.6801200">
<ele>115.869995</ele>
<time>2024-04-17T09:37:31.052Z</time>
</trkpt>
<trkpt lat="31.5197700" lon="34.6799500">
<ele>115.419998</ele>
<time>2024-04-17T09:37:31.052Z</time>
</trkpt>
<trkpt lat="31.5197300" lon="34.6797500">
<ele>114.240005</ele>
<time>2024-04-17T09:37:31.052Z</time>
</trkpt>
<trkpt lat="31.5197400" lon="34.6796700">
<ele>114.139999</ele>
<time>2024-04-17T09:37:31.052Z</time>
</trkpt>
<trkpt lat="31.5197900" lon="34.6796100">
<ele>114.590004</ele>
<time>2024-04-17T09:37:31.052Z</time>
</trkpt>
<trkpt lat="31.5198500" lon="34.6795700">
<ele>115.170006</ele>
<time>2024-04-17T09:37:31.052Z</time>
</trkpt>
<trkpt lat="31.5200300" lon="34.6795600">
<ele>117.150002</ele>
<time>2024-04-17T09:37:31.052Z</time>
</trkpt>
<trkpt lat="31.5201000" lon="34.6795300">
<ele>118.929993</ele>
<time>2024-04-17T09:37:31.052Z</time>
</trkpt>
<trkpt lat="31.5201700" lon="34.6795200">
<ele>120.739998</ele>
<time>2024-04-17T09:37:31.052Z</time>
</trkpt>
<trkpt lat="31.5204000" lon="34.6794000">
<ele>128.000000</ele>
<time>2024-04-17T09:37:31.052Z</time>
</trkpt>
<trkpt lat="31.5208700" lon="34.6793900">
<ele>128.000000</ele>
<time>2024-04-17T09:37:31.052Z</time>
</trkpt>
<trkpt lat="31.5208600" lon="34.6793000">
<ele>128.750000</ele>
<time>2024-04-17T09:37:31.052Z</time>
</trkpt>
<trkpt lat="31.5207200" lon="34.6792400">
<ele>129.880005</ele>
<time>2024-04-17T09:37:31.052Z</time>
</trkpt>
<trkpt lat="31.5207000" lon="34.6792100">
<ele>130.169998</ele>
<time>2024-04-17T09:37:31.052Z</time>
</trkpt>
<trkpt lat="31.5203800" lon="34.6789400">
<ele>132.659988</ele>
<time>2024-04-17T09:37:31.052Z</time>
</trkpt>
<trkpt lat="31.5203400" lon="34.6788800">
<ele>133.269989</ele>
<time>2024-04-17T09:37:31.052Z</time>
</trkpt>
<trkpt lat="31.5203000" lon="34.6787600">
<ele>132.869995</ele>
<time>2024-04-17T09:37:31.052Z</time>
</trkpt>
<trkpt lat="31.5203200" lon="34.6786900">
<ele>132.220001</ele>
<time>2024-04-17T09:37:31.052Z</time>
</trkpt>
<trkpt lat="31.5203800" lon="34.6785900">
<ele>131.110001</ele>
<time>2024-04-17T09:37:31.052Z</time>
</trkpt>
<trkpt lat="31.5205800" lon="34.6784900">
<ele>128.989990</ele>
<time>2024-04-17T09:37:31.052Z</time>
</trkpt>
<trkpt lat="31.5206200" lon="34.6783800">
<ele>128.069992</ele>
<time>2024-04-17T09:37:31.052Z</time>
</trkpt>
<trkpt lat="31.5206400" lon="34.6782600">
<ele>127.169998</ele>
<time>2024-04-17T09:37:31.052Z</time>
</trkpt>
<trkpt lat="31.5206500" lon="34.6780500">
<ele>125.670006</ele>
<time>2024-04-17T09:37:31.052Z</time>
</trkpt>
<trkpt lat="31.5205800" lon="34.6777600">
<ele>126.820000</ele>
<time>2024-04-17T09:37:31.052Z</time>
</trkpt>
<trkpt lat="31.5205800" lon="34.6775500">
<ele>127.840004</ele>
<time>2024-04-17T09:37:31.052Z</time>
</trkpt>
<trkpt lat="31.5205200" lon="34.6773100">
<ele>127.149994</ele>
<time>2024-04-17T09:37:31.052Z</time>
</trkpt>
<trkpt lat="31.5205100" lon="34.6771800">
<ele>126.580002</ele>
<time>2024-04-17T09:37:31.052Z</time>
</trkpt>
<trkpt lat="31.5205200" lon="34.6771000">
<ele>126.099998</ele>
<time>2024-04-17T09:37:31.052Z</time>
</trkpt>
<trkpt lat="31.5206800" lon="34.6765800">
<ele>125.169998</ele>
<time>2024-04-17T09:37:31.052Z</time>
</trkpt>
<trkpt lat="31.5207600" lon="34.6764000">
<ele>125.949997</ele>
<time>2024-04-17T09:37:31.052Z</time>
</trkpt>
<trkpt lat="31.5207600" lon="34.6764000">
<ele>125.949997</ele>
<time>2024-04-17T09:37:31.052Z</time>
</trkpt>
<trkpt lat="31.5208000" lon="34.6763000">
<ele>126.239998</ele>
<time>2024-04-17T09:37:31.052Z</time>
</trkpt>
<trkpt lat="31.5208300" lon="34.6754400">
<ele>120.739998</ele>
<time>2024-04-17T09:37:31.052Z</time>
</trkpt>
<trkpt lat="31.5210100" lon="34.6753500">
<ele>121.989998</ele>
<time>2024-04-17T09:37:31.052Z</time>
</trkpt>
<trkpt lat="31.5211000" lon="34.6752800">
<ele>122.849998</ele>
<time>2024-04-17T09:37:31.052Z</time>
</trkpt>
<trkpt lat="31.5212000" lon="34.6752400">
<ele>122.959999</ele>
<time>2024-04-17T09:37:31.052Z</time>
</trkpt>
<trkpt lat="31.5213500" lon="34.6752300">
<ele>122.849998</ele>
<time>2024-04-17T09:37:31.052Z</time>
</trkpt>
<trkpt lat="31.5218100" lon="34.6752400">
<ele>118.909996</ele>
<time>2024-04-17T09:37:31.052Z</time>
</trkpt>
<trkpt lat="31.5218800" lon="34.6752700">
<ele>117.409996</ele>
<time>2024-04-17T09:37:31.052Z</time>
</trkpt>
<trkpt lat="31.5219500" lon="34.6752800">
<ele>116.029999</ele>
<time>2024-04-17T09:37:31.052Z</time>
</trkpt>
<trkpt lat="31.5222000" lon="34.6754400">
<ele>116.430000</ele>
<time>2024-04-17T09:37:31.052Z</time>
</trkpt>
<trkpt lat="31.5223000" lon="34.6754900">
<ele>116.019997</ele>
<time>2024-04-17T09:37:31.052Z</time>
</trkpt>
<trkpt lat="31.5223700" lon="34.6754800">
<ele>115.879997</ele>
<time>2024-04-17T09:37:31.052Z</time>
</trkpt>
<trkpt lat="31.5225700" lon="34.6753700">
<ele>116.589996</ele>
<time>2024-04-17T09:37:31.052Z</time>
</trkpt>
<trkpt lat="31.5227100" lon="34.6753600">
<ele>117.160004</ele>
<time>2024-04-17T09:37:31.052Z</time>
</trkpt>
<trkpt lat="31.5228800" lon="34.6754400">
<ele>115.790001</ele>
<time>2024-04-17T09:37:31.052Z</time>
</trkpt>
<trkpt lat="31.5232600" lon="34.6757500">
<ele>113.040001</ele>
<time>2024-04-17T09:37:31.052Z</time>
</trkpt>
<trkpt lat="31.5234500" lon="34.6758700">
<ele>112.580002</ele>
<time>2024-04-17T09:37:31.052Z</time>
</trkpt>
<trkpt lat="31.5235500" lon="34.6759200">
<ele>112.219994</ele>
<time>2024-04-17T09:37:31.052Z</time>
</trkpt>
<trkpt lat="31.5236200" lon="34.6759200">
<ele>111.970001</ele>
<time>2024-04-17T09:37:31.052Z</time>
</trkpt>
<trkpt lat="31.5236500" lon="34.6759000">
<ele>111.899994</ele>
<time>2024-04-17T09:37:31.052Z</time>
</trkpt>
<trkpt lat="31.5237600" lon="34.6757900">
<ele>112.000000</ele>
<time>2024-04-17T09:37:31.052Z</time>
</trkpt>
<trkpt lat="31.5238000" lon="34.6757200">
<ele>112.000000</ele>
<time>2024-04-17T09:37:31.052Z</time>
</trkpt>
<trkpt lat="31.5238200" lon="34.6756400">
<ele>112.000000</ele>
<time>2024-04-17T09:37:31.052Z</time>
</trkpt>
<trkpt lat="31.5238000" lon="34.6755700">
<ele>112.000000</ele>
<time>2024-04-17T09:37:31.052Z</time>
</trkpt>
<trkpt lat="31.5237800" lon="34.6754800">
<ele>111.940002</ele>
<time>2024-04-17T09:37:31.052Z</time>
</trkpt>
<trkpt lat="31.5237500" lon="34.6754000">
<ele>112.000000</ele>
<time>2024-04-17T09:37:31.052Z</time>
</trkpt>
<trkpt lat="31.5235100" lon="34.6750800">
<ele>112.900002</ele>
<time>2024-04-17T09:37:31.052Z</time>
</trkpt>
<trkpt lat="31.5234700" lon="34.6749700">
<ele>112.839996</ele>
<time>2024-04-17T09:37:31.052Z</time>
</trkpt>
<trkpt lat="31.5234400" lon="34.6748500">
<ele>112.250008</ele>
<time>2024-04-17T09:37:31.052Z</time>
</trkpt>
<trkpt lat="31.5234400" lon="34.6747200">
<ele>111.589996</ele>
<time>2024-04-17T09:37:31.052Z</time>
</trkpt>
<trkpt lat="31.5235100" lon="34.6745300">
<ele>109.290001</ele>
<time>2024-04-17T09:37:31.052Z</time>
</trkpt>
<trkpt lat="31.5235500" lon="34.6743600">
<ele>106.770004</ele>
<time>2024-04-17T09:37:31.052Z</time>
</trkpt>
<trkpt lat="31.5235800" lon="34.6741100">
<ele>102.019997</ele>
<time>2024-04-17T09:37:31.052Z</time>
</trkpt>
<trkpt lat="31.5235800" lon="34.6739400">
<ele>98.419998</ele>
<time>2024-04-17T09:37:31.052Z</time>
</trkpt>
<trkpt lat="31.5235600" lon="34.6738200">
<ele>97.299995</ele>
<time>2024-04-17T09:37:31.052Z</time>
</trkpt>
<trkpt lat="31.5235100" lon="34.6737100">
<ele>97.449997</ele>
<time>2024-04-17T09:37:31.052Z</time>
</trkpt>
<trkpt lat="31.5233500" lon="34.6734300">
<ele>102.000000</ele>
<time>2024-04-17T09:37:31.052Z</time>
</trkpt>
<trkpt lat="31.5233200" lon="34.6733500">
<ele>103.799995</ele>
<time>2024-04-17T09:37:31.052Z</time>
</trkpt>
<trkpt lat="31.5233100" lon="34.6732700">
<ele>105.919998</ele>
<time>2024-04-17T09:37:31.052Z</time>
</trkpt>
<trkpt lat="31.5233600" lon="34.6731600">
<ele>108.389999</ele>
<time>2024-04-17T09:37:31.052Z</time>
</trkpt>
<trkpt lat="31.5234400" lon="34.6730700">
<ele>108.940002</ele>
<time>2024-04-17T09:37:31.052Z</time>
</trkpt>
<trkpt lat="31.5235800" lon="34.6728800">
<ele>109.220001</ele>
<time>2024-04-17T09:37:31.052Z</time>
</trkpt>
<trkpt lat="31.5236000" lon="34.6727600">
<ele>111.209999</ele>
<time>2024-04-17T09:37:31.052Z</time>
</trkpt>
<trkpt lat="31.5235700" lon="34.6724600">
<ele>112.820000</ele>
<time>2024-04-17T09:37:31.052Z</time>
</trkpt>
<trkpt lat="31.5235700" lon="34.6723800">
<ele>111.870003</ele>
<time>2024-04-17T09:37:31.052Z</time>
</trkpt>
<trkpt lat="31.5235800" lon="34.6723400">
<ele>111.370003</ele>
<time>2024-04-17T09:37:31.052Z</time>
</trkpt>
<trkpt lat="31.5236000" lon="34.6723100">
<ele>110.970001</ele>
<time>2024-04-17T09:37:31.052Z</time>
</trkpt>
<trkpt lat="31.5238500" lon="34.6723000">
<ele>109.879997</ele>
<time>2024-04-17T09:37:31.052Z</time>
</trkpt>
<trkpt lat="31.5238900" lon="34.6722300">
<ele>109.980003</ele>
<time>2024-04-17T09:37:31.052Z</time>
</trkpt>
<trkpt lat="31.5238800" lon="34.6721900">
<ele>109.889999</ele>
<time>2024-04-17T09:37:31.052Z</time>
</trkpt>
<trkpt lat="31.5238500" lon="34.6720700">
<ele>109.610001</ele>
<time>2024-04-17T09:37:31.052Z</time>
</trkpt>
<trkpt lat="31.5237400" lon="34.6719600">
<ele>110.070000</ele>
<time>2024-04-17T09:37:31.052Z</time>
</trkpt>
<trkpt lat="31.5236100" lon="34.6718900">
<ele>110.409996</ele>
<time>2024-04-17T09:37:31.052Z</time>
</trkpt>
<trkpt lat="31.5235100" lon="34.6718600">
<ele>110.199997</ele>
<time>2024-04-17T09:37:31.052Z</time>
</trkpt>
<trkpt lat="31.5234800" lon="34.6718400">
<ele>110.049995</ele>
<time>2024-04-17T09:37:31.052Z</time>
</trkpt>
<trkpt lat="31.5234500" lon="34.6717700">
<ele>109.479996</ele>
<time>2024-04-17T09:37:31.052Z</time>
</trkpt>
<trkpt lat="31.5234500" lon="34.6716800">
<ele>108.699997</ele>
<time>2024-04-17T09:37:31.052Z</time>
</trkpt>
<trkpt lat="31.5234800" lon="34.6716000">
<ele>107.980003</ele>
<time>2024-04-17T09:37:31.052Z</time>
</trkpt>
<trkpt lat="31.5236500" lon="34.6714600">
<ele>105.279999</ele>
<time>2024-04-17T09:37:31.052Z</time>
</trkpt>
<trkpt lat="31.5239300" lon="34.6712600">
<ele>99.389999</ele>
<time>2024-04-17T09:37:31.052Z</time>
</trkpt>
<trkpt lat="31.5239800" lon="34.6712100">
<ele>98.530006</ele>
<time>2024-04-17T09:37:31.052Z</time>
</trkpt>
<trkpt lat="31.5242400" lon="34.6710000">
<ele>97.279999</ele>
<time>2024-04-17T09:37:31.052Z</time>
</trkpt>
<trkpt lat="31.5244400" lon="34.6709000">
<ele>98.230003</ele>
<time>2024-04-17T09:37:31.052Z</time>
</trkpt>
<trkpt lat="31.5248400" lon="34.6709000">
<ele>97.860001</ele>
<time>2024-04-17T09:37:31.052Z</time>
</trkpt>
<trkpt lat="31.5251900" lon="34.6709800">
<ele>93.990005</ele>
<time>2024-04-17T09:37:31.052Z</time>
</trkpt>
<trkpt lat="31.5254700" lon="34.6709700">
<ele>94.910004</ele>
<time>2024-04-17T09:37:31.052Z</time>
</trkpt>
<trkpt lat="31.5257100" lon="34.6708400">
<ele>98.949997</ele>
<time>2024-04-17T09:37:31.052Z</time>
</trkpt>
<trkpt lat="31.5257600" lon="34.6708400">
<ele>99.300003</ele>
<time>2024-04-17T09:37:31.052Z</time>
</trkpt>
<trkpt lat="31.5262800" lon="34.6706400">
<ele>97.340004</ele>
<time>2024-04-17T09:37:31.052Z</time>
</trkpt>
<trkpt lat="31.5263800" lon="34.6706300">
<ele>97.269997</ele>
<time>2024-04-17T09:37:31.052Z</time>
</trkpt>
<trkpt lat="31.5264500" lon="34.6706000">
<ele>96.760002</ele>
<time>2024-04-17T09:37:31.052Z</time>
</trkpt>
<trkpt lat="31.5265900" lon="34.6705900">
<ele>95.769997</ele>
<time>2024-04-17T09:37:31.052Z</time>
</trkpt>
<trkpt lat="31.5269100" lon="34.6705100">
<ele>93.960007</ele>
<time>2024-04-17T09:37:31.052Z</time>
</trkpt>
<trkpt lat="31.5270400" lon="34.6704400">
<ele>92.290001</ele>
<time>2024-04-17T09:37:31.052Z</time>
</trkpt>
<trkpt lat="31.5271900" lon="34.6703200">
<ele>90.980003</ele>
<time>2024-04-17T09:37:31.052Z</time>
</trkpt>
<trkpt lat="31.5275000" lon="34.6700500">
<ele>91.000000</ele>
<time>2024-04-17T09:37:31.052Z</time>
</trkpt>
<trkpt lat="31.5275700" lon="34.6699500">
<ele>90.220001</ele>
<time>2024-04-17T09:37:31.052Z</time>
</trkpt>
<trkpt lat="31.5276300" lon="34.6699200">
<ele>89.550003</ele>
<time>2024-04-17T09:37:31.052Z</time>
</trkpt>
<trkpt lat="31.5277100" lon="34.6698300">
<ele>89.049995</ele>
<time>2024-04-17T09:37:31.052Z</time>
</trkpt>
<trkpt lat="31.5278400" lon="34.6695800">
<ele>89.169998</ele>
<time>2024-04-17T09:37:31.052Z</time>
</trkpt>
<trkpt lat="31.5278600" lon="34.6695000">
<ele>89.090004</ele>
<time>2024-04-17T09:37:31.052Z</time>
</trkpt>
<trkpt lat="31.5278400" lon="34.6694200">
<ele>89.159996</ele>
<time>2024-04-17T09:37:31.052Z</time>
</trkpt>
<trkpt lat="31.5277900" lon="34.6693600">
<ele>89.019997</ele>
<time>2024-04-17T09:37:31.052Z</time>
</trkpt>
<trkpt lat="31.5277200" lon="34.6693200">
<ele>87.820000</ele>
<time>2024-04-17T09:37:31.052Z</time>
</trkpt>
<trkpt lat="31.5275300" lon="34.6692900">
<ele>84.760002</ele>
<time>2024-04-17T09:37:31.052Z</time>
</trkpt>
<trkpt lat="31.5275300" lon="34.6692900">
<ele>84.760002</ele>
<time>2024-04-17T09:37:31.052Z</time>
</trkpt>
<trkpt lat="31.5275300" lon="34.6692900">
<ele>84.760002</ele>
<time>2024-04-17T09:37:31.052Z</time>
</trkpt>
<trkpt lat="31.5273800" lon="34.6692300">
<ele>83.680000</ele>
<time>2024-04-17T09:37:31.052Z</time>
</trkpt>
<trkpt lat="31.5272100" lon="34.6690700">
<ele>83.760002</ele>
<time>2024-04-17T09:37:31.052Z</time>
</trkpt>
<trkpt lat="31.5271900" lon="34.6689500">
<ele>84.769997</ele>
<time>2024-04-17T09:37:31.052Z</time>
</trkpt>
<trkpt lat="31.5272000" lon="34.6688700">
<ele>85.419998</ele>
<time>2024-04-17T09:37:31.052Z</time>
</trkpt>
<trkpt lat="31.5272500" lon="34.6688000">
<ele>86.279999</ele>
<time>2024-04-17T09:37:31.052Z</time>
</trkpt>
<trkpt lat="31.5274600" lon="34.6687500">
<ele>87.000000</ele>
<time>2024-04-17T09:37:31.052Z</time>
</trkpt>
<trkpt lat="31.5275700" lon="34.6687400">
<ele>87.999992</ele>
<time>2024-04-17T09:37:31.052Z</time>
</trkpt>
<trkpt lat="31.5277200" lon="34.6686300">
<ele>90.470001</ele>
<time>2024-04-17T09:37:31.052Z</time>
</trkpt>
<trkpt lat="31.5277700" lon="34.6685700">
<ele>91.250000</ele>
<time>2024-04-17T09:37:31.052Z</time>
</trkpt>
<trkpt lat="31.5278000" lon="34.6684900">
<ele>92.010002</ele>
<time>2024-04-17T09:37:31.052Z</time>
</trkpt>
<trkpt lat="31.5278200" lon="34.6683700">
<ele>92.800003</ele>
<time>2024-04-17T09:37:31.052Z</time>
</trkpt>
<trkpt lat="31.5278100" lon="34.6682800">
<ele>93.189995</ele>
<time>2024-04-17T09:37:31.052Z</time>
</trkpt>
<trkpt lat="31.5277600" lon="34.6681700">
<ele>93.629997</ele>
<time>2024-04-17T09:37:31.052Z</time>
</trkpt>
<trkpt lat="31.5276300" lon="34.6680200">
<ele>94.659996</ele>
<time>2024-04-17T09:37:31.052Z</time>
</trkpt>
<trkpt lat="31.5274900" lon="34.6679000">
<ele>95.510002</ele>
<time>2024-04-17T09:37:31.052Z</time>
</trkpt>
<trkpt lat="31.5273700" lon="34.6676400">
<ele>96.290001</ele>
<time>2024-04-17T09:37:31.052Z</time>
</trkpt>
<trkpt lat="31.5272900" lon="34.6675000">
<ele>96.489998</ele>
<time>2024-04-17T09:37:31.052Z</time>
</trkpt>
<trkpt lat="31.5270500" lon="34.6672500">
<ele>97.310005</ele>
<time>2024-04-17T09:37:31.052Z</time>
</trkpt>
<trkpt lat="31.5269600" lon="34.6670700">
<ele>96.710007</ele>
<time>2024-04-17T09:37:31.052Z</time>
</trkpt>
<trkpt lat="31.5269200" lon="34.6668600">
<ele>96.969994</ele>
<time>2024-04-17T09:37:31.052Z</time>
</trkpt>
<trkpt lat="31.5269400" lon="34.6667400">
<ele>96.989998</ele>
<time>2024-04-17T09:37:31.052Z</time>
</trkpt>
<trkpt lat="31.5269800" lon="34.6667300">
<ele>97.160004</ele>
<time>2024-04-17T09:37:31.052Z</time>
</trkpt>
<trkpt lat="31.5273700" lon="34.6669400">
<ele>97.909996</ele>
<time>2024-04-17T09:37:31.052Z</time>
</trkpt>
<trkpt lat="31.5275500" lon="34.6669500">
<ele>96.870003</ele>
<time>2024-04-17T09:37:31.052Z</time>
</trkpt>
<trkpt lat="31.5276200" lon="34.6669300">
<ele>96.529999</ele>
<time>2024-04-17T09:37:31.052Z</time>
</trkpt>
<trkpt lat="31.5276600" lon="34.6668700">
<ele>96.349998</ele>
<time>2024-04-17T09:37:31.052Z</time>
</trkpt>
<trkpt lat="31.5277000" lon="34.6667500">
<ele>96.389992</ele>
<time>2024-04-17T09:37:31.052Z</time>
</trkpt>
<trkpt lat="31.5277300" lon="34.6665000">
<ele>96.059998</ele>
<time>2024-04-17T09:37:31.052Z</time>
</trkpt>
<trkpt lat="31.5277300" lon="34.6662500">
<ele>95.570000</ele>
<time>2024-04-17T09:37:31.052Z</time>
</trkpt>
<trkpt lat="31.5276500" lon="34.6659700">
<ele>96.420006</ele>
<time>2024-04-17T09:37:31.052Z</time>
</trkpt>
<trkpt lat="31.5276000" lon="34.6658500">
<ele>97.239998</ele>
<time>2024-04-17T09:37:31.052Z</time>
</trkpt>
<trkpt lat="31.5275400" lon="34.6657500">
<ele>98.380005</ele>
<time>2024-04-17T09:37:31.052Z</time>
</trkpt>
<trkpt lat="31.5274100" lon="34.6656000">
<ele>100.000000</ele>
<time>2024-04-17T09:37:31.052Z</time>
</trkpt>
<trkpt lat="31.5273800" lon="34.6655300">
<ele>100.980003</ele>
<time>2024-04-17T09:37:31.052Z</time>
</trkpt>
<trkpt lat="31.5272700" lon="34.6651300">
<ele>107.769997</ele>
<time>2024-04-17T09:37:31.052Z</time>
</trkpt>
<trkpt lat="31.5272300" lon="34.6647900">
<ele>109.150002</ele>
<time>2024-04-17T09:37:31.052Z</time>
</trkpt>
<trkpt lat="31.5272100" lon="34.6647200">
<ele>108.740005</ele>
<time>2024-04-17T09:37:31.052Z</time>
</trkpt>
<trkpt lat="31.5271400" lon="34.6647100">
<ele>107.380005</ele>
<time>2024-04-17T09:37:31.052Z</time>
</trkpt>
<trkpt lat="31.5270000" lon="34.6647500">
<ele>104.919998</ele>
<time>2024-04-17T09:37:31.052Z</time>
</trkpt>
<trkpt lat="31.5268600" lon="34.6647500">
<ele>103.870003</ele>
<time>2024-04-17T09:37:31.052Z</time>
</trkpt>
<trkpt lat="31.5267200" lon="34.6647000">
<ele>104.080002</ele>
<time>2024-04-17T09:37:31.052Z</time>
</trkpt>
<trkpt lat="31.5265700" lon="34.6646000">
<ele>103.940002</ele>
<time>2024-04-17T09:37:31.052Z</time>
</trkpt>
<trkpt lat="31.5263700" lon="34.6645000">
<ele>103.199997</ele>
<time>2024-04-17T09:37:31.052Z</time>
</trkpt>
<trkpt lat="31.5261900" lon="34.6644900">
<ele>105.150002</ele>
<time>2024-04-17T09:37:31.052Z</time>
</trkpt>
<trkpt lat="31.5260800" lon="34.6645000">
<ele>106.379997</ele>
<time>2024-04-17T09:37:31.052Z</time>
</trkpt>
<trkpt lat="31.5258200" lon="34.6646200">
<ele>108.150002</ele>
<time>2024-04-17T09:37:31.052Z</time>
</trkpt>
<trkpt lat="31.5256400" lon="34.6646300">
<ele>108.689995</ele>
<time>2024-04-17T09:37:31.052Z</time>
</trkpt>
<trkpt lat="31.5254100" lon="34.6647400">
<ele>108.480003</ele>
<time>2024-04-17T09:37:31.052Z</time>
</trkpt>
<trkpt lat="31.5252700" lon="34.6647500">
<ele>108.099998</ele>
<time>2024-04-17T09:37:31.052Z</time>
</trkpt>
<trkpt lat="31.5251600" lon="34.6647400">
<ele>109.530006</ele>
<time>2024-04-17T09:37:31.052Z</time>
</trkpt>
<trkpt lat="31.5250400" lon="34.6646500">
<ele>111.389999</ele>
<time>2024-04-17T09:37:31.052Z</time>
</trkpt>
<trkpt lat="31.5248300" lon="34.6642500">
<ele>113.989998</ele>
<time>2024-04-17T09:37:31.052Z</time>
</trkpt>
<trkpt lat="31.5247300" lon="34.6641300">
<ele>115.460007</ele>
<time>2024-04-17T09:37:31.052Z</time>
</trkpt>
<trkpt lat="31.5246100" lon="34.6640400">
<ele>113.639999</ele>
<time>2024-04-17T09:37:31.052Z</time>
</trkpt>
<trkpt lat="31.5245200" lon="34.6639200">
<ele>111.230003</ele>
<time>2024-04-17T09:37:31.052Z</time>
</trkpt>
<trkpt lat="31.5242000" lon="34.6634100">
<ele>102.950005</ele>
<time>2024-04-17T09:37:31.052Z</time>
</trkpt>
<trkpt lat="31.5241500" lon="34.6633500">
<ele>103.349998</ele>
<time>2024-04-17T09:37:31.052Z</time>
</trkpt>
<trkpt lat="31.5240100" lon="34.6633000">
<ele>106.129997</ele>
<time>2024-04-17T09:37:31.052Z</time>
</trkpt>
<trkpt lat="31.5237400" lon="34.6633700">
<ele>108.959999</ele>
<time>2024-04-17T09:37:31.052Z</time>
</trkpt>
<trkpt lat="31.5236300" lon="34.6633700">
<ele>109.220001</ele>
<time>2024-04-17T09:37:31.052Z</time>
</trkpt>
<trkpt lat="31.5235600" lon="34.6633400">
<ele>108.320000</ele>
<time>2024-04-17T09:37:31.052Z</time>
</trkpt>
<trkpt lat="31.5234600" lon="34.6633400">
<ele>106.889999</ele>
<time>2024-04-17T09:37:31.052Z</time>
</trkpt>
<trkpt lat="31.5233400" lon="34.6634400">
<ele>106.239998</ele>
<time>2024-04-17T09:37:31.052Z</time>
</trkpt>
<trkpt lat="31.5232900" lon="34.6635000">
<ele>106.490005</ele>
<time>2024-04-17T09:37:31.052Z</time>
</trkpt>
<trkpt lat="31.5232000" lon="34.6636800">
<ele>106.529999</ele>
<time>2024-04-17T09:37:31.052Z</time>
</trkpt>
<trkpt lat="31.5231100" lon="34.6637600">
<ele>105.650002</ele>
<time>2024-04-17T09:37:31.052Z</time>
</trkpt>
<trkpt lat="31.5230800" lon="34.6637600">
<ele>105.550003</ele>
<time>2024-04-17T09:37:31.052Z</time>
</trkpt>
<trkpt lat="31.5230100" lon="34.6637300">
<ele>106.739998</ele>
<time>2024-04-17T09:37:31.052Z</time>
</trkpt>
<trkpt lat="31.5228900" lon="34.6635200">
<ele>107.019997</ele>
<time>2024-04-17T09:37:31.052Z</time>
</trkpt>
<trkpt lat="31.5228300" lon="34.6634700">
<ele>106.470001</ele>
<time>2024-04-17T09:37:31.052Z</time>
</trkpt>
<trkpt lat="31.5228000" lon="34.6634600">
<ele>106.470001</ele>
<time>2024-04-17T09:37:31.052Z</time>
</trkpt>
<trkpt lat="31.5227200" lon="34.6634600">
<ele>107.099998</ele>
<time>2024-04-17T09:37:31.052Z</time>
</trkpt>
<trkpt lat="31.5225900" lon="34.6635400">
<ele>109.639999</ele>
<time>2024-04-17T09:37:31.052Z</time>
</trkpt>
<trkpt lat="31.5224800" lon="34.6636400">
<ele>111.340004</ele>
<time>2024-04-17T09:37:31.052Z</time>
</trkpt>
<trkpt lat="31.5224100" lon="34.6637300">
<ele>112.369995</ele>
<time>2024-04-17T09:37:31.052Z</time>
</trkpt>
<trkpt lat="31.5223200" lon="34.6638700">
<ele>113.559998</ele>
<time>2024-04-17T09:37:31.052Z</time>
</trkpt>
<trkpt lat="31.5222200" lon="34.6640900">
<ele>115.450005</ele>
<time>2024-04-17T09:37:31.052Z</time>
</trkpt>
<trkpt lat="31.5221600" lon="34.6644200">
<ele>115.200005</ele>
<time>2024-04-17T09:37:31.052Z</time>
</trkpt>
<trkpt lat="31.5221600" lon="34.6648000">
<ele>113.849998</ele>
<time>2024-04-17T09:37:31.052Z</time>
</trkpt>
<trkpt lat="31.5221400" lon="34.6648800">
<ele>114.540001</ele>
<time>2024-04-17T09:37:31.052Z</time>
</trkpt>
<trkpt lat="31.5221200" lon="34.6649200">
<ele>115.209999</ele>
<time>2024-04-17T09:37:31.052Z</time>
</trkpt>
<trkpt lat="31.5219200" lon="34.6650100">
<ele>120.909996</ele>
<time>2024-04-17T09:37:31.052Z</time>
</trkpt>
<trkpt lat="31.5218500" lon="34.6650200">
<ele>120.640007</ele>
<time>2024-04-17T09:37:31.052Z</time>
</trkpt>
<trkpt lat="31.5217900" lon="34.6650600">
<ele>120.320007</ele>
<time>2024-04-17T09:37:31.052Z</time>
</trkpt>
<trkpt lat="31.5217700" lon="34.6651500">
<ele>120.030006</ele>
<time>2024-04-17T09:37:31.052Z</time>
</trkpt>
<trkpt lat="31.5218000" lon="34.6652200">
<ele>120.070000</ele>
<time>2024-04-17T09:37:31.052Z</time>
</trkpt>
<trkpt lat="31.5220500" lon="34.6653800">
<ele>117.800003</ele>
<time>2024-04-17T09:37:31.052Z</time>
</trkpt>
<trkpt lat="31.5220900" lon="34.6654500">
<ele>116.769997</ele>
<time>2024-04-17T09:37:31.052Z</time>
</trkpt>
<trkpt lat="31.5221100" lon="34.6655300">
<ele>116.270004</ele>
<time>2024-04-17T09:37:31.052Z</time>
</trkpt>
<trkpt lat="31.5220900" lon="34.6656100">
<ele>116.720001</ele>
<time>2024-04-17T09:37:31.052Z</time>
</trkpt>
<trkpt lat="31.5220000" lon="34.6658400">
<ele>119.160004</ele>
<time>2024-04-17T09:37:31.052Z</time>
</trkpt>
<trkpt lat="31.5218400" lon="34.6664900">
<ele>114.180000</ele>
<time>2024-04-17T09:37:31.052Z</time>
</trkpt>
<trkpt lat="31.5217600" lon="34.6666300">
<ele>113.340004</ele>
<time>2024-04-17T09:37:31.052Z</time>
</trkpt>
<trkpt lat="31.5216900" lon="34.6666800">
<ele>113.230003</ele>
<time>2024-04-17T09:37:31.052Z</time>
</trkpt>
<trkpt lat="31.5216700" lon="34.6666800">
<ele>113.160004</ele>
<time>2024-04-17T09:37:31.052Z</time>
</trkpt>
<trkpt lat="31.5214500" lon="34.6666800">
<ele>115.220001</ele>
<time>2024-04-17T09:37:31.052Z</time>
</trkpt>
<trkpt lat="31.5213600" lon="34.6666700">
<ele>115.849998</ele>
<time>2024-04-17T09:37:31.052Z</time>
</trkpt>
<trkpt lat="31.5210600" lon="34.6666400">
<ele>114.260002</ele>
<time>2024-04-17T09:37:31.052Z</time>
</trkpt>
<trkpt lat="31.5209600" lon="34.6666000">
<ele>112.889999</ele>
<time>2024-04-17T09:37:31.052Z</time>
</trkpt>
<trkpt lat="31.5204900" lon="34.6665900">
<ele>111.279999</ele>
<time>2024-04-17T09:37:31.052Z</time>
</trkpt>
<trkpt lat="31.5203900" lon="34.6665600">
<ele>110.220001</ele>
<time>2024-04-17T09:37:31.052Z</time>
</trkpt>
<trkpt lat="31.5203500" lon="34.6665500">
<ele>109.909996</ele>
<time>2024-04-17T09:37:31.052Z</time>
</trkpt>
<trkpt lat="31.5202100" lon="34.6665000">
<ele>108.379997</ele>
<time>2024-04-17T09:37:31.052Z</time>
</trkpt>
<trkpt lat="31.5199900" lon="34.6663900">
<ele>102.800003</ele>
<time>2024-04-17T09:37:31.052Z</time>
</trkpt>
<trkpt lat="31.5199200" lon="34.6663700">
<ele>101.290001</ele>
<time>2024-04-17T09:37:31.052Z</time>
</trkpt>
<trkpt lat="31.5194500" lon="34.6661700">
<ele>98.000000</ele>
<time>2024-04-17T09:37:31.052Z</time>
</trkpt>
<trkpt lat="31.5192700" lon="34.6661700">
<ele>100.550003</ele>
<time>2024-04-17T09:37:31.052Z</time>
</trkpt>
<trkpt lat="31.5191300" lon="34.6661300">
<ele>101.830002</ele>
<time>2024-04-17T09:37:31.052Z</time>
</trkpt>
<trkpt lat="31.5190300" lon="34.6661300">
<ele>103.169998</ele>
<time>2024-04-17T09:37:31.052Z</time>
</trkpt>
<trkpt lat="31.5187800" lon="34.6661500">
<ele>105.260002</ele>
<time>2024-04-17T09:37:31.052Z</time>
</trkpt>
<trkpt lat="31.5185700" lon="34.6661800">
<ele>104.159996</ele>
<time>2024-04-17T09:37:31.052Z</time>
</trkpt>
<trkpt lat="31.5184700" lon="34.6662200">
<ele>101.580002</ele>
<time>2024-04-17T09:37:31.052Z</time>
</trkpt>
<trkpt lat="31.5182700" lon="34.6662100">
<ele>99.239998</ele>
<time>2024-04-17T09:37:31.052Z</time>
</trkpt>
<trkpt lat="31.5180600" lon="34.6661800">
<ele>100.479996</ele>
<time>2024-04-17T09:37:31.052Z</time>
</trkpt>
<trkpt lat="31.5177000" lon="34.6661300">
<ele>110.079994</ele>
<time>2024-04-17T09:37:31.052Z</time>
</trkpt>
<trkpt lat="31.5175700" lon="34.6660700">
<ele>111.500000</ele>
<time>2024-04-17T09:37:31.052Z</time>
</trkpt>
<trkpt lat="31.5175700" lon="34.6660700">
<ele>111.500000</ele>
<time>2024-04-17T09:37:31.052Z</time>
</trkpt>
<trkpt lat="31.5175100" lon="34.6660400">
<ele>111.929993</ele>
<time>2024-04-17T09:37:31.052Z</time>
</trkpt>
<trkpt lat="31.5172000" lon="34.6659200">
<ele>106.400002</ele>
<time>2024-04-17T09:37:31.052Z</time>
</trkpt>
<trkpt lat="31.5170600" lon="34.6659200">
<ele>102.660004</ele>
<time>2024-04-17T09:37:31.052Z</time>
</trkpt>
<trkpt lat="31.5169900" lon="34.6659500">
<ele>101.229996</ele>
<time>2024-04-17T09:37:31.052Z</time>
</trkpt>
<trkpt lat="31.5169200" lon="34.6659500">
<ele>99.830002</ele>
<time>2024-04-17T09:37:31.052Z</time>
</trkpt>
<trkpt lat="31.5168300" lon="34.6658200">
<ele>97.529999</ele>
<time>2024-04-17T09:37:31.052Z</time>
</trkpt>
<trkpt lat="31.5167500" lon="34.6657400">
<ele>97.099998</ele>
<time>2024-04-17T09:37:31.052Z</time>
</trkpt>
<trkpt lat="31.5163000" lon="34.6654900">
<ele>103.489998</ele>
<time>2024-04-17T09:37:31.052Z</time>
</trkpt>
<trkpt lat="31.5159500" lon="34.6654000">
<ele>101.349998</ele>
<time>2024-04-17T09:37:31.052Z</time>
</trkpt>
<trkpt lat="31.5157700" lon="34.6654000">
<ele>99.089996</ele>
<time>2024-04-17T09:37:31.052Z</time>
</trkpt>
<trkpt lat="31.5157300" lon="34.6654000">
<ele>98.820000</ele>
<time>2024-04-17T09:37:31.052Z</time>
</trkpt>
<trkpt lat="31.5156400" lon="34.6654600">
<ele>99.639999</ele>
<time>2024-04-17T09:37:31.052Z</time>
</trkpt>
<trkpt lat="31.5155600" lon="34.6655300">
<ele>100.489998</ele>
<time>2024-04-17T09:37:31.052Z</time>
</trkpt>
<trkpt lat="31.5155000" lon="34.6655900">
<ele>98.700005</ele>
<time>2024-04-17T09:37:31.052Z</time>
</trkpt>
<trkpt lat="31.5154000" lon="34.6656500">
<ele>95.909996</ele>
<time>2024-04-17T09:37:31.052Z</time>
</trkpt>
<trkpt lat="31.5153300" lon="34.6656500">
<ele>94.079994</ele>
<time>2024-04-17T09:37:31.052Z</time>
</trkpt>
<trkpt lat="31.5152300" lon="34.6656100">
<ele>91.370003</ele>
<time>2024-04-17T09:37:31.052Z</time>
</trkpt>
<trkpt lat="31.5150900" lon="34.6656100">
<ele>90.770004</ele>
<time>2024-04-17T09:37:31.052Z</time>
</trkpt>
<trkpt lat="31.5148800" lon="34.6657000">
<ele>90.400002</ele>
<time>2024-04-17T09:37:31.052Z</time>
</trkpt>
<trkpt lat="31.5147900" lon="34.6657500">
<ele>90.419998</ele>
<time>2024-04-17T09:37:31.052Z</time>
</trkpt>
<trkpt lat="31.5146000" lon="34.6659500">
<ele>93.599998</ele>
<time>2024-04-17T09:37:31.052Z</time>
</trkpt>
<trkpt lat="31.5145400" lon="34.6659900">
<ele>94.750000</ele>
<time>2024-04-17T09:37:31.052Z</time>
</trkpt>
<trkpt lat="31.5143400" lon="34.6660900">
<ele>96.669998</ele>
<time>2024-04-17T09:37:31.052Z</time>
</trkpt>
<trkpt lat="31.5141100" lon="34.6662800">
<ele>100.129997</ele>
<time>2024-04-17T09:37:31.052Z</time>
</trkpt>
<trkpt lat="31.5140300" lon="34.6663900">
<ele>102.520004</ele>
<time>2024-04-17T09:37:31.052Z</time>
</trkpt>
<trkpt lat="31.5139200" lon="34.6666400">
<ele>105.629997</ele>
<time>2024-04-17T09:37:31.052Z</time>
</trkpt>
<trkpt lat="31.5139000" lon="34.6668000">
<ele>106.940002</ele>
<time>2024-04-17T09:37:31.052Z</time>
</trkpt>
<trkpt lat="31.5138500" lon="34.6669600">
<ele>108.160004</ele>
<time>2024-04-17T09:37:31.052Z</time>
</trkpt>
<trkpt lat="31.5138400" lon="34.6670400">
<ele>108.300003</ele>
<time>2024-04-17T09:37:31.052Z</time>
</trkpt>
<trkpt lat="31.5138000" lon="34.6670900">
<ele>108.660004</ele>
<time>2024-04-17T09:37:31.052Z</time>
</trkpt>
<trkpt lat="31.5136900" lon="34.6670900">
<ele>109.469994</ele>
<time>2024-04-17T09:37:31.052Z</time>
</trkpt>
<trkpt lat="31.5135500" lon="34.6669500">
<ele>109.260002</ele>
<time>2024-04-17T09:37:31.052Z</time>
</trkpt>
<trkpt lat="31.5134800" lon="34.6669000">
<ele>109.230003</ele>
<time>2024-04-17T09:37:31.052Z</time>
</trkpt>
<trkpt lat="31.5134200" lon="34.6668900">
<ele>109.430000</ele>
<time>2024-04-17T09:37:31.052Z</time>
</trkpt>
<trkpt lat="31.5133100" lon="34.6670100">
<ele>110.770004</ele>
<time>2024-04-17T09:37:31.052Z</time>
</trkpt>
<trkpt lat="31.5131300" lon="34.6670500">
<ele>113.129997</ele>
<time>2024-04-17T09:37:31.052Z</time>
</trkpt>
<trkpt lat="31.5128400" lon="34.6670800">
<ele>113.639999</ele>
<time>2024-04-17T09:37:31.052Z</time>
</trkpt>
<trkpt lat="31.5128100" lon="34.6670700">
<ele>113.690002</ele>
<time>2024-04-17T09:37:31.052Z</time>
</trkpt>
<trkpt lat="31.5127400" lon="34.6670600">
<ele>113.980003</ele>
<time>2024-04-17T09:37:31.052Z</time>
</trkpt>
<trkpt lat="31.5127400" lon="34.6668700">
<ele>115.429993</ele>
<time>2024-04-17T09:37:31.052Z</time>
</trkpt>
<trkpt lat="31.5127200" lon="34.6662700">
<ele>115.279999</ele>
<time>2024-04-17T09:37:31.052Z</time>
</trkpt>
<trkpt lat="31.5126800" lon="34.6660800">
<ele>113.810005</ele>
<time>2024-04-17T09:37:31.052Z</time>
</trkpt>
<trkpt lat="31.5126800" lon="34.6659700">
<ele>113.310005</ele>
<time>2024-04-17T09:37:31.052Z</time>
</trkpt>
<trkpt lat="31.5126600" lon="34.6658900">
<ele>113.030006</ele>
<time>2024-04-17T09:37:31.052Z</time>
</trkpt>
<trkpt lat="31.5124000" lon="34.6657700">
<ele>112.790001</ele>
<time>2024-04-17T09:37:31.052Z</time>
</trkpt>
<trkpt lat="31.5121200" lon="34.6657000">
<ele>108.450005</ele>
<time>2024-04-17T09:37:31.052Z</time>
</trkpt>
<trkpt lat="31.5114700" lon="34.6658000">
<ele>104.299995</ele>
<time>2024-04-17T09:37:31.052Z</time>
</trkpt>
<trkpt lat="31.5111500" lon="34.6657900">
<ele>108.839996</ele>
<time>2024-04-17T09:37:31.052Z</time>
</trkpt>
<trkpt lat="31.5109200" lon="34.6656200">
<ele>112.720001</ele>
<time>2024-04-17T09:37:31.052Z</time>
</trkpt>
<trkpt lat="31.5107600" lon="34.6654100">
<ele>117.879997</ele>
<time>2024-04-17T09:37:31.052Z</time>
</trkpt>
<trkpt lat="31.5102700" lon="34.6653700">
<ele>124.399994</ele>
<time>2024-04-17T09:37:31.052Z</time>
</trkpt>
<trkpt lat="31.5098600" lon="34.6651100">
<ele>121.959999</ele>
<time>2024-04-17T09:37:31.052Z</time>
</trkpt>
<trkpt lat="31.5096100" lon="34.6651000">
<ele>116.309998</ele>
<time>2024-04-17T09:37:31.052Z</time>
</trkpt>
<trkpt lat="31.5096100" lon="34.6651000">
<ele>116.309998</ele>
<time>2024-04-17T09:37:31.052Z</time>
</trkpt>
<trkpt lat="31.5093100" lon="34.6650900">
<ele>109.580002</ele>
<time>2024-04-17T09:37:31.052Z</time>
</trkpt>
<trkpt lat="31.5091100" lon="34.6650100">
<ele>104.970001</ele>
<time>2024-04-17T09:37:31.052Z</time>
</trkpt>
<trkpt lat="31.5090500" lon="34.6649800">
<ele>103.970001</ele>
<time>2024-04-17T09:37:31.052Z</time>
</trkpt>
<trkpt lat="31.5088800" lon="34.6648800">
<ele>101.300003</ele>
<time>2024-04-17T09:37:31.052Z</time>
</trkpt>
<trkpt lat="31.5087600" lon="34.6648400">
<ele>99.790001</ele>
<time>2024-04-17T09:37:31.052Z</time>
</trkpt>
<trkpt lat="31.5086600" lon="34.6647700">
<ele>99.070000</ele>
<time>2024-04-17T09:37:31.052Z</time>
</trkpt>
<trkpt lat="31.5085100" lon="34.6648000">
<ele>96.440002</ele>
<time>2024-04-17T09:37:31.052Z</time>
</trkpt>
<trkpt lat="31.5084200" lon="34.6648300">
<ele>94.659996</ele>
<time>2024-04-17T09:37:31.052Z</time>
</trkpt>
<trkpt lat="31.5079200" lon="34.6648300">
<ele>93.139999</ele>
<time>2024-04-17T09:37:31.052Z</time>
</trkpt>
<trkpt lat="31.5077700" lon="34.6648000">
<ele>93.410004</ele>
<time>2024-04-17T09:37:31.052Z</time>
</trkpt>
<trkpt lat="31.5076700" lon="34.6647100">
<ele>93.830002</ele>
<time>2024-04-17T09:37:31.052Z</time>
</trkpt>
<trkpt lat="31.5075900" lon="34.6644900">
<ele>97.500000</ele>
<time>2024-04-17T09:37:31.052Z</time>
</trkpt>
<trkpt lat="31.5076000" lon="34.6643600">
<ele>98.580002</ele>
<time>2024-04-17T09:37:31.052Z</time>
</trkpt>
<trkpt lat="31.5076200" lon="34.6641800">
<ele>99.250000</ele>
<time>2024-04-17T09:37:31.052Z</time>
</trkpt>
<trkpt lat="31.5076700" lon="34.6639300">
<ele>97.940002</ele>
<time>2024-04-17T09:37:31.052Z</time>
</trkpt>
<trkpt lat="31.5078300" lon="34.6637400">
<ele>97.030006</ele>
<time>2024-04-17T09:37:31.052Z</time>
</trkpt>
<trkpt lat="31.5079100" lon="34.6636800">
<ele>96.849998</ele>
<time>2024-04-17T09:37:31.052Z</time>
</trkpt>
<trkpt lat="31.5079100" lon="34.6636800">
<ele>96.849998</ele>
<time>2024-04-17T09:37:31.052Z</time>
</trkpt>
<trkpt lat="31.5081400" lon="34.6635100">
<ele>96.860001</ele>
<time>2024-04-17T09:37:31.052Z</time>
</trkpt>
<trkpt lat="31.5082000" lon="34.6633400">
<ele>97.040001</ele>
<time>2024-04-17T09:37:31.052Z</time>
</trkpt>
<trkpt lat="31.5083800" lon="34.6623900">
<ele>92.740005</ele>
<time>2024-04-17T09:37:31.052Z</time>
</trkpt>
<trkpt lat="31.5084200" lon="34.6621500">
<ele>92.559998</ele>
<time>2024-04-17T09:37:31.052Z</time>
</trkpt>
<trkpt lat="31.5085000" lon="34.6619000">
<ele>93.260002</ele>
<time>2024-04-17T09:37:31.052Z</time>
</trkpt>
<trkpt lat="31.5085600" lon="34.6616700">
<ele>90.320000</ele>
<time>2024-04-17T09:37:31.052Z</time>
</trkpt>
<trkpt lat="31.5087500" lon="34.6615200">
<ele>90.439995</ele>
<time>2024-04-17T09:37:31.052Z</time>
</trkpt>
<trkpt lat="31.5088200" lon="34.6612700">
<ele>88.470001</ele>
<time>2024-04-17T09:37:31.052Z</time>
</trkpt>
<trkpt lat="31.5089500" lon="34.6609500">
<ele>88.579994</ele>
<time>2024-04-17T09:37:31.052Z</time>
</trkpt>
<trkpt lat="31.5091200" lon="34.6607900">
<ele>88.129997</ele>
<time>2024-04-17T09:37:31.052Z</time>
</trkpt>
<trkpt lat="31.5092300" lon="34.6606400">
<ele>87.689995</ele>
<time>2024-04-17T09:37:31.052Z</time>
</trkpt>
<trkpt lat="31.5093500" lon="34.6604800">
<ele>88.500000</ele>
<time>2024-04-17T09:37:31.052Z</time>
</trkpt>
<trkpt lat="31.5095100" lon="34.6602700">
<ele>89.769997</ele>
<time>2024-04-17T09:37:31.052Z</time>
</trkpt>
<trkpt lat="31.5096400" lon="34.6599900">
<ele>89.989998</ele>
<time>2024-04-17T09:37:31.052Z</time>
</trkpt>
<trkpt lat="31.5096600" lon="34.6595000">
<ele>88.529999</ele>
<time>2024-04-17T09:37:31.052Z</time>
</trkpt>
<trkpt lat="31.5095500" lon="34.6584800">
<ele>88.449997</ele>
<time>2024-04-17T09:37:31.052Z</time>
</trkpt>
<trkpt lat="31.5094200" lon="34.6581600">
<ele>90.709999</ele>
<time>2024-04-17T09:37:31.052Z</time>
</trkpt>
<trkpt lat="31.5094300" lon="34.6577900">
<ele>93.510002</ele>
<time>2024-04-17T09:37:31.052Z</time>
</trkpt>
<trkpt lat="31.5093800" lon="34.6576000">
<ele>91.500000</ele>
<time>2024-04-17T09:37:31.052Z</time>
</trkpt>
<trkpt lat="31.5094100" lon="34.6574300">
<ele>91.349998</ele>
<time>2024-04-17T09:37:31.052Z</time>
</trkpt>
<trkpt lat="31.5094300" lon="34.6568700">
<ele>86.779999</ele>
<time>2024-04-17T09:37:31.052Z</time>
</trkpt>
<trkpt lat="31.5094500" lon="34.6563500">
<ele>86.179993</ele>
<time>2024-04-17T09:37:31.052Z</time>
</trkpt>
<trkpt lat="31.5095000" lon="34.6556500">
<ele>87.539993</ele>
<time>2024-04-17T09:37:31.052Z</time>
</trkpt>
<trkpt lat="31.5094800" lon="34.6555700">
<ele>87.270004</ele>
<time>2024-04-17T09:37:31.052Z</time>
</trkpt>
<trkpt lat="31.5091700" lon="34.6550000">
<ele>87.949997</ele>
<time>2024-04-17T09:37:31.052Z</time>
</trkpt>
<trkpt lat="31.5091800" lon="34.6547500">
<ele>85.239998</ele>
<time>2024-04-17T09:37:31.052Z</time>
</trkpt>
<trkpt lat="31.5091800" lon="34.6547500">
<ele>85.239998</ele>
<time>2024-04-17T09:37:31.052Z</time>
</trkpt>
<trkpt lat="31.5091800" lon="34.6547100">
<ele>84.830002</ele>
<time>2024-04-17T09:37:31.052Z</time>
</trkpt>
<trkpt lat="31.5093900" lon="34.6539800">
<ele>81.690002</ele>
<time>2024-04-17T09:37:31.052Z</time>
</trkpt>
<trkpt lat="31.5093600" lon="34.6536800">
<ele>82.830002</ele>
<time>2024-04-17T09:37:31.052Z</time>
</trkpt>
<trkpt lat="31.5095200" lon="34.6533000">
<ele>83.750008</ele>
<time>2024-04-17T09:37:31.052Z</time>
</trkpt>
<trkpt lat="31.5097900" lon="34.6528100">
<ele>86.510002</ele>
<time>2024-04-17T09:37:31.052Z</time>
</trkpt>
<trkpt lat="31.5097900" lon="34.6525900">
<ele>86.340004</ele>
<time>2024-04-17T09:37:31.052Z</time>
</trkpt>
<trkpt lat="31.5096900" lon="34.6522700">
<ele>88.080002</ele>
<time>2024-04-17T09:37:31.052Z</time>
</trkpt>
<trkpt lat="31.5099600" lon="34.6518200">
<ele>85.750000</ele>
<time>2024-04-17T09:37:31.052Z</time>
</trkpt>
<trkpt lat="31.5100600" lon="34.6516200">
<ele>85.559998</ele>
<time>2024-04-17T09:37:31.052Z</time>
</trkpt>
<trkpt lat="31.5103000" lon="34.6513000">
<ele>85.949997</ele>
<time>2024-04-17T09:37:31.052Z</time>
</trkpt>
<trkpt lat="31.5105200" lon="34.6511300">
<ele>85.940002</ele>
<time>2024-04-17T09:37:31.052Z</time>
</trkpt>
<trkpt lat="31.5107100" lon="34.6512500">
<ele>84.670006</ele>
<time>2024-04-17T09:37:31.052Z</time>
</trkpt>
<trkpt lat="31.5108800" lon="34.6513000">
<ele>84.260002</ele>
<time>2024-04-17T09:37:31.052Z</time>
</trkpt>
<trkpt lat="31.5110600" lon="34.6511100">
<ele>85.820000</ele>
<time>2024-04-17T09:37:31.052Z</time>
</trkpt>
<trkpt lat="31.5111000" lon="34.6510600">
<ele>86.340004</ele>
<time>2024-04-17T09:37:31.052Z</time>
</trkpt>
<trkpt lat="31.5111000" lon="34.6510600">
<ele>86.340004</ele>
<time>2024-04-17T09:37:31.052Z</time>
</trkpt>
<trkpt lat="31.5111500" lon="34.6509800">
<ele>86.939995</ele>
<time>2024-04-17T09:37:31.052Z</time>
</trkpt>
<trkpt lat="31.5112400" lon="34.6509300">
<ele>87.300003</ele>
<time>2024-04-17T09:37:31.052Z</time>
</trkpt>
<trkpt lat="31.5113000" lon="34.6508700">
<ele>87.740005</ele>
<time>2024-04-17T09:37:31.052Z</time>
</trkpt>
<trkpt lat="31.5113300" lon="34.6506200">
<ele>88.159996</ele>
<time>2024-04-17T09:37:31.052Z</time>
</trkpt>
<trkpt lat="31.5113600" lon="34.6504300">
<ele>88.559998</ele>
<time>2024-04-17T09:37:31.052Z</time>
</trkpt>
<trkpt lat="31.5114200" lon="34.6502700">
<ele>87.839996</ele>
<time>2024-04-17T09:37:31.052Z</time>
</trkpt>
<trkpt lat="31.5114500" lon="34.6501800">
<ele>87.669998</ele>
<time>2024-04-17T09:37:31.052Z</time>
</trkpt>
<trkpt lat="31.5115400" lon="34.6500500">
<ele>86.889999</ele>
<time>2024-04-17T09:37:31.052Z</time>
</trkpt>
<trkpt lat="31.5116400" lon="34.6499500">
<ele>86.110001</ele>
<time>2024-04-17T09:37:31.052Z</time>
</trkpt>
<trkpt lat="31.5116300" lon="34.6498700">
<ele>86.980003</ele>
<time>2024-04-17T09:37:31.052Z</time>
</trkpt>
<trkpt lat="31.5116200" lon="34.6498300">
<ele>87.330002</ele>
<time>2024-04-17T09:37:31.052Z</time>
</trkpt>
<trkpt lat="31.5115900" lon="34.6497100">
<ele>87.620003</ele>
<time>2024-04-17T09:37:31.052Z</time>
</trkpt>
<trkpt lat="31.5115400" lon="34.6495200">
<ele>86.720001</ele>
<time>2024-04-17T09:37:31.052Z</time>
</trkpt>
<trkpt lat="31.5115300" lon="34.6494700">
<ele>86.540001</ele>
<time>2024-04-17T09:37:31.052Z</time>
</trkpt>
<trkpt lat="31.5114900" lon="34.6492800">
<ele>83.400002</ele>
<time>2024-04-17T09:37:31.052Z</time>
</trkpt>
<trkpt lat="31.5111800" lon="34.6492400">
<ele>81.790001</ele>
<time>2024-04-17T09:37:31.052Z</time>
</trkpt>
<trkpt lat="31.5109400" lon="34.6491100">
<ele>80.870003</ele>
<time>2024-04-17T09:37:31.052Z</time>
</trkpt>
<trkpt lat="31.5111400" lon="34.6485000">
<ele>81.330002</ele>
<time>2024-04-17T09:37:31.052Z</time>
</trkpt>
<trkpt lat="31.5109200" lon="34.6484900">
<ele>80.650002</ele>
<time>2024-04-17T09:37:31.052Z</time>
</trkpt>
<trkpt lat="31.5107000" lon="34.6483700">
<ele>77.480003</ele>
<time>2024-04-17T09:37:31.052Z</time>
</trkpt>
<trkpt lat="31.5105800" lon="34.6483200">
<ele>75.389999</ele>
<time>2024-04-17T09:37:31.052Z</time>
</trkpt>
<trkpt lat="31.5104800" lon="34.6482800">
<ele>76.550003</ele>
<time>2024-04-17T09:37:31.052Z</time>
</trkpt>
<trkpt lat="31.5103700" lon="34.6482500">
<ele>78.639999</ele>
<time>2024-04-17T09:37:31.052Z</time>
</trkpt>
<trkpt lat="31.5101300" lon="34.6481900">
<ele>81.889999</ele>
<time>2024-04-17T09:37:31.052Z</time>
</trkpt>
<trkpt lat="31.5101400" lon="34.6480300">
<ele>83.660004</ele>
<time>2024-04-17T09:37:31.052Z</time>
</trkpt>
<trkpt lat="31.5100800" lon="34.6478700">
<ele>85.900002</ele>
<time>2024-04-17T09:37:31.052Z</time>
</trkpt>
<trkpt lat="31.5100600" lon="34.6477500">
<ele>86.779999</ele>
<time>2024-04-17T09:37:31.052Z</time>
</trkpt>
<trkpt lat="31.5100600" lon="34.6476600">
<ele>86.350006</ele>
<time>2024-04-17T09:37:31.052Z</time>
</trkpt>
<trkpt lat="31.5100600" lon="34.6475800">
<ele>85.959999</ele>
<time>2024-04-17T09:37:31.052Z</time>
</trkpt>
<trkpt lat="31.5101100" lon="34.6472900">
<ele>87.779999</ele>
<time>2024-04-17T09:37:31.052Z</time>
</trkpt>
<trkpt lat="31.5102000" lon="34.6469900">
<ele>90.790001</ele>
<time>2024-04-17T09:37:31.052Z</time>
</trkpt>
<trkpt lat="31.5103600" lon="34.6464100">
<ele>98.959999</ele>
<time>2024-04-17T09:37:31.052Z</time>
</trkpt>
<trkpt lat="31.5103700" lon="34.6462800">
<ele>99.340004</ele>
<time>2024-04-17T09:37:31.052Z</time>
</trkpt>
<trkpt lat="31.5103300" lon="34.6457800">
<ele>102.190002</ele>
<time>2024-04-17T09:37:31.052Z</time>
</trkpt>
<trkpt lat="31.5103800" lon="34.6453600">
<ele>102.329994</ele>
<time>2024-04-17T09:37:31.052Z</time>
</trkpt>
<trkpt lat="31.5103900" lon="34.6450700">
<ele>102.889999</ele>
<time>2024-04-17T09:37:31.052Z</time>
</trkpt>
<trkpt lat="31.5103900" lon="34.6449000">
<ele>103.150002</ele>
<time>2024-04-17T09:37:31.052Z</time>
</trkpt>
<trkpt lat="31.5103600" lon="34.6445600">
<ele>104.699997</ele>
<time>2024-04-17T09:37:31.052Z</time>
</trkpt>
<trkpt lat="31.5103600" lon="34.6444000">
<ele>104.739998</ele>
<time>2024-04-17T09:37:31.052Z</time>
</trkpt>
<trkpt lat="31.5104200" lon="34.6438900">
<ele>101.470001</ele>
<time>2024-04-17T09:37:31.052Z</time>
</trkpt>
<trkpt lat="31.5104400" lon="34.6435600">
<ele>98.700005</ele>
<time>2024-04-17T09:37:31.052Z</time>
</trkpt>
<trkpt lat="31.5104200" lon="34.6431400">
<ele>94.720001</ele>
<time>2024-04-17T09:37:31.052Z</time>
</trkpt>
<trkpt lat="31.5104100" lon="34.6427800">
<ele>93.060005</ele>
<time>2024-04-17T09:37:31.052Z</time>
</trkpt>
<trkpt lat="31.5104100" lon="34.6427200">
<ele>93.250000</ele>
<time>2024-04-17T09:37:31.052Z</time>
</trkpt>
<trkpt lat="31.5103800" lon="34.6425900">
<ele>93.759995</ele>
<time>2024-04-17T09:37:31.052Z</time>
</trkpt>
<trkpt lat="31.5102800" lon="34.6423300">
<ele>92.190002</ele>
<time>2024-04-17T09:37:31.052Z</time>
</trkpt>
<trkpt lat="31.5100700" lon="34.6419300">
<ele>91.029999</ele>
<time>2024-04-17T09:37:31.052Z</time>
</trkpt>
<trkpt lat="31.5100600" lon="34.6417600">
<ele>91.380005</ele>
<time>2024-04-17T09:37:31.052Z</time>
</trkpt>
<trkpt lat="31.5101500" lon="34.6414800">
<ele>93.919998</ele>
<time>2024-04-17T09:37:31.052Z</time>
</trkpt>
<trkpt lat="31.5101700" lon="34.6413100">
<ele>93.900002</ele>
<time>2024-04-17T09:37:31.052Z</time>
</trkpt>
<trkpt lat="31.5100900" lon="34.6408100">
<ele>88.239998</ele>
<time>2024-04-17T09:37:31.052Z</time>
</trkpt>
<trkpt lat="31.5100900" lon="34.6408100">
<ele>88.239998</ele>
<time>2024-04-17T09:37:31.052Z</time>
</trkpt>
<trkpt lat="31.5100400" lon="34.6405600">
<ele>87.320000</ele>
<time>2024-04-17T09:37:31.052Z</time>
</trkpt>
<trkpt lat="31.5099300" lon="34.6402900">
<ele>87.079994</ele>
<time>2024-04-17T09:37:31.052Z</time>
</trkpt>
<trkpt lat="31.5098500" lon="34.6400100">
<ele>85.519997</ele>
<time>2024-04-17T09:37:31.052Z</time>
</trkpt>
<trkpt lat="31.5098900" lon="34.6398000">
<ele>84.750000</ele>
<time>2024-04-17T09:37:31.052Z</time>
</trkpt>
<trkpt lat="31.5098900" lon="34.6394600">
<ele>83.669998</ele>
<time>2024-04-17T09:37:31.052Z</time>
</trkpt>
<trkpt lat="31.5098200" lon="34.6390400">
<ele>83.379997</ele>
<time>2024-04-17T09:37:31.052Z</time>
</trkpt>
<trkpt lat="31.5098200" lon="34.6386600">
<ele>82.240005</ele>
<time>2024-04-17T09:37:31.052Z</time>
</trkpt>
<trkpt lat="31.5098600" lon="34.6385500">
<ele>82.220001</ele>
<time>2024-04-17T09:37:31.052Z</time>
</trkpt>
<trkpt lat="31.5099300" lon="34.6383500">
<ele>82.470001</ele>
<time>2024-04-17T09:37:31.052Z</time>
</trkpt>
<trkpt lat="31.5099700" lon="34.6382600">
<ele>82.270004</ele>
<time>2024-04-17T09:37:31.052Z</time>
</trkpt>
<trkpt lat="31.5099500" lon="34.6382000">
<ele>82.530006</ele>
<time>2024-04-17T09:37:31.052Z</time>
</trkpt>
<trkpt lat="31.5099200" lon="34.6380200">
<ele>82.509995</ele>
<time>2024-04-17T09:37:31.052Z</time>
</trkpt>
<trkpt lat="31.5098100" lon="34.6378800">
<ele>81.579994</ele>
<time>2024-04-17T09:37:31.052Z</time>
</trkpt>
<trkpt lat="31.5097900" lon="34.6378100">
<ele>80.599998</ele>
<time>2024-04-17T09:37:31.052Z</time>
</trkpt>
<trkpt lat="31.5098000" lon="34.6377000">
<ele>78.720001</ele>
<time>2024-04-17T09:37:31.052Z</time>
</trkpt>
<trkpt lat="31.5099000" lon="34.6374700">
<ele>75.139999</ele>
<time>2024-04-17T09:37:31.052Z</time>
</trkpt>
<trkpt lat="31.5101100" lon="34.6371800">
<ele>73.580002</ele>
<time>2024-04-17T09:37:31.052Z</time>
</trkpt>
<trkpt lat="31.5102200" lon="34.6369900">
<ele>73.089996</ele>
<time>2024-04-17T09:37:31.052Z</time>
</trkpt>
<trkpt lat="31.5102000" lon="34.6368400">
<ele>72.510002</ele>
<time>2024-04-17T09:37:31.052Z</time>
</trkpt>
<trkpt lat="31.5102400" lon="34.6367800">
<ele>72.699997</ele>
<time>2024-04-17T09:37:31.052Z</time>
</trkpt>
<trkpt lat="31.5101400" lon="34.6366700">
<ele>71.520004</ele>
<time>2024-04-17T09:37:31.052Z</time>
</trkpt>
<trkpt lat="31.5100400" lon="34.6366200">
<ele>70.739998</ele>
<time>2024-04-17T09:37:31.052Z</time>
</trkpt>
<trkpt lat="31.5099400" lon="34.6366100">
<ele>70.059998</ele>
<time>2024-04-17T09:37:31.052Z</time>
</trkpt>
<trkpt lat="31.5099000" lon="34.6366300">
<ele>69.639999</ele>
<time>2024-04-17T09:37:31.052Z</time>
</trkpt>
<trkpt lat="31.5098400" lon="34.6366800">
<ele>68.940002</ele>
<time>2024-04-17T09:37:31.052Z</time>
</trkpt>
<trkpt lat="31.5097400" lon="34.6368000">
<ele>69.090004</ele>
<time>2024-04-17T09:37:31.052Z</time>
</trkpt>
<trkpt lat="31.5095900" lon="34.6369000">
<ele>71.409996</ele>
<time>2024-04-17T09:37:31.052Z</time>
</trkpt>
<trkpt lat="31.5094900" lon="34.6369500">
<ele>72.500000</ele>
<time>2024-04-17T09:37:31.052Z</time>
</trkpt>
<trkpt lat="31.5092800" lon="34.6371100">
<ele>73.949997</ele>
<time>2024-04-17T09:37:31.052Z</time>
</trkpt>
<trkpt lat="31.5091100" lon="34.6372700">
<ele>71.010002</ele>
<time>2024-04-17T09:37:31.052Z</time>
</trkpt>
<trkpt lat="31.5089800" lon="34.6373500">
<ele>67.299995</ele>
<time>2024-04-17T09:37:31.052Z</time>
</trkpt>
<trkpt lat="31.5086000" lon="34.6377400">
<ele>65.839996</ele>
<time>2024-04-17T09:37:31.052Z</time>
</trkpt>
<trkpt lat="31.5083900" lon="34.6379300">
<ele>68.470001</ele>
<time>2024-04-17T09:37:31.052Z</time>
</trkpt>
<trkpt lat="31.5082200" lon="34.6381400">
<ele>69.650002</ele>
<time>2024-04-17T09:37:31.052Z</time>
</trkpt>
<trkpt lat="31.5075300" lon="34.6386200">
<ele>59.640003</ele>
<time>2024-04-17T09:37:31.052Z</time>
</trkpt>
<trkpt lat="31.5070400" lon="34.6389100">
<ele>80.470001</ele>
<time>2024-04-17T09:37:31.052Z</time>
</trkpt>
<trkpt lat="31.5061200" lon="34.6390100">
<ele>85.280006</ele>
<time>2024-04-17T09:37:31.052Z</time>
</trkpt>
<trkpt lat="31.5057500" lon="34.6390500">
<ele>82.779999</ele>
<time>2024-04-17T09:37:31.052Z</time>
</trkpt>
<trkpt lat="31.5057500" lon="34.6390500">
<ele>82.779999</ele>
<time>2024-04-17T09:37:31.052Z</time>
</trkpt>
<trkpt lat="31.5055600" lon="34.6390700">
<ele>78.820000</ele>
<time>2024-04-17T09:37:31.052Z</time>
</trkpt>
<trkpt lat="31.5054600" lon="34.6390500">
<ele>78.139999</ele>
<time>2024-04-17T09:37:31.052Z</time>
</trkpt>
<trkpt lat="31.5052900" lon="34.6390500">
<ele>76.440002</ele>
<time>2024-04-17T09:37:31.052Z</time>
</trkpt>
<trkpt lat="31.5050700" lon="34.6390700">
<ele>73.420006</ele>
<time>2024-04-17T09:37:31.052Z</time>
</trkpt>
<trkpt lat="31.5049600" lon="34.6390500">
<ele>73.180000</ele>
<time>2024-04-17T09:37:31.052Z</time>
</trkpt>
<trkpt lat="31.5048900" lon="34.6390500">
<ele>74.500000</ele>
<time>2024-04-17T09:37:31.052Z</time>
</trkpt>
<trkpt lat="31.5045700" lon="34.6388800">
<ele>83.930000</ele>
<time>2024-04-17T09:37:31.052Z</time>
</trkpt>
<trkpt lat="31.5044300" lon="34.6388400">
<ele>87.209999</ele>
<time>2024-04-17T09:37:31.052Z</time>
</trkpt>
<trkpt lat="31.5042500" lon="34.6388400">
<ele>87.629997</ele>
<time>2024-04-17T09:37:31.052Z</time>
</trkpt>
<trkpt lat="31.5040100" lon="34.6389200">
<ele>87.270004</ele>
<time>2024-04-17T09:37:31.052Z</time>
</trkpt>
<trkpt lat="31.5036000" lon="34.6389300">
<ele>87.770004</ele>
<time>2024-04-17T09:37:31.052Z</time>
</trkpt>
<trkpt lat="31.5035200" lon="34.6389700">
<ele>88.250000</ele>
<time>2024-04-17T09:37:31.052Z</time>
</trkpt>
<trkpt lat="31.5034200" lon="34.6390300">
<ele>87.770004</ele>
<time>2024-04-17T09:37:31.052Z</time>
</trkpt>
<trkpt lat="31.5031500" lon="34.6393100">
<ele>80.500000</ele>
<time>2024-04-17T09:37:31.052Z</time>
</trkpt>
<trkpt lat="31.5030900" lon="34.6394100">
<ele>79.970001</ele>
<time>2024-04-17T09:37:31.052Z</time>
</trkpt>
<trkpt lat="31.5029200" lon="34.6398800">
<ele>81.269997</ele>
<time>2024-04-17T09:37:31.052Z</time>
</trkpt>
<trkpt lat="31.5028000" lon="34.6401400">
<ele>80.659996</ele>
<time>2024-04-17T09:37:31.052Z</time>
</trkpt>
<trkpt lat="31.5027200" lon="34.6402800">
<ele>80.620003</ele>
<time>2024-04-17T09:37:31.052Z</time>
</trkpt>
<trkpt lat="31.5025700" lon="34.6403800">
<ele>81.690002</ele>
<time>2024-04-17T09:37:31.052Z</time>
</trkpt>
<trkpt lat="31.5024400" lon="34.6403800">
<ele>82.990005</ele>
<time>2024-04-17T09:37:31.052Z</time>
</trkpt>
<trkpt lat="31.5023000" lon="34.6403300">
<ele>84.919998</ele>
<time>2024-04-17T09:37:31.052Z</time>
</trkpt>
<trkpt lat="31.5021200" lon="34.6401600">
<ele>87.260002</ele>
<time>2024-04-17T09:37:31.052Z</time>
</trkpt>
<trkpt lat="31.5020100" lon="34.6400900">
<ele>88.810005</ele>
<time>2024-04-17T09:37:31.052Z</time>
</trkpt>
<trkpt lat="31.5019700" lon="34.6401400">
<ele>89.169998</ele>
<time>2024-04-17T09:37:31.052Z</time>
</trkpt>
<trkpt lat="31.5018900" lon="34.6403000">
<ele>88.729996</ele>
<time>2024-04-17T09:37:31.052Z</time>
</trkpt>
<trkpt lat="31.5018200" lon="34.6403400">
<ele>88.129997</ele>
<time>2024-04-17T09:37:31.052Z</time>
</trkpt>
<trkpt lat="31.5017500" lon="34.6403300">
<ele>88.170006</ele>
<time>2024-04-17T09:37:31.052Z</time>
</trkpt>
<trkpt lat="31.5015500" lon="34.6402500">
<ele>88.299995</ele>
<time>2024-04-17T09:37:31.052Z</time>
</trkpt>
<trkpt lat="31.5014200" lon="34.6401700">
<ele>87.959999</ele>
<time>2024-04-17T09:37:31.052Z</time>
</trkpt>
<trkpt lat="31.5013000" lon="34.6400700">
<ele>89.290001</ele>
<time>2024-04-17T09:37:31.052Z</time>
</trkpt>
<trkpt lat="31.5011200" lon="34.6398700">
<ele>92.839996</ele>
<time>2024-04-17T09:37:31.052Z</time>
</trkpt>
<trkpt lat="31.5008500" lon="34.6394700">
<ele>89.369995</ele>
<time>2024-04-17T09:37:31.052Z</time>
</trkpt>
<trkpt lat="31.5007200" lon="34.6391800">
<ele>90.470001</ele>
<time>2024-04-17T09:37:31.052Z</time>
</trkpt>
<trkpt lat="31.5003300" lon="34.6379000">
<ele>87.680000</ele>
<time>2024-04-17T09:37:31.052Z</time>
</trkpt>
<trkpt lat="31.5002200" lon="34.6376900">
<ele>85.699997</ele>
<time>2024-04-17T09:37:31.052Z</time>
</trkpt>
<trkpt lat="31.5000200" lon="34.6374500">
<ele>87.829994</ele>
<time>2024-04-17T09:37:31.052Z</time>
</trkpt>
<trkpt lat="31.4999000" lon="34.6373500">
<ele>87.910004</ele>
<time>2024-04-17T09:37:31.052Z</time>
</trkpt>
<trkpt lat="31.4996200" lon="34.6371700">
<ele>97.830002</ele>
<time>2024-04-17T09:37:31.052Z</time>
</trkpt>
<trkpt lat="31.4993200" lon="34.6370400">
<ele>103.120003</ele>
<time>2024-04-17T09:37:31.052Z</time>
</trkpt>
<trkpt lat="31.4989700" lon="34.6369600">
<ele>101.800003</ele>
<time>2024-04-17T09:37:31.052Z</time>
</trkpt>
<trkpt lat="31.4988700" lon="34.6369900">
<ele>100.000000</ele>
<time>2024-04-17T09:37:31.052Z</time>
</trkpt>
<trkpt lat="31.4987200" lon="34.6369900">
<ele>97.400002</ele>
<time>2024-04-17T09:37:31.052Z</time>
</trkpt>
<trkpt lat="31.4983500" lon="34.6368600">
<ele>91.260002</ele>
<time>2024-04-17T09:37:31.052Z</time>
</trkpt>
<trkpt lat="31.4981700" lon="34.6368600">
<ele>88.599998</ele>
<time>2024-04-17T09:37:31.052Z</time>
</trkpt>
<trkpt lat="31.4979900" lon="34.6369100">
<ele>85.459999</ele>
<time>2024-04-17T09:37:31.052Z</time>
</trkpt>
<trkpt lat="31.4979700" lon="34.6369300">
<ele>84.939995</ele>
<time>2024-04-17T09:37:31.052Z</time>
</trkpt>
<trkpt lat="31.4979400" lon="34.6369600">
<ele>84.380005</ele>
<time>2024-04-17T09:37:31.052Z</time>
</trkpt>
<trkpt lat="31.4979200" lon="34.6370400">
<ele>84.230003</ele>
<time>2024-04-17T09:37:31.052Z</time>
</trkpt>
<trkpt lat="31.4979600" lon="34.6372100">
<ele>85.549995</ele>
<time>2024-04-17T09:37:31.052Z</time>
</trkpt>
<trkpt lat="31.4979500" lon="34.6372900">
<ele>86.159996</ele>
<time>2024-04-17T09:37:31.052Z</time>
</trkpt>
<trkpt lat="31.4978400" lon="34.6374000">
<ele>84.980003</ele>
<time>2024-04-17T09:37:31.052Z</time>
</trkpt>
<trkpt lat="31.4977100" lon="34.6374600">
<ele>84.110001</ele>
<time>2024-04-17T09:37:31.052Z</time>
</trkpt>
<trkpt lat="31.4975000" lon="34.6374600">
<ele>83.140007</ele>
<time>2024-04-17T09:37:31.052Z</time>
</trkpt>
<trkpt lat="31.4971900" lon="34.6373400">
<ele>81.529999</ele>
<time>2024-04-17T09:37:31.052Z</time>
</trkpt>
<trkpt lat="31.4970500" lon="34.6373400">
<ele>80.809998</ele>
<time>2024-04-17T09:37:31.052Z</time>
</trkpt>
<trkpt lat="31.4967500" lon="34.6374700">
<ele>80.349998</ele>
<time>2024-04-17T09:37:31.052Z</time>
</trkpt>
<trkpt lat="31.4962700" lon="34.6377500">
<ele>82.199997</ele>
<time>2024-04-17T09:37:31.052Z</time>
</trkpt>
<trkpt lat="31.4960000" lon="34.6378500">
<ele>85.160004</ele>
<time>2024-04-17T09:37:31.052Z</time>
</trkpt>
<trkpt lat="31.4959300" lon="34.6378500">
<ele>86.670006</ele>
<time>2024-04-17T09:37:31.052Z</time>
</trkpt>
<trkpt lat="31.4959000" lon="34.6378400">
<ele>87.309998</ele>
<time>2024-04-17T09:37:31.052Z</time>
</trkpt>
<trkpt lat="31.4957200" lon="34.6376900">
<ele>87.180000</ele>
<time>2024-04-17T09:37:31.052Z</time>
</trkpt>
<trkpt lat="31.4956500" lon="34.6376900">
<ele>86.830002</ele>
<time>2024-04-17T09:37:31.052Z</time>
</trkpt>
<trkpt lat="31.4955500" lon="34.6377300">
<ele>86.640007</ele>
<time>2024-04-17T09:37:31.052Z</time>
</trkpt>
<trkpt lat="31.4953700" lon="34.6378700">
<ele>86.660004</ele>
<time>2024-04-17T09:37:31.052Z</time>
</trkpt>
<trkpt lat="31.4953300" lon="34.6379400">
<ele>86.520004</ele>
<time>2024-04-17T09:37:31.052Z</time>
</trkpt>
<trkpt lat="31.4953000" lon="34.6381000">
<ele>86.210007</ele>
<time>2024-04-17T09:37:31.052Z</time>
</trkpt>
<trkpt lat="31.4953100" lon="34.6383100">
<ele>85.970001</ele>
<time>2024-04-17T09:37:31.052Z</time>
</trkpt>
<trkpt lat="31.4953500" lon="34.6384700">
<ele>86.589996</ele>
<time>2024-04-17T09:37:31.052Z</time>
</trkpt>
<trkpt lat="31.4954400" lon="34.6385300">
<ele>88.959999</ele>
<time>2024-04-17T09:37:31.052Z</time>
</trkpt>
<trkpt lat="31.4955100" lon="34.6385400">
<ele>90.940002</ele>
<time>2024-04-17T09:37:31.052Z</time>
</trkpt>
<trkpt lat="31.4955800" lon="34.6385800">
<ele>91.969994</ele>
<time>2024-04-17T09:37:31.052Z</time>
</trkpt>
<trkpt lat="31.4956400" lon="34.6386300">
<ele>91.530006</ele>
<time>2024-04-17T09:37:31.052Z</time>
</trkpt>
<trkpt lat="31.4956800" lon="34.6387000">
<ele>90.989998</ele>
<time>2024-04-17T09:37:31.052Z</time>
</trkpt>
<trkpt lat="31.4957200" lon="34.6387700">
<ele>90.809998</ele>
<time>2024-04-17T09:37:31.052Z</time>
</trkpt>
<trkpt lat="31.4957200" lon="34.6388500">
<ele>90.510002</ele>
<time>2024-04-17T09:37:31.052Z</time>
</trkpt>
<trkpt lat="31.4957000" lon="34.6388900">
<ele>90.089996</ele>
<time>2024-04-17T09:37:31.052Z</time>
</trkpt>
<trkpt lat="31.4956400" lon="34.6389300">
<ele>89.509995</ele>
<time>2024-04-17T09:37:31.052Z</time>
</trkpt>
<trkpt lat="31.4955400" lon="34.6389700">
<ele>88.419998</ele>
<time>2024-04-17T09:37:31.052Z</time>
</trkpt>
<trkpt lat="31.4952900" lon="34.6389600">
<ele>85.639999</ele>
<time>2024-04-17T09:37:31.052Z</time>
</trkpt>
<trkpt lat="31.4949200" lon="34.6388000">
<ele>87.070000</ele>
<time>2024-04-17T09:37:31.052Z</time>
</trkpt>
<trkpt lat="31.4948100" lon="34.6388000">
<ele>87.610001</ele>
<time>2024-04-17T09:37:31.052Z</time>
</trkpt>
<trkpt lat="31.4947400" lon="34.6388300">
<ele>88.260002</ele>
<time>2024-04-17T09:37:31.052Z</time>
</trkpt>
<trkpt lat="31.4946400" lon="34.6388400">
<ele>88.230003</ele>
<time>2024-04-17T09:37:31.052Z</time>
</trkpt>
<trkpt lat="31.4945700" lon="34.6388100">
<ele>87.760002</ele>
<time>2024-04-17T09:37:31.052Z</time>
</trkpt>
<trkpt lat="31.4944600" lon="34.6387900">
<ele>87.320000</ele>
<time>2024-04-17T09:37:31.052Z</time>
</trkpt>
<trkpt lat="31.4942300" lon="34.6386700">
<ele>90.279999</ele>
<time>2024-04-17T09:37:31.052Z</time>
</trkpt>
<trkpt lat="31.4939900" lon="34.6386200">
<ele>92.989998</ele>
<time>2024-04-17T09:37:31.052Z</time>
</trkpt>
<trkpt lat="31.4938900" lon="34.6385700">
<ele>94.280006</ele>
<time>2024-04-17T09:37:31.052Z</time>
</trkpt>
<trkpt lat="31.4937500" lon="34.6383800">
<ele>96.420006</ele>
<time>2024-04-17T09:37:31.052Z</time>
</trkpt>
<trkpt lat="31.4934500" lon="34.6381600">
<ele>97.660004</ele>
<time>2024-04-17T09:37:31.052Z</time>
</trkpt>
<trkpt lat="31.4932000" lon="34.6381500">
<ele>98.540001</ele>
<time>2024-04-17T09:37:31.052Z</time>
</trkpt>
<trkpt lat="31.4931400" lon="34.6381100">
<ele>98.110001</ele>
<time>2024-04-17T09:37:31.052Z</time>
</trkpt>
<trkpt lat="31.4930000" lon="34.6378600">
<ele>98.330002</ele>
<time>2024-04-17T09:37:31.052Z</time>
</trkpt>
<trkpt lat="31.4927700" lon="34.6375900">
<ele>96.580002</ele>
<time>2024-04-17T09:37:31.052Z</time>
</trkpt>
<trkpt lat="31.4927300" lon="34.6375200">
<ele>95.790001</ele>
<time>2024-04-17T09:37:31.052Z</time>
</trkpt>
<trkpt lat="31.4926700" lon="34.6373700">
<ele>97.310005</ele>
<time>2024-04-17T09:37:31.052Z</time>
</trkpt>
<trkpt lat="31.4926500" lon="34.6371600">
<ele>99.250000</ele>
<time>2024-04-17T09:37:31.052Z</time>
</trkpt>
<trkpt lat="31.4926200" lon="34.6370800">
<ele>99.229996</ele>
<time>2024-04-17T09:37:31.052Z</time>
</trkpt>
<trkpt lat="31.4925300" lon="34.6370100">
<ele>100.320000</ele>
<time>2024-04-17T09:37:31.052Z</time>
</trkpt>
<trkpt lat="31.4924000" lon="34.6369500">
<ele>100.809998</ele>
<time>2024-04-17T09:37:31.052Z</time>
</trkpt>
<trkpt lat="31.4922200" lon="34.6367500">
<ele>100.400002</ele>
<time>2024-04-17T09:37:31.052Z</time>
</trkpt>
<trkpt lat="31.4921800" lon="34.6367200">
<ele>100.649994</ele>
<time>2024-04-17T09:37:31.052Z</time>
</trkpt>
<trkpt lat="31.4921800" lon="34.6367200">
<ele>100.649994</ele>
<time>2024-04-17T09:37:31.052Z</time>
</trkpt>
<trkpt lat="31.4920700" lon="34.6366300">
<ele>101.059998</ele>
<time>2024-04-17T09:37:31.052Z</time>
</trkpt>
<trkpt lat="31.4919500" lon="34.6364700">
<ele>101.010002</ele>
<time>2024-04-17T09:37:31.052Z</time>
</trkpt>
<trkpt lat="31.4918100" lon="34.6362300">
<ele>100.599998</ele>
<time>2024-04-17T09:37:31.052Z</time>
</trkpt>
<trkpt lat="31.4917200" lon="34.6360900">
<ele>100.629997</ele>
<time>2024-04-17T09:37:31.052Z</time>
</trkpt>
<trkpt lat="31.4915900" lon="34.6359500">
<ele>101.580002</ele>
<time>2024-04-17T09:37:31.052Z</time>
</trkpt>
<trkpt lat="31.4914400" lon="34.6357200">
<ele>103.079994</ele>
<time>2024-04-17T09:37:31.052Z</time>
</trkpt>
<trkpt lat="31.4912300" lon="34.6354800">
<ele>105.090004</ele>
<time>2024-04-17T09:37:31.052Z</time>
</trkpt>
<trkpt lat="31.4911000" lon="34.6354100">
<ele>105.790001</ele>
<time>2024-04-17T09:37:31.052Z</time>
</trkpt>
<trkpt lat="31.4910400" lon="34.6353900">
<ele>104.389999</ele>
<time>2024-04-17T09:37:31.052Z</time>
</trkpt>
<trkpt lat="31.4909500" lon="34.6353200">
<ele>102.439995</ele>
<time>2024-04-17T09:37:31.052Z</time>
</trkpt>
<trkpt lat="31.4908700" lon="34.6352200">
<ele>98.939995</ele>
<time>2024-04-17T09:37:31.052Z</time>
</trkpt>
<trkpt lat="31.4908000" lon="34.6350500">
<ele>94.130005</ele>
<time>2024-04-17T09:37:31.052Z</time>
</trkpt>
<trkpt lat="31.4907200" lon="34.6349500">
<ele>94.040001</ele>
<time>2024-04-17T09:37:31.052Z</time>
</trkpt>
<trkpt lat="31.4907000" lon="34.6347700">
<ele>95.149994</ele>
<time>2024-04-17T09:37:31.052Z</time>
</trkpt>
<trkpt lat="31.4906800" lon="34.6345800">
<ele>98.090004</ele>
<time>2024-04-17T09:37:31.052Z</time>
</trkpt>
<trkpt lat="31.4905200" lon="34.6345300">
<ele>101.730003</ele>
<time>2024-04-17T09:37:31.052Z</time>
</trkpt>
<trkpt lat="31.4903900" lon="34.6344500">
<ele>102.419998</ele>
<time>2024-04-17T09:37:31.052Z</time>
</trkpt>
<trkpt lat="31.4903200" lon="34.6344300">
<ele>102.340004</ele>
<time>2024-04-17T09:37:31.052Z</time>
</trkpt>
<trkpt lat="31.4900600" lon="34.6342800">
<ele>106.080002</ele>
<time>2024-04-17T09:37:31.052Z</time>
</trkpt>
<trkpt lat="31.4898900" lon="34.6341200">
<ele>107.440002</ele>
<time>2024-04-17T09:37:31.052Z</time>
</trkpt>
<trkpt lat="31.4896100" lon="34.6339500">
<ele>108.130005</ele>
<time>2024-04-17T09:37:31.052Z</time>
</trkpt>
<trkpt lat="31.4895000" lon="34.6339100">
<ele>107.520004</ele>
<time>2024-04-17T09:37:31.052Z</time>
</trkpt>
<trkpt lat="31.4894000" lon="34.6339700">
<ele>106.630005</ele>
<time>2024-04-17T09:37:31.052Z</time>
</trkpt>
<trkpt lat="31.4893400" lon="34.6342500">
<ele>105.570000</ele>
<time>2024-04-17T09:37:31.052Z</time>
</trkpt>
<trkpt lat="31.4893200" lon="34.6343300">
<ele>105.070000</ele>
<time>2024-04-17T09:37:31.052Z</time>
</trkpt>
<trkpt lat="31.4892700" lon="34.6343900">
<ele>104.309998</ele>
<time>2024-04-17T09:37:31.052Z</time>
</trkpt>
<trkpt lat="31.4892000" lon="34.6344100">
<ele>103.480003</ele>
<time>2024-04-17T09:37:31.052Z</time>
</trkpt>
<trkpt lat="31.4890200" lon="34.6343700">
<ele>105.100006</ele>
<time>2024-04-17T09:37:31.052Z</time>
</trkpt>
<trkpt lat="31.4890100" lon="34.6344000">
<ele>105.240005</ele>
<time>2024-04-17T09:37:31.052Z</time>
</trkpt>
<trkpt lat="31.4890000" lon="34.6344800">
<ele>105.839996</ele>
<time>2024-04-17T09:37:31.052Z</time>
</trkpt>
<trkpt lat="31.4890200" lon="34.6345200">
<ele>105.959999</ele>
<time>2024-04-17T09:37:31.052Z</time>
</trkpt>
<trkpt lat="31.4890800" lon="34.6345600">
<ele>105.180000</ele>
<time>2024-04-17T09:37:31.052Z</time>
</trkpt>
<trkpt lat="31.4892400" lon="34.6346000">
<ele>104.500000</ele>
<time>2024-04-17T09:37:31.052Z</time>
</trkpt>
<trkpt lat="31.4892800" lon="34.6346700">
<ele>105.369995</ele>
<time>2024-04-17T09:37:31.052Z</time>
</trkpt>
<trkpt lat="31.4893600" lon="34.6348600">
<ele>106.739998</ele>
<time>2024-04-17T09:37:31.052Z</time>
</trkpt>
<trkpt lat="31.4895200" lon="34.6350800">
<ele>105.799995</ele>
<time>2024-04-17T09:37:31.052Z</time>
</trkpt>
<trkpt lat="31.4895500" lon="34.6351600">
<ele>104.869995</ele>
<time>2024-04-17T09:37:31.052Z</time>
</trkpt>
<trkpt lat="31.4895400" lon="34.6353300">
<ele>104.529999</ele>
<time>2024-04-17T09:37:31.052Z</time>
</trkpt>
<trkpt lat="31.4895300" lon="34.6353700">
<ele>105.070000</ele>
<time>2024-04-17T09:37:31.052Z</time>
</trkpt>
<trkpt lat="31.4894800" lon="34.6354300">
<ele>106.259995</ele>
<time>2024-04-17T09:37:31.052Z</time>
</trkpt>
<trkpt lat="31.4894200" lon="34.6354500">
<ele>106.869995</ele>
<time>2024-04-17T09:37:31.052Z</time>
</trkpt>
<trkpt lat="31.4893200" lon="34.6353900">
<ele>106.570000</ele>
<time>2024-04-17T09:37:31.052Z</time>
</trkpt>
<trkpt lat="31.4891900" lon="34.6351900">
<ele>106.599998</ele>
<time>2024-04-17T09:37:31.052Z</time>
</trkpt>
<trkpt lat="31.4891300" lon="34.6351500">
<ele>107.520004</ele>
<time>2024-04-17T09:37:31.052Z</time>
</trkpt>
<trkpt lat="31.4890600" lon="34.6351200">
<ele>109.339996</ele>
<time>2024-04-17T09:37:31.052Z</time>
</trkpt>
<trkpt lat="31.4888100" lon="34.6351000">
<ele>116.090004</ele>
<time>2024-04-17T09:37:31.052Z</time>
</trkpt>
<trkpt lat="31.4888100" lon="34.6351000">
<ele>116.090004</ele>
<time>2024-04-17T09:37:31.052Z</time>
</trkpt>
<trkpt lat="31.4887400" lon="34.6350900">
<ele>117.930000</ele>
<time>2024-04-17T09:37:31.052Z</time>
</trkpt>
<trkpt lat="31.4885100" lon="34.6349700">
<ele>119.529999</ele>
<time>2024-04-17T09:37:31.052Z</time>
</trkpt>
<trkpt lat="31.4884500" lon="34.6349300">
<ele>118.580002</ele>
<time>2024-04-17T09:37:31.052Z</time>
</trkpt>
<trkpt lat="31.4883600" lon="34.6347900">
<ele>117.239998</ele>
<time>2024-04-17T09:37:31.052Z</time>
</trkpt>
<trkpt lat="31.4882700" lon="34.6347300">
<ele>116.789993</ele>
<time>2024-04-17T09:37:31.052Z</time>
</trkpt>
<trkpt lat="31.4881000" lon="34.6346900">
<ele>115.770004</ele>
<time>2024-04-17T09:37:31.052Z</time>
</trkpt>
<trkpt lat="31.4880000" lon="34.6347300">
<ele>116.189995</ele>
<time>2024-04-17T09:37:31.052Z</time>
</trkpt>
<trkpt lat="31.4879700" lon="34.6347500">
<ele>116.250000</ele>
<time>2024-04-17T09:37:31.052Z</time>
</trkpt>
<trkpt lat="31.4879600" lon="34.6347900">
<ele>116.180000</ele>
<time>2024-04-17T09:37:31.052Z</time>
</trkpt>
<trkpt lat="31.4879700" lon="34.6349200">
<ele>115.869995</ele>
<time>2024-04-17T09:37:31.052Z</time>
</trkpt>
<trkpt lat="31.4879600" lon="34.6350000">
<ele>115.660004</ele>
<time>2024-04-17T09:37:31.052Z</time>
</trkpt>
<trkpt lat="31.4878500" lon="34.6351000">
<ele>115.070000</ele>
<time>2024-04-17T09:37:31.052Z</time>
</trkpt>
<trkpt lat="31.4878500" lon="34.6351400">
<ele>115.000000</ele>
<time>2024-04-17T09:37:31.052Z</time>
</trkpt>
<trkpt lat="31.4878900" lon="34.6352100">
<ele>114.790001</ele>
<time>2024-04-17T09:37:31.052Z</time>
</trkpt>
<trkpt lat="31.4880300" lon="34.6352500">
<ele>114.270004</ele>
<time>2024-04-17T09:37:31.052Z</time>
</trkpt>
<trkpt lat="31.4881200" lon="34.6353100">
<ele>115.529999</ele>
<time>2024-04-17T09:37:31.052Z</time>
</trkpt>
<trkpt lat="31.4881600" lon="34.6353800">
<ele>116.949997</ele>
<time>2024-04-17T09:37:31.052Z</time>
</trkpt>
<trkpt lat="31.4881700" lon="34.6354600">
<ele>117.820000</ele>
<time>2024-04-17T09:37:31.052Z</time>
</trkpt>
<trkpt lat="31.4881500" lon="34.6355400">
<ele>117.639999</ele>
<time>2024-04-17T09:37:31.052Z</time>
</trkpt>
<trkpt lat="31.4881100" lon="34.6356100">
<ele>117.849998</ele>
<time>2024-04-17T09:37:31.052Z</time>
</trkpt>
<trkpt lat="31.4879200" lon="34.6357900">
<ele>121.400002</ele>
<time>2024-04-17T09:37:31.052Z</time>
</trkpt>
<trkpt lat="31.4877600" lon="34.6360700">
<ele>120.750000</ele>
<time>2024-04-17T09:37:31.052Z</time>
</trkpt>
<trkpt lat="31.4876600" lon="34.6363900">
<ele>120.980003</ele>
<time>2024-04-17T09:37:31.052Z</time>
</trkpt>
<trkpt lat="31.4876600" lon="34.6366400">
<ele>117.250000</ele>
<time>2024-04-17T09:37:31.052Z</time>
</trkpt>
<trkpt lat="31.4876300" lon="34.6367200">
<ele>116.769997</ele>
<time>2024-04-17T09:37:31.052Z</time>
</trkpt>
<trkpt lat="31.4875900" lon="34.6367300">
<ele>116.970001</ele>
<time>2024-04-17T09:37:31.052Z</time>
</trkpt>
<trkpt lat="31.4875900" lon="34.6367300">
<ele>116.970001</ele>
<time>2024-04-17T09:37:31.052Z</time>
</trkpt>
<trkpt lat="31.4875700" lon="34.6367200">
<ele>117.160004</ele>
<time>2024-04-17T09:37:31.052Z</time>
</trkpt>
<trkpt lat="31.4875600" lon="34.6366500">
<ele>117.770004</ele>
<time>2024-04-17T09:37:31.052Z</time>
</trkpt>
<trkpt lat="31.4875400" lon="34.6364400">
<ele>120.400002</ele>
<time>2024-04-17T09:37:31.052Z</time>
</trkpt>
<trkpt lat="31.4874700" lon="34.6362400">
<ele>121.799995</ele>
<time>2024-04-17T09:37:31.052Z</time>
</trkpt>
<trkpt lat="31.4874700" lon="34.6361600">
<ele>122.059998</ele>
<time>2024-04-17T09:37:31.052Z</time>
</trkpt>
<trkpt lat="31.4875700" lon="34.6358400">
<ele>118.340004</ele>
<time>2024-04-17T09:37:31.052Z</time>
</trkpt>
<trkpt lat="31.4876100" lon="34.6355500">
<ele>117.209999</ele>
<time>2024-04-17T09:37:31.052Z</time>
</trkpt>
<trkpt lat="31.4876100" lon="34.6353400">
<ele>117.369995</ele>
<time>2024-04-17T09:37:31.052Z</time>
</trkpt>
<trkpt lat="31.4876300" lon="34.6350000">
<ele>115.529999</ele>
<time>2024-04-17T09:37:31.052Z</time>
</trkpt>
<trkpt lat="31.4876000" lon="34.6348800">
<ele>116.230003</ele>
<time>2024-04-17T09:37:31.052Z</time>
</trkpt>
<trkpt lat="31.4875200" lon="34.6347900">
<ele>116.739998</ele>
<time>2024-04-17T09:37:31.052Z</time>
</trkpt>
<trkpt lat="31.4874700" lon="34.6346800">
<ele>115.519997</ele>
<time>2024-04-17T09:37:31.052Z</time>
</trkpt>
<trkpt lat="31.4874500" lon="34.6346500">
<ele>114.590004</ele>
<time>2024-04-17T09:37:31.052Z</time>
</trkpt>
<trkpt lat="31.4873800" lon="34.6346500">
<ele>113.409996</ele>
<time>2024-04-17T09:37:31.052Z</time>
</trkpt>
<trkpt lat="31.4873500" lon="34.6346800">
<ele>113.260002</ele>
<time>2024-04-17T09:37:31.052Z</time>
</trkpt>
<trkpt lat="31.4873100" lon="34.6347500">
<ele>113.070000</ele>
<time>2024-04-17T09:37:31.052Z</time>
</trkpt>
<trkpt lat="31.4873000" lon="34.6349200">
<ele>114.019997</ele>
<time>2024-04-17T09:37:31.052Z</time>
</trkpt>
<trkpt lat="31.4872800" lon="34.6349900">
<ele>114.339996</ele>
<time>2024-04-17T09:37:31.052Z</time>
</trkpt>
<trkpt lat="31.4871800" lon="34.6350600">
<ele>116.000000</ele>
<time>2024-04-17T09:37:31.052Z</time>
</trkpt>
<trkpt lat="31.4871400" lon="34.6351200">
<ele>117.920006</ele>
<time>2024-04-17T09:37:31.052Z</time>
</trkpt>
<trkpt lat="31.4871300" lon="34.6351600">
<ele>119.079994</ele>
<time>2024-04-17T09:37:31.052Z</time>
</trkpt>
<trkpt lat="31.4871400" lon="34.6352400">
<ele>121.250000</ele>
<time>2024-04-17T09:37:31.052Z</time>
</trkpt>
<trkpt lat="31.4872000" lon="34.6353000">
<ele>122.080002</ele>
<time>2024-04-17T09:37:31.052Z</time>
</trkpt>
<trkpt lat="31.4873400" lon="34.6353300">
<ele>120.650002</ele>
<time>2024-04-17T09:37:31.052Z</time>
</trkpt>
<trkpt lat="31.4873600" lon="34.6353600">
<ele>120.370003</ele>
<time>2024-04-17T09:37:31.052Z</time>
</trkpt>
<trkpt lat="31.4873900" lon="34.6354400">
<ele>119.839996</ele>
<time>2024-04-17T09:37:31.052Z</time>
</trkpt>
<trkpt lat="31.4873800" lon="34.6354800">
<ele>119.880005</ele>
<time>2024-04-17T09:37:31.052Z</time>
</trkpt>
<trkpt lat="31.4873300" lon="34.6355900">
<ele>120.520004</ele>
<time>2024-04-17T09:37:31.052Z</time>
</trkpt>
<trkpt lat="31.4872100" lon="34.6356800">
<ele>122.510002</ele>
<time>2024-04-17T09:37:31.052Z</time>
</trkpt>
<trkpt lat="31.4871800" lon="34.6357000">
<ele>122.749992</ele>
<time>2024-04-17T09:37:31.052Z</time>
</trkpt>
<trkpt lat="31.4871400" lon="34.6356900">
<ele>122.920006</ele>
<time>2024-04-17T09:37:31.052Z</time>
</trkpt>
<trkpt lat="31.4870900" lon="34.6356400">
<ele>122.920006</ele>
<time>2024-04-17T09:37:31.052Z</time>
</trkpt>
<trkpt lat="31.4870000" lon="34.6355000">
<ele>122.800003</ele>
<time>2024-04-17T09:37:31.052Z</time>
</trkpt>
<trkpt lat="31.4869500" lon="34.6354400">
<ele>122.980003</ele>
<time>2024-04-17T09:37:31.052Z</time>
</trkpt>
<trkpt lat="31.4868400" lon="34.6354200">
<ele>122.439995</ele>
<time>2024-04-17T09:37:31.052Z</time>
</trkpt>
<trkpt lat="31.4867800" lon="34.6353700">
<ele>122.010002</ele>
<time>2024-04-17T09:37:31.052Z</time>
</trkpt>
<trkpt lat="31.4867400" lon="34.6353100">
<ele>121.610001</ele>
<time>2024-04-17T09:37:31.052Z</time>
</trkpt>
<trkpt lat="31.4866600" lon="34.6351200">
<ele>120.430000</ele>
<time>2024-04-17T09:37:31.052Z</time>
</trkpt>
<trkpt lat="31.4866300" lon="34.6351000">
<ele>120.360001</ele>
<time>2024-04-17T09:37:31.052Z</time>
</trkpt>
<trkpt lat="31.4865600" lon="34.6350900">
<ele>120.320007</ele>
<time>2024-04-17T09:37:31.052Z</time>
</trkpt>
<trkpt lat="31.4864600" lon="34.6351400">
<ele>120.500000</ele>
<time>2024-04-17T09:37:31.052Z</time>
</trkpt>
<trkpt lat="31.4864100" lon="34.6352000">
<ele>120.720001</ele>
<time>2024-04-17T09:37:31.052Z</time>
</trkpt>
<trkpt lat="31.4863600" lon="34.6353100">
<ele>121.229996</ele>
<time>2024-04-17T09:37:31.052Z</time>
</trkpt>
<trkpt lat="31.4863300" lon="34.6354400">
<ele>120.269997</ele>
<time>2024-04-17T09:37:31.052Z</time>
</trkpt>
<trkpt lat="31.4863300" lon="34.6355200">
<ele>119.389999</ele>
<time>2024-04-17T09:37:31.052Z</time>
</trkpt>
<trkpt lat="31.4863800" lon="34.6356300">
<ele>119.239998</ele>
<time>2024-04-17T09:37:31.052Z</time>
</trkpt>
<trkpt lat="31.4865300" lon="34.6358700">
<ele>121.079994</ele>
<time>2024-04-17T09:37:31.052Z</time>
</trkpt>
<trkpt lat="31.4866000" lon="34.6360600">
<ele>121.720001</ele>
<time>2024-04-17T09:37:31.052Z</time>
</trkpt>
<trkpt lat="31.4866900" lon="34.6361300">
<ele>122.470001</ele>
<time>2024-04-17T09:37:31.052Z</time>
</trkpt>
<trkpt lat="31.4867100" lon="34.6361600">
<ele>123.100006</ele>
<time>2024-04-17T09:37:31.052Z</time>
</trkpt>
<trkpt lat="31.4867100" lon="34.6362400">
<ele>124.650002</ele>
<time>2024-04-17T09:37:31.052Z</time>
</trkpt>
<trkpt lat="31.4866800" lon="34.6363300">
<ele>126.620003</ele>
<time>2024-04-17T09:37:31.052Z</time>
</trkpt>
<trkpt lat="31.4866800" lon="34.6363300">
<ele>126.620003</ele>
<time>2024-04-17T09:37:31.052Z</time>
</trkpt>
<trkpt lat="31.4865900" lon="34.6363600">
<ele>126.109993</ele>
<time>2024-04-17T09:37:31.052Z</time>
</trkpt>
<trkpt lat="31.4864300" lon="34.6362900">
<ele>122.820000</ele>
<time>2024-04-17T09:37:31.052Z</time>
</trkpt>
<trkpt lat="31.4863500" lon="34.6362800">
<ele>122.250000</ele>
<time>2024-04-17T09:37:31.052Z</time>
</trkpt>
<trkpt lat="31.4860400" lon="34.6363800">
<ele>123.750000</ele>
<time>2024-04-17T09:37:31.052Z</time>
</trkpt>
<trkpt lat="31.4859000" lon="34.6363800">
<ele>119.880005</ele>
<time>2024-04-17T09:37:31.052Z</time>
</trkpt>
<trkpt lat="31.4858700" lon="34.6363700">
<ele>119.029999</ele>
<time>2024-04-17T09:37:31.052Z</time>
</trkpt>
<trkpt lat="31.4858000" lon="34.6363800">
<ele>117.790001</ele>
<time>2024-04-17T09:37:31.052Z</time>
</trkpt>
<trkpt lat="31.4857300" lon="34.6364200">
<ele>117.409996</ele>
<time>2024-04-17T09:37:31.052Z</time>
</trkpt>
<trkpt lat="31.4856800" lon="34.6364800">
<ele>117.409996</ele>
<time>2024-04-17T09:37:31.052Z</time>
</trkpt>
<trkpt lat="31.4856200" lon="34.6366800">
<ele>118.389999</ele>
<time>2024-04-17T09:37:31.052Z</time>
</trkpt>
<trkpt lat="31.4856000" lon="34.6367100">
<ele>118.709999</ele>
<time>2024-04-17T09:37:31.052Z</time>
</trkpt>
<trkpt lat="31.4855800" lon="34.6366800">
<ele>118.269997</ele>
<time>2024-04-17T09:37:31.052Z</time>
</trkpt>
<trkpt lat="31.4855800" lon="34.6364700">
<ele>116.730003</ele>
<time>2024-04-17T09:37:31.052Z</time>
</trkpt>
<trkpt lat="31.4855000" lon="34.6362800">
<ele>116.039993</ele>
<time>2024-04-17T09:37:31.052Z</time>
</trkpt>
<trkpt lat="31.4855000" lon="34.6362000">
<ele>115.930000</ele>
<time>2024-04-17T09:37:31.052Z</time>
</trkpt>
<trkpt lat="31.4855300" lon="34.6360800">
<ele>115.490005</ele>
<time>2024-04-17T09:37:31.052Z</time>
</trkpt>
<trkpt lat="31.4855300" lon="34.6360800">
<ele>115.490005</ele>
<time>2024-04-17T09:37:31.052Z</time>
</trkpt>
<trkpt lat="31.4855400" lon="34.6360400">
<ele>114.959999</ele>
<time>2024-04-17T09:37:31.052Z</time>
</trkpt>
<trkpt lat="31.4855800" lon="34.6359700">
<ele>114.320000</ele>
<time>2024-04-17T09:37:31.052Z</time>
</trkpt>
<trkpt lat="31.4857000" lon="34.6358700">
<ele>114.990005</ele>
<time>2024-04-17T09:37:31.052Z</time>
</trkpt>
<trkpt lat="31.4857400" lon="34.6358000">
<ele>115.400002</ele>
<time>2024-04-17T09:37:31.052Z</time>
</trkpt>
<trkpt lat="31.4858100" lon="34.6355700">
<ele>116.029999</ele>
<time>2024-04-17T09:37:31.052Z</time>
</trkpt>
<trkpt lat="31.4858500" lon="34.6355000">
<ele>116.260002</ele>
<time>2024-04-17T09:37:31.052Z</time>
</trkpt>
<trkpt lat="31.4860600" lon="34.6353400">
<ele>122.879997</ele>
<time>2024-04-17T09:37:31.052Z</time>
</trkpt>
<trkpt lat="31.4861600" lon="34.6352800">
<ele>125.070000</ele>
<time>2024-04-17T09:37:31.052Z</time>
</trkpt>
<trkpt lat="31.4862400" lon="34.6351900">
<ele>123.530006</ele>
<time>2024-04-17T09:37:31.052Z</time>
</trkpt>
<trkpt lat="31.4863700" lon="34.6349400">
<ele>121.590004</ele>
<time>2024-04-17T09:37:31.052Z</time>
</trkpt>
<trkpt lat="31.4866700" lon="34.6345200">
<ele>115.129997</ele>
<time>2024-04-17T09:37:31.052Z</time>
</trkpt>
<trkpt lat="31.4866900" lon="34.6344400">
<ele>112.790001</ele>
<time>2024-04-17T09:37:31.052Z</time>
</trkpt>
<trkpt lat="31.4866800" lon="34.6344000">
<ele>112.440002</ele>
<time>2024-04-17T09:37:31.052Z</time>
</trkpt>
<trkpt lat="31.4866500" lon="34.6343200">
<ele>111.989998</ele>
<time>2024-04-17T09:37:31.052Z</time>
</trkpt>
<trkpt lat="31.4866000" lon="34.6342600">
<ele>112.290001</ele>
<time>2024-04-17T09:37:31.052Z</time>
</trkpt>
<trkpt lat="31.4863100" lon="34.6341100">
<ele>114.959999</ele>
<time>2024-04-17T09:37:31.052Z</time>
</trkpt>
<trkpt lat="31.4861600" lon="34.6341300">
<ele>115.470001</ele>
<time>2024-04-17T09:37:31.052Z</time>
</trkpt>
<trkpt lat="31.4860900" lon="34.6341200">
<ele>115.450005</ele>
<time>2024-04-17T09:37:31.052Z</time>
</trkpt>
<trkpt lat="31.4859700" lon="34.6340300">
<ele>114.519997</ele>
<time>2024-04-17T09:37:31.052Z</time>
</trkpt>
<trkpt lat="31.4859000" lon="34.6340000">
<ele>114.349998</ele>
<time>2024-04-17T09:37:31.052Z</time>
</trkpt>
<trkpt lat="31.4858300" lon="34.6340000">
<ele>114.369995</ele>
<time>2024-04-17T09:37:31.052Z</time>
</trkpt>
<trkpt lat="31.4856600" lon="34.6340500">
<ele>113.070000</ele>
<time>2024-04-17T09:37:31.052Z</time>
</trkpt>
<trkpt lat="31.4856300" lon="34.6340700">
<ele>112.930000</ele>
<time>2024-04-17T09:37:31.052Z</time>
</trkpt>
<trkpt lat="31.4855800" lon="34.6341900">
<ele>113.409996</ele>
<time>2024-04-17T09:37:31.052Z</time>
</trkpt>
<trkpt lat="31.4855700" lon="34.6342700">
<ele>114.159996</ele>
<time>2024-04-17T09:37:31.052Z</time>
</trkpt>
<trkpt lat="31.4855900" lon="34.6343500">
<ele>114.979996</ele>
<time>2024-04-17T09:37:31.052Z</time>
</trkpt>
<trkpt lat="31.4856500" lon="34.6344600">
<ele>115.809998</ele>
<time>2024-04-17T09:37:31.052Z</time>
</trkpt>
<trkpt lat="31.4856700" lon="34.6345400">
<ele>116.639999</ele>
<time>2024-04-17T09:37:31.052Z</time>
</trkpt>
<trkpt lat="31.4856900" lon="34.6349600">
<ele>124.399994</ele>
<time>2024-04-17T09:37:31.052Z</time>
</trkpt>
<trkpt lat="31.4856900" lon="34.6350800">
<ele>124.119995</ele>
<time>2024-04-17T09:37:31.052Z</time>
</trkpt>
<trkpt lat="31.4855800" lon="34.6353000">
<ele>124.389999</ele>
<time>2024-04-17T09:37:31.052Z</time>
</trkpt>
<trkpt lat="31.4855200" lon="34.6355000">
<ele>118.260002</ele>
<time>2024-04-17T09:37:31.052Z</time>
</trkpt>
<trkpt lat="31.4854000" lon="34.6357600">
<ele>114.320000</ele>
<time>2024-04-17T09:37:31.052Z</time>
</trkpt>
<trkpt lat="31.4853500" lon="34.6358200">
<ele>113.709999</ele>
<time>2024-04-17T09:37:31.052Z</time>
</trkpt>
<trkpt lat="31.4852500" lon="34.6358500">
<ele>114.260002</ele>
<time>2024-04-17T09:37:31.052Z</time>
</trkpt>
<trkpt lat="31.4852100" lon="34.6358500">
<ele>114.550003</ele>
<time>2024-04-17T09:37:31.052Z</time>
</trkpt>
<trkpt lat="31.4851300" lon="34.6357900">
<ele>115.760002</ele>
<time>2024-04-17T09:37:31.052Z</time>
</trkpt>
<trkpt lat="31.4850900" lon="34.6357600">
<ele>116.489998</ele>
<time>2024-04-17T09:37:31.052Z</time>
</trkpt>
<trkpt lat="31.4850200" lon="34.6357500">
<ele>117.079994</ele>
<time>2024-04-17T09:37:31.052Z</time>
</trkpt>
<trkpt lat="31.4849300" lon="34.6357500">
<ele>118.329994</ele>
<time>2024-04-17T09:37:31.052Z</time>
</trkpt>
<trkpt lat="31.4849300" lon="34.6357500">
<ele>118.329994</ele>
<time>2024-04-17T09:37:31.052Z</time>
</trkpt>
<trkpt lat="31.4848400" lon="34.6357400">
<ele>119.829994</ele>
<time>2024-04-17T09:37:31.052Z</time>
</trkpt>
<trkpt lat="31.4847400" lon="34.6357000">
<ele>121.290001</ele>
<time>2024-04-17T09:37:31.052Z</time>
</trkpt>
<trkpt lat="31.4846900" lon="34.6356400">
<ele>121.440002</ele>
<time>2024-04-17T09:37:31.052Z</time>
</trkpt>
<trkpt lat="31.4846600" lon="34.6354300">
<ele>123.129997</ele>
<time>2024-04-17T09:37:31.052Z</time>
</trkpt>
<trkpt lat="31.4846300" lon="34.6353600">
<ele>124.340004</ele>
<time>2024-04-17T09:37:31.052Z</time>
</trkpt>
<trkpt lat="31.4845300" lon="34.6353000">
<ele>126.470001</ele>
<time>2024-04-17T09:37:31.052Z</time>
</trkpt>
<trkpt lat="31.4844600" lon="34.6353100">
<ele>127.320000</ele>
<time>2024-04-17T09:37:31.052Z</time>
</trkpt>
<trkpt lat="31.4843700" lon="34.6353800">
<ele>125.889999</ele>
<time>2024-04-17T09:37:31.052Z</time>
</trkpt>
<trkpt lat="31.4843000" lon="34.6354000">
<ele>124.970001</ele>
<time>2024-04-17T09:37:31.052Z</time>
</trkpt>
<trkpt lat="31.4842400" lon="34.6353600">
<ele>125.129997</ele>
<time>2024-04-17T09:37:31.052Z</time>
</trkpt>
<trkpt lat="31.4841100" lon="34.6352100">
<ele>125.039993</ele>
<time>2024-04-17T09:37:31.052Z</time>
</trkpt>
<trkpt lat="31.4839600" lon="34.6351000">
<ele>126.239998</ele>
<time>2024-04-17T09:37:31.052Z</time>
</trkpt>
<trkpt lat="31.4839000" lon="34.6350800">
<ele>127.290001</ele>
<time>2024-04-17T09:37:31.052Z</time>
</trkpt>
<trkpt lat="31.4839000" lon="34.6350800">
<ele>127.290001</ele>
<time>2024-04-17T09:37:31.052Z</time>
</trkpt>
<trkpt lat="31.4838600" lon="34.6350600">
<ele>128.000000</ele>
<time>2024-04-17T09:37:31.052Z</time>
</trkpt>
<trkpt lat="31.4836800" lon="34.6350600">
<ele>127.629997</ele>
<time>2024-04-17T09:37:31.052Z</time>
</trkpt>
<trkpt lat="31.4834300" lon="34.6348800">
<ele>129.339996</ele>
<time>2024-04-17T09:37:31.052Z</time>
</trkpt>
<trkpt lat="31.4832500" lon="34.6349000">
<ele>126.829994</ele>
<time>2024-04-17T09:37:31.052Z</time>
</trkpt>
<trkpt lat="31.4831500" lon="34.6348900">
<ele>125.350006</ele>
<time>2024-04-17T09:37:31.052Z</time>
</trkpt>
<trkpt lat="31.4830100" lon="34.6349400">
<ele>123.000000</ele>
<time>2024-04-17T09:37:31.052Z</time>
</trkpt>
<trkpt lat="31.4829000" lon="34.6349200">
<ele>121.969994</ele>
<time>2024-04-17T09:37:31.052Z</time>
</trkpt>
<trkpt lat="31.4828400" lon="34.6348700">
<ele>121.290001</ele>
<time>2024-04-17T09:37:31.052Z</time>
</trkpt>
<trkpt lat="31.4827500" lon="34.6347400">
<ele>120.759995</ele>
<time>2024-04-17T09:37:31.052Z</time>
</trkpt>
<trkpt lat="31.4826700" lon="34.6346700">
<ele>123.700005</ele>
<time>2024-04-17T09:37:31.052Z</time>
</trkpt>
<trkpt lat="31.4826500" lon="34.6346300">
<ele>124.910004</ele>
<time>2024-04-17T09:37:31.052Z</time>
</trkpt>
<trkpt lat="31.4826500" lon="34.6345400">
<ele>126.549995</ele>
<time>2024-04-17T09:37:31.052Z</time>
</trkpt>
<trkpt lat="31.4826200" lon="34.6344700">
<ele>128.389999</ele>
<time>2024-04-17T09:37:31.052Z</time>
</trkpt>
<trkpt lat="31.4825200" lon="34.6344100">
<ele>131.040009</ele>
<time>2024-04-17T09:37:31.052Z</time>
</trkpt>
<trkpt lat="31.4824900" lon="34.6344200">
<ele>131.399994</ele>
<time>2024-04-17T09:37:31.052Z</time>
</trkpt>
<trkpt lat="31.4824600" lon="34.6344500">
<ele>131.500000</ele>
<time>2024-04-17T09:37:31.052Z</time>
</trkpt>
<trkpt lat="31.4824500" lon="34.6345300">
<ele>130.600006</ele>
<time>2024-04-17T09:37:31.052Z</time>
</trkpt>
<trkpt lat="31.4824700" lon="34.6346500">
<ele>128.630005</ele>
<time>2024-04-17T09:37:31.052Z</time>
</trkpt>
<trkpt lat="31.4824700" lon="34.6347300">
<ele>127.640007</ele>
<time>2024-04-17T09:37:31.052Z</time>
</trkpt>
<trkpt lat="31.4824300" lon="34.6348000">
<ele>128.369995</ele>
<time>2024-04-17T09:37:31.052Z</time>
</trkpt>
<trkpt lat="31.4823900" lon="34.6348300">
<ele>129.070007</ele>
<time>2024-04-17T09:37:31.052Z</time>
</trkpt>
<trkpt lat="31.4823300" lon="34.6348400">
<ele>130.149994</ele>
<time>2024-04-17T09:37:31.052Z</time>
</trkpt>
<trkpt lat="31.4822600" lon="34.6348300">
<ele>131.509995</ele>
<time>2024-04-17T09:37:31.052Z</time>
</trkpt>
<trkpt lat="31.4820600" lon="34.6347100">
<ele>136.459991</ele>
<time>2024-04-17T09:37:31.052Z</time>
</trkpt>
<trkpt lat="31.4819600" lon="34.6346900">
<ele>138.350006</ele>
<time>2024-04-17T09:37:31.052Z</time>
</trkpt>
<trkpt lat="31.4818100" lon="34.6346900">
<ele>140.050003</ele>
<time>2024-04-17T09:37:31.052Z</time>
</trkpt>
<trkpt lat="31.4817400" lon="34.6347100">
<ele>141.039993</ele>
<time>2024-04-17T09:37:31.052Z</time>
</trkpt>
<trkpt lat="31.4817200" lon="34.6347400">
<ele>141.309998</ele>
<time>2024-04-17T09:37:31.052Z</time>
</trkpt>
<trkpt lat="31.4816400" lon="34.6348800">
<ele>141.500000</ele>
<time>2024-04-17T09:37:31.052Z</time>
</trkpt>
<trkpt lat="31.4815700" lon="34.6348600">
<ele>141.669998</ele>
<time>2024-04-17T09:37:31.052Z</time>
</trkpt>
<trkpt lat="31.4815400" lon="34.6348300">
<ele>141.690002</ele>
<time>2024-04-17T09:37:31.052Z</time>
</trkpt>
<trkpt lat="31.4815400" lon="34.6348300">
<ele>141.690002</ele>
<time>2024-04-17T09:37:31.052Z</time>
</trkpt>
<trkpt lat="31.4815200" lon="34.6348000">
<ele>141.639999</ele>
<time>2024-04-17T09:37:31.052Z</time>
</trkpt>
<trkpt lat="31.4815400" lon="34.6347200">
<ele>141.520004</ele>
<time>2024-04-17T09:37:31.052Z</time>
</trkpt>
<trkpt lat="31.4815700" lon="34.6346900">
<ele>141.309998</ele>
<time>2024-04-17T09:37:31.052Z</time>
</trkpt>
<trkpt lat="31.4817100" lon="34.6345600">
<ele>139.289993</ele>
<time>2024-04-17T09:37:31.052Z</time>
</trkpt>
<trkpt lat="31.4818500" lon="34.6345100">
<ele>137.470001</ele>
<time>2024-04-17T09:37:31.052Z</time>
</trkpt>
<trkpt lat="31.4820300" lon="34.6343700">
<ele>134.309998</ele>
<time>2024-04-17T09:37:31.052Z</time>
</trkpt>
<trkpt lat="31.4820600" lon="34.6343000">
<ele>133.239990</ele>
<time>2024-04-17T09:37:31.052Z</time>
</trkpt>
<trkpt lat="31.4820500" lon="34.6341900">
<ele>131.300003</ele>
<time>2024-04-17T09:37:31.052Z</time>
</trkpt>
<trkpt lat="31.4820400" lon="34.6341100">
<ele>131.449997</ele>
<time>2024-04-17T09:37:31.052Z</time>
</trkpt>
<trkpt lat="31.4820200" lon="34.6340300">
<ele>132.380005</ele>
<time>2024-04-17T09:37:31.052Z</time>
</trkpt>
<trkpt lat="31.4819700" lon="34.6339700">
<ele>133.250000</ele>
<time>2024-04-17T09:37:31.052Z</time>
</trkpt>
<trkpt lat="31.4818700" lon="34.6339300">
<ele>135.339996</ele>
<time>2024-04-17T09:37:31.052Z</time>
</trkpt>
<trkpt lat="31.4816800" lon="34.6338900">
<ele>138.800003</ele>
<time>2024-04-17T09:37:31.052Z</time>
</trkpt>
<trkpt lat="31.4816100" lon="34.6338000">
<ele>139.529999</ele>
<time>2024-04-17T09:37:31.052Z</time>
</trkpt>
<trkpt lat="31.4815100" lon="34.6336600">
<ele>139.559998</ele>
<time>2024-04-17T09:37:31.052Z</time>
</trkpt>
<trkpt lat="31.4814800" lon="34.6335400">
<ele>138.899994</ele>
<time>2024-04-17T09:37:31.052Z</time>
</trkpt>
<trkpt lat="31.4816100" lon="34.6333100">
<ele>137.149994</ele>
<time>2024-04-17T09:37:31.052Z</time>
</trkpt>
<trkpt lat="31.4817100" lon="34.6332600">
<ele>136.240005</ele>
<time>2024-04-17T09:37:31.052Z</time>
</trkpt>
<trkpt lat="31.4817400" lon="34.6331200">
<ele>135.779999</ele>
<time>2024-04-17T09:37:31.052Z</time>
</trkpt>
<trkpt lat="31.4817700" lon="34.6330700">
<ele>135.619995</ele>
<time>2024-04-17T09:37:31.052Z</time>
</trkpt>
<trkpt lat="31.4818300" lon="34.6330500">
<ele>135.440002</ele>
<time>2024-04-17T09:37:31.052Z</time>
</trkpt>
<trkpt lat="31.4820700" lon="34.6331400">
<ele>133.449997</ele>
<time>2024-04-17T09:37:31.052Z</time>
</trkpt>
<trkpt lat="31.4821200" lon="34.6331500">
<ele>133.069992</ele>
<time>2024-04-17T09:37:31.052Z</time>
</trkpt>
<trkpt lat="31.4821200" lon="34.6331500">
<ele>133.069992</ele>
<time>2024-04-17T09:37:31.052Z</time>
</trkpt>
<trkpt lat="31.4822600" lon="34.6331600">
<ele>133.000000</ele>
<time>2024-04-17T09:37:31.052Z</time>
</trkpt>
<trkpt lat="31.4823600" lon="34.6332100">
<ele>134.759995</ele>
<time>2024-04-17T09:37:31.052Z</time>
</trkpt>
<trkpt lat="31.4825400" lon="34.6332600">
<ele>136.040009</ele>
<time>2024-04-17T09:37:31.052Z</time>
</trkpt>
<trkpt lat="31.4826100" lon="34.6333000">
<ele>134.070007</ele>
<time>2024-04-17T09:37:31.052Z</time>
</trkpt>
<trkpt lat="31.4826900" lon="34.6333900">
<ele>132.110001</ele>
<time>2024-04-17T09:37:31.052Z</time>
</trkpt>
<trkpt lat="31.4827800" lon="34.6335400">
<ele>133.470001</ele>
<time>2024-04-17T09:37:31.052Z</time>
</trkpt>
<trkpt lat="31.4828300" lon="34.6336000">
<ele>134.619995</ele>
<time>2024-04-17T09:37:31.052Z</time>
</trkpt>
<trkpt lat="31.4828900" lon="34.6336200">
<ele>134.580002</ele>
<time>2024-04-17T09:37:31.052Z</time>
</trkpt>
<trkpt lat="31.4830400" lon="34.6335500">
<ele>133.979996</ele>
<time>2024-04-17T09:37:31.052Z</time>
</trkpt>
<trkpt lat="31.4831400" lon="34.6335300">
<ele>134.050003</ele>
<time>2024-04-17T09:37:31.052Z</time>
</trkpt>
<trkpt lat="31.4832000" lon="34.6335500">
<ele>133.940002</ele>
<time>2024-04-17T09:37:31.052Z</time>
</trkpt>
<trkpt lat="31.4832300" lon="34.6335700">
<ele>133.740005</ele>
<time>2024-04-17T09:37:31.052Z</time>
</trkpt>
<trkpt lat="31.4833100" lon="34.6337600">
<ele>132.550003</ele>
<time>2024-04-17T09:37:31.052Z</time>
</trkpt>
<trkpt lat="31.4834400" lon="34.6338500">
<ele>131.320007</ele>
<time>2024-04-17T09:37:31.052Z</time>
</trkpt>
<trkpt lat="31.4835700" lon="34.6338400">
<ele>130.319992</ele>
<time>2024-04-17T09:37:31.052Z</time>
</trkpt>
<trkpt lat="31.4835900" lon="34.6337600">
<ele>130.190002</ele>
<time>2024-04-17T09:37:31.052Z</time>
</trkpt>
<trkpt lat="31.4835900" lon="34.6336600">
<ele>130.209991</ele>
<time>2024-04-17T09:37:31.052Z</time>
</trkpt>
<trkpt lat="31.4836000" lon="34.6334900">
<ele>131.029999</ele>
<time>2024-04-17T09:37:31.052Z</time>
</trkpt>
<trkpt lat="31.4835800" lon="34.6333800">
<ele>132.190002</ele>
<time>2024-04-17T09:37:31.052Z</time>
</trkpt>
<trkpt lat="31.4836800" lon="34.6332600">
<ele>130.809998</ele>
<time>2024-04-17T09:37:31.052Z</time>
</trkpt>
<trkpt lat="31.4838100" lon="34.6330900">
<ele>127.250000</ele>
<time>2024-04-17T09:37:31.052Z</time>
</trkpt>
<trkpt lat="31.4838400" lon="34.6330800">
<ele>126.450005</ele>
<time>2024-04-17T09:37:31.052Z</time>
</trkpt>
<trkpt lat="31.4838800" lon="34.6330900">
<ele>125.580002</ele>
<time>2024-04-17T09:37:31.052Z</time>
</trkpt>
<trkpt lat="31.4839900" lon="34.6330800">
<ele>124.800003</ele>
<time>2024-04-17T09:37:31.052Z</time>
</trkpt>
<trkpt lat="31.4839900" lon="34.6331700">
<ele>125.419998</ele>
<time>2024-04-17T09:37:31.052Z</time>
</trkpt>
<trkpt lat="31.4841200" lon="34.6332900">
<ele>124.590004</ele>
<time>2024-04-17T09:37:31.052Z</time>
</trkpt>
<trkpt lat="31.4841900" lon="34.6334900">
<ele>122.549995</ele>
<time>2024-04-17T09:37:31.052Z</time>
</trkpt>
<trkpt lat="31.4842300" lon="34.6335800">
<ele>121.489998</ele>
<time>2024-04-17T09:37:31.052Z</time>
</trkpt>
<trkpt lat="31.4842900" lon="34.6336700">
<ele>120.739998</ele>
<time>2024-04-17T09:37:31.052Z</time>
</trkpt>
<trkpt lat="31.4843500" lon="34.6337300">
<ele>120.439995</ele>
<time>2024-04-17T09:37:31.052Z</time>
</trkpt>
<trkpt lat="31.4843700" lon="34.6338500">
<ele>120.830002</ele>
<time>2024-04-17T09:37:31.052Z</time>
</trkpt>
<trkpt lat="31.4843600" lon="34.6342300">
<ele>121.769997</ele>
<time>2024-04-17T09:37:31.052Z</time>
</trkpt>
<trkpt lat="31.4844900" lon="34.6343000">
<ele>118.439995</ele>
<time>2024-04-17T09:37:31.052Z</time>
</trkpt>
<trkpt lat="31.4846700" lon="34.6342600">
<ele>117.500000</ele>
<time>2024-04-17T09:37:31.052Z</time>
</trkpt>
<trkpt lat="31.4848300" lon="34.6343200">
<ele>117.269997</ele>
<time>2024-04-17T09:37:31.052Z</time>
</trkpt>
<trkpt lat="31.4848600" lon="34.6343000">
<ele>116.939995</ele>
<time>2024-04-17T09:37:31.052Z</time>
</trkpt>
<trkpt lat="31.4848800" lon="34.6342600">
<ele>116.440002</ele>
<time>2024-04-17T09:37:31.052Z</time>
</trkpt>
<trkpt lat="31.4848700" lon="34.6342200">
<ele>116.039993</ele>
<time>2024-04-17T09:37:31.052Z</time>
</trkpt>
<trkpt lat="31.4848300" lon="34.6341600">
<ele>115.579994</ele>
<time>2024-04-17T09:37:31.052Z</time>
</trkpt>
<trkpt lat="31.4846200" lon="34.6340900">
<ele>117.930000</ele>
<time>2024-04-17T09:37:31.052Z</time>
</trkpt>
<trkpt lat="31.4845600" lon="34.6340500">
<ele>119.079994</ele>
<time>2024-04-17T09:37:31.052Z</time>
</trkpt>
<trkpt lat="31.4845200" lon="34.6339700">
<ele>119.659996</ele>
<time>2024-04-17T09:37:31.052Z</time>
</trkpt>
<trkpt lat="31.4844500" lon="34.6336100">
<ele>118.879997</ele>
<time>2024-04-17T09:37:31.052Z</time>
</trkpt>
<trkpt lat="31.4844500" lon="34.6335600">
<ele>118.879997</ele>
<time>2024-04-17T09:37:31.052Z</time>
</trkpt>
<trkpt lat="31.4844800" lon="34.6334900">
<ele>118.230003</ele>
<time>2024-04-17T09:37:31.052Z</time>
</trkpt>
<trkpt lat="31.4846000" lon="34.6334100">
<ele>115.639999</ele>
<time>2024-04-17T09:37:31.052Z</time>
</trkpt>
<trkpt lat="31.4847800" lon="34.6334400">
<ele>113.720001</ele>
<time>2024-04-17T09:37:31.052Z</time>
</trkpt>
<trkpt lat="31.4849200" lon="34.6334300">
<ele>115.570000</ele>
<time>2024-04-17T09:37:31.052Z</time>
</trkpt>
<trkpt lat="31.4850700" lon="34.6334500">
<ele>116.930000</ele>
<time>2024-04-17T09:37:31.052Z</time>
</trkpt>
<trkpt lat="31.4851400" lon="34.6334400">
<ele>117.669998</ele>
<time>2024-04-17T09:37:31.052Z</time>
</trkpt>
<trkpt lat="31.4851500" lon="34.6334000">
<ele>118.250000</ele>
<time>2024-04-17T09:37:31.052Z</time>
</trkpt>
<trkpt lat="31.4850800" lon="34.6333000">
<ele>118.830002</ele>
<time>2024-04-17T09:37:31.052Z</time>
</trkpt>
<trkpt lat="31.4850200" lon="34.6332500">
<ele>118.980003</ele>
<time>2024-04-17T09:37:31.052Z</time>
</trkpt>
<trkpt lat="31.4847500" lon="34.6331500">
<ele>116.670006</ele>
<time>2024-04-17T09:37:31.052Z</time>
</trkpt>
<trkpt lat="31.4845900" lon="34.6330600">
<ele>119.369995</ele>
<time>2024-04-17T09:37:31.052Z</time>
</trkpt>
<trkpt lat="31.4845500" lon="34.6329900">
<ele>121.160004</ele>
<time>2024-04-17T09:37:31.052Z</time>
</trkpt>
<trkpt lat="31.4845600" lon="34.6329500">
<ele>121.900002</ele>
<time>2024-04-17T09:37:31.052Z</time>
</trkpt>
<trkpt lat="31.4845800" lon="34.6329200">
<ele>122.439995</ele>
<time>2024-04-17T09:37:31.052Z</time>
</trkpt>
<trkpt lat="31.4846200" lon="34.6329100">
<ele>122.520004</ele>
<time>2024-04-17T09:37:31.052Z</time>
</trkpt>
<trkpt lat="31.4846700" lon="34.6329200">
<ele>122.099998</ele>
<time>2024-04-17T09:37:31.052Z</time>
</trkpt>
<trkpt lat="31.4847300" lon="34.6329200">
<ele>121.910004</ele>
<time>2024-04-17T09:37:31.052Z</time>
</trkpt>
<trkpt lat="31.4847900" lon="34.6329000">
<ele>122.389999</ele>
<time>2024-04-17T09:37:31.052Z</time>
</trkpt>
<trkpt lat="31.4850200" lon="34.6326900">
<ele>122.669998</ele>
<time>2024-04-17T09:37:31.052Z</time>
</trkpt>
<trkpt lat="31.4850800" lon="34.6326600">
<ele>121.599998</ele>
<time>2024-04-17T09:37:31.052Z</time>
</trkpt>
<trkpt lat="31.4851900" lon="34.6326600">
<ele>119.680000</ele>
<time>2024-04-17T09:37:31.052Z</time>
</trkpt>
<trkpt lat="31.4853800" lon="34.6327800">
<ele>117.540001</ele>
<time>2024-04-17T09:37:31.052Z</time>
</trkpt>
<trkpt lat="31.4854400" lon="34.6327700">
<ele>116.589996</ele>
<time>2024-04-17T09:37:31.052Z</time>
</trkpt>
<trkpt lat="31.4854500" lon="34.6327300">
<ele>116.070007</ele>
<time>2024-04-17T09:37:31.052Z</time>
</trkpt>
<trkpt lat="31.4854400" lon="34.6326500">
<ele>115.480003</ele>
<time>2024-04-17T09:37:31.052Z</time>
</trkpt>
<trkpt lat="31.4853700" lon="34.6325500">
<ele>115.760002</ele>
<time>2024-04-17T09:37:31.052Z</time>
</trkpt>
<trkpt lat="31.4853100" lon="34.6325100">
<ele>116.499992</ele>
<time>2024-04-17T09:37:31.052Z</time>
</trkpt>
<trkpt lat="31.4851400" lon="34.6324500">
<ele>119.610001</ele>
<time>2024-04-17T09:37:31.052Z</time>
</trkpt>
<trkpt lat="31.4850600" lon="34.6323600">
<ele>120.980003</ele>
<time>2024-04-17T09:37:31.052Z</time>
</trkpt>
<trkpt lat="31.4850500" lon="34.6322800">
<ele>120.840004</ele>
<time>2024-04-17T09:37:31.052Z</time>
</trkpt>
<trkpt lat="31.4851000" lon="34.6321200">
<ele>118.520004</ele>
<time>2024-04-17T09:37:31.052Z</time>
</trkpt>
<trkpt lat="31.4851200" lon="34.6319500">
<ele>117.010002</ele>
<time>2024-04-17T09:37:31.052Z</time>
</trkpt>
<trkpt lat="31.4851000" lon="34.6318700">
<ele>117.399994</ele>
<time>2024-04-17T09:37:31.052Z</time>
</trkpt>
<trkpt lat="31.4850800" lon="34.6318400">
<ele>117.820000</ele>
<time>2024-04-17T09:37:31.052Z</time>
</trkpt>
<trkpt lat="31.4850200" lon="34.6318200">
<ele>119.110001</ele>
<time>2024-04-17T09:37:31.052Z</time>
</trkpt>
<trkpt lat="31.4848700" lon="34.6318100">
<ele>121.369995</ele>
<time>2024-04-17T09:37:31.052Z</time>
</trkpt>
<trkpt lat="31.4848100" lon="34.6318400">
<ele>122.190002</ele>
<time>2024-04-17T09:37:31.052Z</time>
</trkpt>
<trkpt lat="31.4847800" lon="34.6319200">
<ele>122.430000</ele>
<time>2024-04-17T09:37:31.052Z</time>
</trkpt>
<trkpt lat="31.4847900" lon="34.6320500">
<ele>123.029999</ele>
<time>2024-04-17T09:37:31.052Z</time>
</trkpt>
<trkpt lat="31.4847700" lon="34.6321300">
<ele>123.819992</ele>
<time>2024-04-17T09:37:31.052Z</time>
</trkpt>
<trkpt lat="31.4847300" lon="34.6321900">
<ele>124.680000</ele>
<time>2024-04-17T09:37:31.052Z</time>
</trkpt>
<trkpt lat="31.4847000" lon="34.6322200">
<ele>125.070000</ele>
<time>2024-04-17T09:37:31.052Z</time>
</trkpt>
<trkpt lat="31.4845700" lon="34.6322900">
<ele>125.520004</ele>
<time>2024-04-17T09:37:31.052Z</time>
</trkpt>
<trkpt lat="31.4843200" lon="34.6324500">
<ele>123.550003</ele>
<time>2024-04-17T09:37:31.052Z</time>
</trkpt>
<trkpt lat="31.4841400" lon="34.6324800">
<ele>121.309998</ele>
<time>2024-04-17T09:37:31.052Z</time>
</trkpt>
<trkpt lat="31.4840400" lon="34.6325200">
<ele>121.500000</ele>
<time>2024-04-17T09:37:31.052Z</time>
</trkpt>
<trkpt lat="31.4839000" lon="34.6325200">
<ele>121.959999</ele>
<time>2024-04-17T09:37:31.052Z</time>
</trkpt>
<trkpt lat="31.4835500" lon="34.6324300">
<ele>129.010010</ele>
<time>2024-04-17T09:37:31.052Z</time>
</trkpt>
<trkpt lat="31.4834200" lon="34.6322800">
<ele>130.789993</ele>
<time>2024-04-17T09:37:31.052Z</time>
</trkpt>
<trkpt lat="31.4834100" lon="34.6322500">
<ele>130.789993</ele>
<time>2024-04-17T09:37:31.052Z</time>
</trkpt>
<trkpt lat="31.4834100" lon="34.6322500">
<ele>130.789993</ele>
<time>2024-04-17T09:37:31.052Z</time>
</trkpt>
<trkpt lat="31.4834100" lon="34.6322500">
<ele>130.789993</ele>
<time>2024-04-17T09:37:31.052Z</time>
</trkpt>
<trkpt lat="31.4834000" lon="34.6322000">
<ele>130.050003</ele>
<time>2024-04-17T09:37:31.052Z</time>
</trkpt>
<trkpt lat="31.4834100" lon="34.6320800">
<ele>125.980003</ele>
<time>2024-04-17T09:37:31.052Z</time>
</trkpt>
<trkpt lat="31.4834600" lon="34.6317900">
<ele>121.809998</ele>
<time>2024-04-17T09:37:31.052Z</time>
</trkpt>
<trkpt lat="31.4836500" lon="34.6313800">
<ele>123.320000</ele>
<time>2024-04-17T09:37:31.052Z</time>
</trkpt>
<trkpt lat="31.4836800" lon="34.6311300">
<ele>124.660004</ele>
<time>2024-04-17T09:37:31.052Z</time>
</trkpt>
<trkpt lat="31.4836500" lon="34.6310200">
<ele>123.909996</ele>
<time>2024-04-17T09:37:31.052Z</time>
</trkpt>
<trkpt lat="31.4835800" lon="34.6309000">
<ele>123.870003</ele>
<time>2024-04-17T09:37:31.052Z</time>
</trkpt>
<trkpt lat="31.4834500" lon="34.6307800">
<ele>127.900002</ele>
<time>2024-04-17T09:37:31.052Z</time>
</trkpt>
<trkpt lat="31.4833700" lon="34.6307700">
<ele>129.729996</ele>
<time>2024-04-17T09:37:31.052Z</time>
</trkpt>
<trkpt lat="31.4831300" lon="34.6308500">
<ele>130.550003</ele>
<time>2024-04-17T09:37:31.052Z</time>
</trkpt>
<trkpt lat="31.4830100" lon="34.6309200">
<ele>128.440002</ele>
<time>2024-04-17T09:37:31.052Z</time>
</trkpt>
<trkpt lat="31.4829700" lon="34.6309400">
<ele>127.929993</ele>
<time>2024-04-17T09:37:31.052Z</time>
</trkpt>
<trkpt lat="31.4827900" lon="34.6309600">
<ele>127.660004</ele>
<time>2024-04-17T09:37:31.052Z</time>
</trkpt>
<trkpt lat="31.4827300" lon="34.6310000">
<ele>129.110001</ele>
<time>2024-04-17T09:37:31.052Z</time>
</trkpt>
<trkpt lat="31.4827100" lon="34.6311200">
<ele>131.790009</ele>
<time>2024-04-17T09:37:31.052Z</time>
</trkpt>
<trkpt lat="31.4827300" lon="34.6311800">
<ele>131.919998</ele>
<time>2024-04-17T09:37:31.052Z</time>
</trkpt>
<trkpt lat="31.4827600" lon="34.6312800">
<ele>131.639999</ele>
<time>2024-04-17T09:37:31.052Z</time>
</trkpt>
<trkpt lat="31.4827600" lon="34.6313600">
<ele>131.500000</ele>
<time>2024-04-17T09:37:31.052Z</time>
</trkpt>
<trkpt lat="31.4826500" lon="34.6317200">
<ele>132.100006</ele>
<time>2024-04-17T09:37:31.052Z</time>
</trkpt>
<trkpt lat="31.4825300" lon="34.6319300">
<ele>134.479996</ele>
<time>2024-04-17T09:37:31.052Z</time>
</trkpt>
<trkpt lat="31.4823200" lon="34.6321000">
<ele>131.279999</ele>
<time>2024-04-17T09:37:31.052Z</time>
</trkpt>
<trkpt lat="31.4821600" lon="34.6322600">
<ele>132.000000</ele>
<time>2024-04-17T09:37:31.052Z</time>
</trkpt>
<trkpt lat="31.4821000" lon="34.6322300">
<ele>133.550003</ele>
<time>2024-04-17T09:37:31.052Z</time>
</trkpt>
<trkpt lat="31.4820600" lon="34.6321400">
<ele>134.199997</ele>
<time>2024-04-17T09:37:31.052Z</time>
</trkpt>
<trkpt lat="31.4820600" lon="34.6321400">
<ele>134.199997</ele>
<time>2024-04-17T09:37:31.052Z</time>
</trkpt>
<trkpt lat="31.4820500" lon="34.6321200">
<ele>134.360001</ele>
<time>2024-04-17T09:37:31.052Z</time>
</trkpt>
<trkpt lat="31.4820500" lon="34.6319900">
<ele>133.610001</ele>
<time>2024-04-17T09:37:31.052Z</time>
</trkpt>
<trkpt lat="31.4821500" lon="34.6317700">
<ele>132.050003</ele>
<time>2024-04-17T09:37:31.052Z</time>
</trkpt>
<trkpt lat="31.4821100" lon="34.6316500">
<ele>133.059998</ele>
<time>2024-04-17T09:37:31.052Z</time>
</trkpt>
<trkpt lat="31.4820200" lon="34.6315900">
<ele>133.559998</ele>
<time>2024-04-17T09:37:31.052Z</time>
</trkpt>
<trkpt lat="31.4819500" lon="34.6315800">
<ele>134.309998</ele>
<time>2024-04-17T09:37:31.052Z</time>
</trkpt>
<trkpt lat="31.4818100" lon="34.6315700">
<ele>133.990005</ele>
<time>2024-04-17T09:37:31.052Z</time>
</trkpt>
<trkpt lat="31.4817700" lon="34.6315000">
<ele>133.550003</ele>
<time>2024-04-17T09:37:31.052Z</time>
</trkpt>
<trkpt lat="31.4818000" lon="34.6314300">
<ele>133.220001</ele>
<time>2024-04-17T09:37:31.052Z</time>
</trkpt>
<trkpt lat="31.4819100" lon="34.6313200">
<ele>133.000000</ele>
<time>2024-04-17T09:37:31.052Z</time>
</trkpt>
<trkpt lat="31.4819300" lon="34.6312900">
<ele>133.000000</ele>
<time>2024-04-17T09:37:31.052Z</time>
</trkpt>
<trkpt lat="31.4819600" lon="34.6312100">
<ele>132.669998</ele>
<time>2024-04-17T09:37:31.052Z</time>
</trkpt>
<trkpt lat="31.4819600" lon="34.6310400">
<ele>132.750000</ele>
<time>2024-04-17T09:37:31.052Z</time>
</trkpt>
<trkpt lat="31.4819700" lon="34.6309600">
<ele>132.860001</ele>
<time>2024-04-17T09:37:31.052Z</time>
</trkpt>
<trkpt lat="31.4819900" lon="34.6309200">
<ele>132.980011</ele>
<time>2024-04-17T09:37:31.052Z</time>
</trkpt>
<trkpt lat="31.4821200" lon="34.6307800">
<ele>134.650009</ele>
<time>2024-04-17T09:37:31.052Z</time>
</trkpt>
<trkpt lat="31.4821600" lon="34.6307100">
<ele>134.639999</ele>
<time>2024-04-17T09:37:31.052Z</time>
</trkpt>
<trkpt lat="31.4822000" lon="34.6304600">
<ele>132.940002</ele>
<time>2024-04-17T09:37:31.052Z</time>
</trkpt>
<trkpt lat="31.4822700" lon="34.6303700">
<ele>130.789993</ele>
<time>2024-04-17T09:37:31.052Z</time>
</trkpt>
<trkpt lat="31.4824700" lon="34.6302700">
<ele>123.799995</ele>
<time>2024-04-17T09:37:31.052Z</time>
</trkpt>
<trkpt lat="31.4826800" lon="34.6302800">
<ele>121.110001</ele>
<time>2024-04-17T09:37:31.052Z</time>
</trkpt>
<trkpt lat="31.4828100" lon="34.6302500">
<ele>121.300003</ele>
<time>2024-04-17T09:37:31.052Z</time>
</trkpt>
<trkpt lat="31.4828900" lon="34.6302300">
<ele>124.040001</ele>
<time>2024-04-17T09:37:31.052Z</time>
</trkpt>
<trkpt lat="31.4830400" lon="34.6302200">
<ele>128.870010</ele>
<time>2024-04-17T09:37:31.052Z</time>
</trkpt>
<trkpt lat="31.4832700" lon="34.6303300">
<ele>129.229996</ele>
<time>2024-04-17T09:37:31.052Z</time>
</trkpt>
<trkpt lat="31.4834800" lon="34.6304000">
<ele>129.589996</ele>
<time>2024-04-17T09:37:31.052Z</time>
</trkpt>
<trkpt lat="31.4836100" lon="34.6304700">
<ele>129.610001</ele>
<time>2024-04-17T09:37:31.052Z</time>
</trkpt>
<trkpt lat="31.4837500" lon="34.6305200">
<ele>126.130005</ele>
<time>2024-04-17T09:37:31.052Z</time>
</trkpt>
<trkpt lat="31.4837500" lon="34.6305200">
<ele>126.130005</ele>
<time>2024-04-17T09:37:31.052Z</time>
</trkpt>
<trkpt lat="31.4838800" lon="34.6305600">
<ele>123.169998</ele>
<time>2024-04-17T09:37:31.052Z</time>
</trkpt>
<trkpt lat="31.4840800" lon="34.6306700">
<ele>120.400002</ele>
<time>2024-04-17T09:37:31.052Z</time>
</trkpt>
<trkpt lat="31.4841800" lon="34.6306900">
<ele>119.580002</ele>
<time>2024-04-17T09:37:31.052Z</time>
</trkpt>
<trkpt lat="31.4844300" lon="34.6306700">
<ele>121.139999</ele>
<time>2024-04-17T09:37:31.052Z</time>
</trkpt>
<trkpt lat="31.4847500" lon="34.6305900">
<ele>124.300003</ele>
<time>2024-04-17T09:37:31.052Z</time>
</trkpt>
<trkpt lat="31.4848500" lon="34.6304200">
<ele>125.139999</ele>
<time>2024-04-17T09:37:31.052Z</time>
</trkpt>
<trkpt lat="31.4848700" lon="34.6303400">
<ele>125.479996</ele>
<time>2024-04-17T09:37:31.052Z</time>
</trkpt>
<trkpt lat="31.4848500" lon="34.6302600">
<ele>125.510002</ele>
<time>2024-04-17T09:37:31.052Z</time>
</trkpt>
<trkpt lat="31.4848100" lon="34.6301400">
<ele>126.120003</ele>
<time>2024-04-17T09:37:31.052Z</time>
</trkpt>
<trkpt lat="31.4847600" lon="34.6299000">
<ele>126.940002</ele>
<time>2024-04-17T09:37:31.052Z</time>
</trkpt>
<trkpt lat="31.4847000" lon="34.6297900">
<ele>126.740005</ele>
<time>2024-04-17T09:37:31.052Z</time>
</trkpt>
<trkpt lat="31.4846500" lon="34.6296400">
<ele>125.779999</ele>
<time>2024-04-17T09:37:31.052Z</time>
</trkpt>
<trkpt lat="31.4845500" lon="34.6294600">
<ele>124.419998</ele>
<time>2024-04-17T09:37:31.052Z</time>
</trkpt>
<trkpt lat="31.4844600" lon="34.6293900">
<ele>124.059998</ele>
<time>2024-04-17T09:37:31.052Z</time>
</trkpt>
<trkpt lat="31.4843200" lon="34.6293900">
<ele>124.989998</ele>
<time>2024-04-17T09:37:31.052Z</time>
</trkpt>
<trkpt lat="31.4842900" lon="34.6293700">
<ele>125.070000</ele>
<time>2024-04-17T09:37:31.052Z</time>
</trkpt>
<trkpt lat="31.4843000" lon="34.6293300">
<ele>124.699997</ele>
<time>2024-04-17T09:37:31.052Z</time>
</trkpt>
<trkpt lat="31.4844000" lon="34.6292100">
<ele>123.939995</ele>
<time>2024-04-17T09:37:31.052Z</time>
</trkpt>
<trkpt lat="31.4844400" lon="34.6291400">
<ele>123.799995</ele>
<time>2024-04-17T09:37:31.052Z</time>
</trkpt>
<trkpt lat="31.4844400" lon="34.6289700">
<ele>122.589996</ele>
<time>2024-04-17T09:37:31.052Z</time>
</trkpt>
<trkpt lat="31.4844100" lon="34.6287700">
<ele>121.430000</ele>
<time>2024-04-17T09:37:31.052Z</time>
</trkpt>
<trkpt lat="31.4844300" lon="34.6287300">
<ele>121.000000</ele>
<time>2024-04-17T09:37:31.052Z</time>
</trkpt>
<trkpt lat="31.4845000" lon="34.6287200">
<ele>121.430000</ele>
<time>2024-04-17T09:37:31.052Z</time>
</trkpt>
<trkpt lat="31.4845700" lon="34.6287500">
<ele>122.360001</ele>
<time>2024-04-17T09:37:31.052Z</time>
</trkpt>
<trkpt lat="31.4846100" lon="34.6288500">
<ele>123.080002</ele>
<time>2024-04-17T09:37:31.052Z</time>
</trkpt>
<trkpt lat="31.4847000" lon="34.6289900">
<ele>124.229996</ele>
<time>2024-04-17T09:37:31.052Z</time>
</trkpt>
<trkpt lat="31.4848300" lon="34.6291400">
<ele>123.850006</ele>
<time>2024-04-17T09:37:31.052Z</time>
</trkpt>
<trkpt lat="31.4848100" lon="34.6292600">
<ele>124.050003</ele>
<time>2024-04-17T09:37:31.052Z</time>
</trkpt>
<trkpt lat="31.4848200" lon="34.6293500">
<ele>123.939995</ele>
<time>2024-04-17T09:37:31.052Z</time>
</trkpt>
<trkpt lat="31.4848300" lon="34.6293800">
<ele>123.840004</ele>
<time>2024-04-17T09:37:31.052Z</time>
</trkpt>
<trkpt lat="31.4848600" lon="34.6294100">
<ele>123.509995</ele>
<time>2024-04-17T09:37:31.052Z</time>
</trkpt>
<trkpt lat="31.4849700" lon="34.6294200">
<ele>122.320000</ele>
<time>2024-04-17T09:37:31.052Z</time>
</trkpt>
<trkpt lat="31.4849800" lon="34.6294600">
<ele>122.330002</ele>
<time>2024-04-17T09:37:31.052Z</time>
</trkpt>
<trkpt lat="31.4849700" lon="34.6296700">
<ele>123.949997</ele>
<time>2024-04-17T09:37:31.052Z</time>
</trkpt>
<trkpt lat="31.4849900" lon="34.6297500">
<ele>124.489998</ele>
<time>2024-04-17T09:37:31.052Z</time>
</trkpt>
<trkpt lat="31.4852500" lon="34.6302500">
<ele>121.339996</ele>
<time>2024-04-17T09:37:31.052Z</time>
</trkpt>
<trkpt lat="31.4853100" lon="34.6305400">
<ele>120.430000</ele>
<time>2024-04-17T09:37:31.052Z</time>
</trkpt>
<trkpt lat="31.4853600" lon="34.6308700">
<ele>121.180000</ele>
<time>2024-04-17T09:37:31.052Z</time>
</trkpt>
<trkpt lat="31.4854200" lon="34.6310200">
<ele>119.580002</ele>
<time>2024-04-17T09:37:31.052Z</time>
</trkpt>
<trkpt lat="31.4856600" lon="34.6312800">
<ele>114.470001</ele>
<time>2024-04-17T09:37:31.052Z</time>
</trkpt>
<trkpt lat="31.4857300" lon="34.6314300">
<ele>112.500000</ele>
<time>2024-04-17T09:37:31.052Z</time>
</trkpt>
<trkpt lat="31.4858600" lon="34.6317800">
<ele>111.119995</ele>
<time>2024-04-17T09:37:31.052Z</time>
</trkpt>
<trkpt lat="31.4859000" lon="34.6318500">
<ele>111.960007</ele>
<time>2024-04-17T09:37:31.052Z</time>
</trkpt>
<trkpt lat="31.4859200" lon="34.6318800">
<ele>112.300003</ele>
<time>2024-04-17T09:37:31.052Z</time>
</trkpt>
<trkpt lat="31.4860200" lon="34.6319200">
<ele>113.289993</ele>
<time>2024-04-17T09:37:31.052Z</time>
</trkpt>
<trkpt lat="31.4861500" lon="34.6320700">
<ele>113.439995</ele>
<time>2024-04-17T09:37:31.052Z</time>
</trkpt>
<trkpt lat="31.4861800" lon="34.6320900">
<ele>113.010002</ele>
<time>2024-04-17T09:37:31.052Z</time>
</trkpt>
<trkpt lat="31.4862200" lon="34.6320900">
<ele>112.430000</ele>
<time>2024-04-17T09:37:31.052Z</time>
</trkpt>
<trkpt lat="31.4862200" lon="34.6320900">
<ele>112.430000</ele>
<time>2024-04-17T09:37:31.052Z</time>
</trkpt>
<trkpt lat="31.4862500" lon="34.6320800">
<ele>112.000000</ele>
<time>2024-04-17T09:37:31.052Z</time>
</trkpt>
<trkpt lat="31.4862700" lon="34.6320600">
<ele>111.709999</ele>
<time>2024-04-17T09:37:31.052Z</time>
</trkpt>
<trkpt lat="31.4862900" lon="34.6319800">
<ele>111.419998</ele>
<time>2024-04-17T09:37:31.052Z</time>
</trkpt>
<trkpt lat="31.4862800" lon="34.6318900">
<ele>111.810005</ele>
<time>2024-04-17T09:37:31.052Z</time>
</trkpt>
<trkpt lat="31.4860900" lon="34.6317100">
<ele>113.720001</ele>
<time>2024-04-17T09:37:31.052Z</time>
</trkpt>
<trkpt lat="31.4859500" lon="34.6315200">
<ele>112.290001</ele>
<time>2024-04-17T09:37:31.052Z</time>
</trkpt>
<trkpt lat="31.4859200" lon="34.6314400">
<ele>112.369995</ele>
<time>2024-04-17T09:37:31.052Z</time>
</trkpt>
<trkpt lat="31.4859100" lon="34.6312700">
<ele>114.459999</ele>
<time>2024-04-17T09:37:31.052Z</time>
</trkpt>
<trkpt lat="31.4858800" lon="34.6311100">
<ele>117.010002</ele>
<time>2024-04-17T09:37:31.052Z</time>
</trkpt>
<trkpt lat="31.4858900" lon="34.6310300">
<ele>117.639999</ele>
<time>2024-04-17T09:37:31.052Z</time>
</trkpt>
<trkpt lat="31.4859100" lon="34.6309900">
<ele>117.989998</ele>
<time>2024-04-17T09:37:31.052Z</time>
</trkpt>
<trkpt lat="31.4860400" lon="34.6309100">
<ele>118.990005</ele>
<time>2024-04-17T09:37:31.052Z</time>
</trkpt>
<trkpt lat="31.4860600" lon="34.6308800">
<ele>119.339996</ele>
<time>2024-04-17T09:37:31.052Z</time>
</trkpt>
<trkpt lat="31.4860800" lon="34.6308400">
<ele>119.820000</ele>
<time>2024-04-17T09:37:31.052Z</time>
</trkpt>
<trkpt lat="31.4860600" lon="34.6307600">
<ele>119.930000</ele>
<time>2024-04-17T09:37:31.052Z</time>
</trkpt>
<trkpt lat="31.4860000" lon="34.6307200">
<ele>119.519997</ele>
<time>2024-04-17T09:37:31.052Z</time>
</trkpt>
<trkpt lat="31.4857500" lon="34.6307000">
<ele>117.580002</ele>
<time>2024-04-17T09:37:31.052Z</time>
</trkpt>
<trkpt lat="31.4857200" lon="34.6306800">
<ele>117.310005</ele>
<time>2024-04-17T09:37:31.052Z</time>
</trkpt>
<trkpt lat="31.4856800" lon="34.6306100">
<ele>116.730003</ele>
<time>2024-04-17T09:37:31.052Z</time>
</trkpt>
<trkpt lat="31.4856500" lon="34.6302700">
<ele>118.309998</ele>
<time>2024-04-17T09:37:31.052Z</time>
</trkpt>
<trkpt lat="31.4856700" lon="34.6301100">
<ele>117.809998</ele>
<time>2024-04-17T09:37:31.052Z</time>
</trkpt>
<trkpt lat="31.4855900" lon="34.6299600">
<ele>117.070000</ele>
<time>2024-04-17T09:37:31.052Z</time>
</trkpt>
<trkpt lat="31.4855800" lon="34.6298300">
<ele>116.930000</ele>
<time>2024-04-17T09:37:31.052Z</time>
</trkpt>
<trkpt lat="31.4856000" lon="34.6297600">
<ele>116.750000</ele>
<time>2024-04-17T09:37:31.052Z</time>
</trkpt>
<trkpt lat="31.4857000" lon="34.6295800">
<ele>117.480003</ele>
<time>2024-04-17T09:37:31.052Z</time>
</trkpt>
<trkpt lat="31.4857200" lon="34.6295000">
<ele>118.070000</ele>
<time>2024-04-17T09:37:31.052Z</time>
</trkpt>
<trkpt lat="31.4857100" lon="34.6293700">
<ele>119.339996</ele>
<time>2024-04-17T09:37:31.052Z</time>
</trkpt>
<trkpt lat="31.4856700" lon="34.6293000">
<ele>120.299995</ele>
<time>2024-04-17T09:37:31.052Z</time>
</trkpt>
<trkpt lat="31.4855600" lon="34.6291900">
<ele>121.880005</ele>
<time>2024-04-17T09:37:31.052Z</time>
</trkpt>
<trkpt lat="31.4855300" lon="34.6291800">
<ele>121.959999</ele>
<time>2024-04-17T09:37:31.052Z</time>
</trkpt>
<trkpt lat="31.4854300" lon="34.6292200">
<ele>121.979996</ele>
<time>2024-04-17T09:37:31.052Z</time>
</trkpt>
<trkpt lat="31.4853900" lon="34.6292100">
<ele>122.029999</ele>
<time>2024-04-17T09:37:31.052Z</time>
</trkpt>
<trkpt lat="31.4853700" lon="34.6291800">
<ele>122.020004</ele>
<time>2024-04-17T09:37:31.052Z</time>
</trkpt>
<trkpt lat="31.4853100" lon="34.6289400">
<ele>123.540001</ele>
<time>2024-04-17T09:37:31.052Z</time>
</trkpt>
<trkpt lat="31.4852300" lon="34.6287000">
<ele>126.160004</ele>
<time>2024-04-17T09:37:31.052Z</time>
</trkpt>
<trkpt lat="31.4852200" lon="34.6286200">
<ele>127.110001</ele>
<time>2024-04-17T09:37:31.052Z</time>
</trkpt>
<trkpt lat="31.4852500" lon="34.6284600">
<ele>127.370003</ele>
<time>2024-04-17T09:37:31.052Z</time>
</trkpt>
<trkpt lat="31.4852800" lon="34.6283800">
<ele>127.870003</ele>
<time>2024-04-17T09:37:31.052Z</time>
</trkpt>
<trkpt lat="31.4853300" lon="34.6283200">
<ele>128.839996</ele>
<time>2024-04-17T09:37:31.052Z</time>
</trkpt>
<trkpt lat="31.4853600" lon="34.6282900">
<ele>129.320007</ele>
<time>2024-04-17T09:37:31.052Z</time>
</trkpt>
<trkpt lat="31.4854300" lon="34.6282900">
<ele>130.970001</ele>
<time>2024-04-17T09:37:31.052Z</time>
</trkpt>
<trkpt lat="31.4855800" lon="34.6284000">
<ele>131.470001</ele>
<time>2024-04-17T09:37:31.052Z</time>
</trkpt>
<trkpt lat="31.4856200" lon="34.6283900">
<ele>131.539993</ele>
<time>2024-04-17T09:37:31.052Z</time>
</trkpt>
<trkpt lat="31.4856600" lon="34.6283200">
<ele>132.880005</ele>
<time>2024-04-17T09:37:31.052Z</time>
</trkpt>
<trkpt lat="31.4856500" lon="34.6281900">
<ele>135.410004</ele>
<time>2024-04-17T09:37:31.052Z</time>
</trkpt>
<trkpt lat="31.4856000" lon="34.6280300">
<ele>137.850006</ele>
<time>2024-04-17T09:37:31.052Z</time>
</trkpt>
<trkpt lat="31.4854900" lon="34.6279200">
<ele>131.529999</ele>
<time>2024-04-17T09:37:31.052Z</time>
</trkpt>
<trkpt lat="31.4854500" lon="34.6278500">
<ele>127.759995</ele>
<time>2024-04-17T09:37:31.052Z</time>
</trkpt>
<trkpt lat="31.4854400" lon="34.6278100">
<ele>126.270004</ele>
<time>2024-04-17T09:37:31.052Z</time>
</trkpt>
<trkpt lat="31.4854500" lon="34.6277800">
<ele>125.879997</ele>
<time>2024-04-17T09:37:31.052Z</time>
</trkpt>
<trkpt lat="31.4854500" lon="34.6277800">
<ele>125.879997</ele>
<time>2024-04-17T09:37:31.052Z</time>
</trkpt>
<trkpt lat="31.4855200" lon="34.6277300">
<ele>129.190002</ele>
<time>2024-04-17T09:37:31.052Z</time>
</trkpt>
<trkpt lat="31.4856300" lon="34.6277400">
<ele>132.139999</ele>
<time>2024-04-17T09:37:31.052Z</time>
</trkpt>
<trkpt lat="31.4858500" lon="34.6279500">
<ele>136.510010</ele>
<time>2024-04-17T09:37:31.052Z</time>
</trkpt>
<trkpt lat="31.4859500" lon="34.6280100">
<ele>134.860001</ele>
<time>2024-04-17T09:37:31.052Z</time>
</trkpt>
<trkpt lat="31.4860500" lon="34.6280500">
<ele>133.649994</ele>
<time>2024-04-17T09:37:31.052Z</time>
</trkpt>
<trkpt lat="31.4861900" lon="34.6280700">
<ele>132.589996</ele>
<time>2024-04-17T09:37:31.052Z</time>
</trkpt>
<trkpt lat="31.4862500" lon="34.6281100">
<ele>132.110001</ele>
<time>2024-04-17T09:37:31.052Z</time>
</trkpt>
<trkpt lat="31.4863100" lon="34.6283600">
<ele>130.479996</ele>
<time>2024-04-17T09:37:31.052Z</time>
</trkpt>
<trkpt lat="31.4863100" lon="34.6284400">
<ele>129.790009</ele>
<time>2024-04-17T09:37:31.052Z</time>
</trkpt>
<trkpt lat="31.4862800" lon="34.6285100">
<ele>128.729996</ele>
<time>2024-04-17T09:37:31.052Z</time>
</trkpt>
<trkpt lat="31.4861600" lon="34.6286700">
<ele>124.669998</ele>
<time>2024-04-17T09:37:31.052Z</time>
</trkpt>
<trkpt lat="31.4860700" lon="34.6288100">
<ele>122.650002</ele>
<time>2024-04-17T09:37:31.052Z</time>
</trkpt>
<trkpt lat="31.4860300" lon="34.6289200">
<ele>121.779999</ele>
<time>2024-04-17T09:37:31.052Z</time>
</trkpt>
<trkpt lat="31.4860000" lon="34.6290400">
<ele>120.909996</ele>
<time>2024-04-17T09:37:31.052Z</time>
</trkpt>
<trkpt lat="31.4860100" lon="34.6291700">
<ele>119.979996</ele>
<time>2024-04-17T09:37:31.052Z</time>
</trkpt>
<trkpt lat="31.4860400" lon="34.6292900">
<ele>119.330002</ele>
<time>2024-04-17T09:37:31.052Z</time>
</trkpt>
<trkpt lat="31.4860900" lon="34.6293500">
<ele>119.239998</ele>
<time>2024-04-17T09:37:31.052Z</time>
</trkpt>
<trkpt lat="31.4861500" lon="34.6293800">
<ele>119.720001</ele>
<time>2024-04-17T09:37:31.052Z</time>
</trkpt>
<trkpt lat="31.4862300" lon="34.6293800">
<ele>120.709999</ele>
<time>2024-04-17T09:37:31.052Z</time>
</trkpt>
<trkpt lat="31.4863600" lon="34.6293200">
<ele>122.940002</ele>
<time>2024-04-17T09:37:31.052Z</time>
</trkpt>
<trkpt lat="31.4864300" lon="34.6293200">
<ele>124.000000</ele>
<time>2024-04-17T09:37:31.052Z</time>
</trkpt>
<trkpt lat="31.4864300" lon="34.6293200">
<ele>124.000000</ele>
<time>2024-04-17T09:37:31.052Z</time>
</trkpt>
<trkpt lat="31.4866100" lon="34.6293200">
<ele>126.880005</ele>
<time>2024-04-17T09:37:31.052Z</time>
</trkpt>
<trkpt lat="31.4866800" lon="34.6292800">
<ele>128.460007</ele>
<time>2024-04-17T09:37:31.052Z</time>
</trkpt>
<trkpt lat="31.4868100" lon="34.6292300">
<ele>129.399994</ele>
<time>2024-04-17T09:37:31.052Z</time>
</trkpt>
<trkpt lat="31.4868700" lon="34.6291300">
<ele>129.339996</ele>
<time>2024-04-17T09:37:31.052Z</time>
</trkpt>
<trkpt lat="31.4869100" lon="34.6289600">
<ele>129.309998</ele>
<time>2024-04-17T09:37:31.052Z</time>
</trkpt>
<trkpt lat="31.4869000" lon="34.6288800">
<ele>129.339996</ele>
<time>2024-04-17T09:37:31.052Z</time>
</trkpt>
<trkpt lat="31.4868700" lon="34.6287600">
<ele>127.860001</ele>
<time>2024-04-17T09:37:31.052Z</time>
</trkpt>
<trkpt lat="31.4867900" lon="34.6285700">
<ele>127.239998</ele>
<time>2024-04-17T09:37:31.052Z</time>
</trkpt>
<trkpt lat="31.4867800" lon="34.6283200">
<ele>126.829994</ele>
<time>2024-04-17T09:37:31.052Z</time>
</trkpt>
<trkpt lat="31.4867600" lon="34.6282400">
<ele>127.220001</ele>
<time>2024-04-17T09:37:31.052Z</time>
</trkpt>
<trkpt lat="31.4866600" lon="34.6280700">
<ele>127.169998</ele>
<time>2024-04-17T09:37:31.052Z</time>
</trkpt>
<trkpt lat="31.4866400" lon="34.6278600">
<ele>129.250000</ele>
<time>2024-04-17T09:37:31.052Z</time>
</trkpt>
<trkpt lat="31.4867000" lon="34.6277500">
<ele>130.300003</ele>
<time>2024-04-17T09:37:31.052Z</time>
</trkpt>
<trkpt lat="31.4867900" lon="34.6277600">
<ele>131.699997</ele>
<time>2024-04-17T09:37:31.052Z</time>
</trkpt>
<trkpt lat="31.4868800" lon="34.6279400">
<ele>130.419998</ele>
<time>2024-04-17T09:37:31.052Z</time>
</trkpt>
<trkpt lat="31.4869500" lon="34.6279900">
<ele>130.130005</ele>
<time>2024-04-17T09:37:31.052Z</time>
</trkpt>
<trkpt lat="31.4872900" lon="34.6279800">
<ele>126.000000</ele>
<time>2024-04-17T09:37:31.052Z</time>
</trkpt>
<trkpt lat="31.4874700" lon="34.6280700">
<ele>119.889999</ele>
<time>2024-04-17T09:37:31.052Z</time>
</trkpt>
<trkpt lat="31.4875600" lon="34.6283300">
<ele>122.190002</ele>
<time>2024-04-17T09:37:31.052Z</time>
</trkpt>
<trkpt lat="31.4876200" lon="34.6283800">
<ele>123.029999</ele>
<time>2024-04-17T09:37:31.052Z</time>
</trkpt>
<trkpt lat="31.4876800" lon="34.6284200">
<ele>123.690002</ele>
<time>2024-04-17T09:37:31.052Z</time>
</trkpt>
<trkpt lat="31.4878200" lon="34.6284500">
<ele>125.240005</ele>
<time>2024-04-17T09:37:31.052Z</time>
</trkpt>
<trkpt lat="31.4878800" lon="34.6284900">
<ele>126.760002</ele>
<time>2024-04-17T09:37:31.052Z</time>
</trkpt>
<trkpt lat="31.4880200" lon="34.6287700">
<ele>129.190002</ele>
<time>2024-04-17T09:37:31.052Z</time>
</trkpt>
<trkpt lat="31.4881700" lon="34.6289700">
<ele>128.880005</ele>
<time>2024-04-17T09:37:31.052Z</time>
</trkpt>
<trkpt lat="31.4882400" lon="34.6291000">
<ele>127.309998</ele>
<time>2024-04-17T09:37:31.052Z</time>
</trkpt>
<trkpt lat="31.4882300" lon="34.6291000">
<ele>127.370003</ele>
<time>2024-04-17T09:37:31.052Z</time>
</trkpt>
<trkpt lat="31.4883700" lon="34.6293700">
<ele>123.110001</ele>
<time>2024-04-17T09:37:31.052Z</time>
</trkpt>
<trkpt lat="31.4884800" lon="34.6295800">
<ele>120.790001</ele>
<time>2024-04-17T09:37:31.052Z</time>
</trkpt>
<trkpt lat="31.4885000" lon="34.6296600">
<ele>120.139999</ele>
<time>2024-04-17T09:37:31.052Z</time>
</trkpt>
<trkpt lat="31.4884900" lon="34.6297000">
<ele>119.760002</ele>
<time>2024-04-17T09:37:31.052Z</time>
</trkpt>
<trkpt lat="31.4883900" lon="34.6298700">
<ele>117.830002</ele>
<time>2024-04-17T09:37:31.052Z</time>
</trkpt>
<trkpt lat="31.4883200" lon="34.6300200">
<ele>116.029999</ele>
<time>2024-04-17T09:37:31.052Z</time>
</trkpt>
<trkpt lat="31.4882200" lon="34.6301300">
<ele>116.440002</ele>
<time>2024-04-17T09:37:31.052Z</time>
</trkpt>
<trkpt lat="31.4881500" lon="34.6301700">
<ele>116.760002</ele>
<time>2024-04-17T09:37:31.052Z</time>
</trkpt>
<trkpt lat="31.4880500" lon="34.6301800">
<ele>117.000000</ele>
<time>2024-04-17T09:37:31.052Z</time>
</trkpt>
<trkpt lat="31.4879800" lon="34.6301600">
<ele>117.540001</ele>
<time>2024-04-17T09:37:31.052Z</time>
</trkpt>
<trkpt lat="31.4878300" lon="34.6299800">
<ele>117.549995</ele>
<time>2024-04-17T09:37:31.052Z</time>
</trkpt>
<trkpt lat="31.4877700" lon="34.6299300">
<ele>118.469994</ele>
<time>2024-04-17T09:37:31.052Z</time>
</trkpt>
<trkpt lat="31.4877300" lon="34.6299300">
<ele>119.580002</ele>
<time>2024-04-17T09:37:31.052Z</time>
</trkpt>
<trkpt lat="31.4877100" lon="34.6299600">
<ele>120.159996</ele>
<time>2024-04-17T09:37:31.052Z</time>
</trkpt>
<trkpt lat="31.4877000" lon="34.6300400">
<ele>120.790001</ele>
<time>2024-04-17T09:37:31.052Z</time>
</trkpt>
<trkpt lat="31.4876800" lon="34.6304200">
<ele>122.729996</ele>
<time>2024-04-17T09:37:31.052Z</time>
</trkpt>
<trkpt lat="31.4877600" lon="34.6306100">
<ele>121.930000</ele>
<time>2024-04-17T09:37:31.052Z</time>
</trkpt>
<trkpt lat="31.4878300" lon="34.6306500">
<ele>121.790001</ele>
<time>2024-04-17T09:37:31.052Z</time>
</trkpt>
<trkpt lat="31.4879600" lon="34.6306000">
<ele>121.710007</ele>
<time>2024-04-17T09:37:31.052Z</time>
</trkpt>
<trkpt lat="31.4881800" lon="34.6306100">
<ele>120.709999</ele>
<time>2024-04-17T09:37:31.052Z</time>
</trkpt>
<trkpt lat="31.4882500" lon="34.6305900">
<ele>119.919998</ele>
<time>2024-04-17T09:37:31.052Z</time>
</trkpt>
<trkpt lat="31.4884400" lon="34.6304600">
<ele>117.169998</ele>
<time>2024-04-17T09:37:31.052Z</time>
</trkpt>
<trkpt lat="31.4885200" lon="34.6303800">
<ele>116.320000</ele>
<time>2024-04-17T09:37:31.052Z</time>
</trkpt>
<trkpt lat="31.4885800" lon="34.6302800">
<ele>116.110001</ele>
<time>2024-04-17T09:37:31.052Z</time>
</trkpt>
<trkpt lat="31.4886300" lon="34.6302200">
<ele>116.840004</ele>
<time>2024-04-17T09:37:31.052Z</time>
</trkpt>
<trkpt lat="31.4886800" lon="34.6302200">
<ele>117.419998</ele>
<time>2024-04-17T09:37:31.052Z</time>
</trkpt>
<trkpt lat="31.4886800" lon="34.6302200">
<ele>117.419998</ele>
<time>2024-04-17T09:37:31.052Z</time>
</trkpt>
<trkpt lat="31.4888400" lon="34.6301900">
<ele>119.680000</ele>
<time>2024-04-17T09:37:31.052Z</time>
</trkpt>
<trkpt lat="31.4888500" lon="34.6301500">
<ele>120.360001</ele>
<time>2024-04-17T09:37:31.052Z</time>
</trkpt>
<trkpt lat="31.4888500" lon="34.6301100">
<ele>120.909996</ele>
<time>2024-04-17T09:37:31.052Z</time>
</trkpt>
<trkpt lat="31.4887100" lon="34.6299800">
<ele>120.570000</ele>
<time>2024-04-17T09:37:31.052Z</time>
</trkpt>
<trkpt lat="31.4886400" lon="34.6298800">
<ele>119.979996</ele>
<time>2024-04-17T09:37:31.052Z</time>
</trkpt>
<trkpt lat="31.4886400" lon="34.6298400">
<ele>120.170006</ele>
<time>2024-04-17T09:37:31.052Z</time>
</trkpt>
<trkpt lat="31.4886800" lon="34.6297800">
<ele>121.369995</ele>
<time>2024-04-17T09:37:31.052Z</time>
</trkpt>
<trkpt lat="31.4887100" lon="34.6297800">
<ele>122.059998</ele>
<time>2024-04-17T09:37:31.052Z</time>
</trkpt>
<trkpt lat="31.4889700" lon="34.6299200">
<ele>124.150002</ele>
<time>2024-04-17T09:37:31.052Z</time>
</trkpt>
<trkpt lat="31.4890700" lon="34.6299600">
<ele>123.580002</ele>
<time>2024-04-17T09:37:31.052Z</time>
</trkpt>
<trkpt lat="31.4891800" lon="34.6299600">
<ele>123.769997</ele>
<time>2024-04-17T09:37:31.052Z</time>
</trkpt>
<trkpt lat="31.4891900" lon="34.6299200">
<ele>124.489998</ele>
<time>2024-04-17T09:37:31.052Z</time>
</trkpt>
<trkpt lat="31.4891800" lon="34.6298800">
<ele>124.920006</ele>
<time>2024-04-17T09:37:31.052Z</time>
</trkpt>
<trkpt lat="31.4890000" lon="34.6296800">
<ele>127.209999</ele>
<time>2024-04-17T09:37:31.052Z</time>
</trkpt>
<trkpt lat="31.4889400" lon="34.6295800">
<ele>127.610001</ele>
<time>2024-04-17T09:37:31.052Z</time>
</trkpt>
<trkpt lat="31.4889300" lon="34.6293700">
<ele>128.949997</ele>
<time>2024-04-17T09:37:31.052Z</time>
</trkpt>
<trkpt lat="31.4889100" lon="34.6292900">
<ele>129.739990</ele>
<time>2024-04-17T09:37:31.052Z</time>
</trkpt>
<trkpt lat="31.4888600" lon="34.6290900">
<ele>130.949997</ele>
<time>2024-04-17T09:37:31.052Z</time>
</trkpt>
<trkpt lat="31.4887700" lon="34.6289500">
<ele>131.069992</ele>
<time>2024-04-17T09:37:31.052Z</time>
</trkpt>
<trkpt lat="31.4887500" lon="34.6288700">
<ele>131.529999</ele>
<time>2024-04-17T09:37:31.052Z</time>
</trkpt>
<trkpt lat="31.4887500" lon="34.6288300">
<ele>131.610001</ele>
<time>2024-04-17T09:37:31.052Z</time>
</trkpt>
<trkpt lat="31.4887700" lon="34.6287900">
<ele>131.779999</ele>
<time>2024-04-17T09:37:31.052Z</time>
</trkpt>
<trkpt lat="31.4888000" lon="34.6287800">
<ele>131.949997</ele>
<time>2024-04-17T09:37:31.052Z</time>
</trkpt>
<trkpt lat="31.4888600" lon="34.6288200">
<ele>132.119995</ele>
<time>2024-04-17T09:37:31.052Z</time>
</trkpt>
<trkpt lat="31.4890100" lon="34.6290600">
<ele>131.649994</ele>
<time>2024-04-17T09:37:31.052Z</time>
</trkpt>
<trkpt lat="31.4891500" lon="34.6294000">
<ele>129.419998</ele>
<time>2024-04-17T09:37:31.052Z</time>
</trkpt>
<trkpt lat="31.4892800" lon="34.6295500">
<ele>129.620010</ele>
<time>2024-04-17T09:37:31.052Z</time>
</trkpt>
<trkpt lat="31.4893200" lon="34.6296500">
<ele>129.580002</ele>
<time>2024-04-17T09:37:31.052Z</time>
</trkpt>
<trkpt lat="31.4893700" lon="34.6298400">
<ele>128.229996</ele>
<time>2024-04-17T09:37:31.052Z</time>
</trkpt>
<trkpt lat="31.4894200" lon="34.6299200">
<ele>127.800003</ele>
<time>2024-04-17T09:37:31.052Z</time>
</trkpt>
<trkpt lat="31.4895800" lon="34.6301700">
<ele>126.249992</ele>
<time>2024-04-17T09:37:31.052Z</time>
</trkpt>
<trkpt lat="31.4896500" lon="34.6302800">
<ele>126.229996</ele>
<time>2024-04-17T09:37:31.052Z</time>
</trkpt>
<trkpt lat="31.4898000" lon="34.6306700">
<ele>126.800003</ele>
<time>2024-04-17T09:37:31.052Z</time>
</trkpt>
<trkpt lat="31.4898000" lon="34.6307700">
<ele>126.480003</ele>
<time>2024-04-17T09:37:31.052Z</time>
</trkpt>
<trkpt lat="31.4897700" lon="34.6308900">
<ele>126.379997</ele>
<time>2024-04-17T09:37:31.052Z</time>
</trkpt>
<trkpt lat="31.4897200" lon="34.6310600">
<ele>126.750000</ele>
<time>2024-04-17T09:37:31.052Z</time>
</trkpt>
<trkpt lat="31.4897100" lon="34.6313400">
<ele>125.789993</ele>
<time>2024-04-17T09:37:31.052Z</time>
</trkpt>
<trkpt lat="31.4896800" lon="34.6316200">
<ele>122.970001</ele>
<time>2024-04-17T09:37:31.052Z</time>
</trkpt>
<trkpt lat="31.4896700" lon="34.6317500">
<ele>121.459999</ele>
<time>2024-04-17T09:37:31.052Z</time>
</trkpt>
<trkpt lat="31.4896100" lon="34.6319000">
<ele>118.179993</ele>
<time>2024-04-17T09:37:31.052Z</time>
</trkpt>
<trkpt lat="31.4894600" lon="34.6321400">
<ele>113.950005</ele>
<time>2024-04-17T09:37:31.052Z</time>
</trkpt>
<trkpt lat="31.4895000" lon="34.6323900">
<ele>111.940002</ele>
<time>2024-04-17T09:37:31.052Z</time>
</trkpt>
<trkpt lat="31.4895000" lon="34.6325200">
<ele>110.040001</ele>
<time>2024-04-17T09:37:31.052Z</time>
</trkpt>
<trkpt lat="31.4894200" lon="34.6325600">
<ele>109.360001</ele>
<time>2024-04-17T09:37:31.052Z</time>
</trkpt>
<trkpt lat="31.4894200" lon="34.6325600">
<ele>109.360001</ele>
<time>2024-04-17T09:37:31.052Z</time>
</trkpt>
<trkpt lat="31.4893300" lon="34.6325400">
<ele>108.650002</ele>
<time>2024-04-17T09:37:31.052Z</time>
</trkpt>
<trkpt lat="31.4892300" lon="34.6325000">
<ele>107.680000</ele>
<time>2024-04-17T09:37:31.052Z</time>
</trkpt>
<trkpt lat="31.4891800" lon="34.6324400">
<ele>107.799995</ele>
<time>2024-04-17T09:37:31.052Z</time>
</trkpt>
<trkpt lat="31.4891300" lon="34.6322800">
<ele>109.120003</ele>
<time>2024-04-17T09:37:31.052Z</time>
</trkpt>
<trkpt lat="31.4891500" lon="34.6320900">
<ele>110.709999</ele>
<time>2024-04-17T09:37:31.052Z</time>
</trkpt>
<trkpt lat="31.4890800" lon="34.6319700">
<ele>110.310005</ele>
<time>2024-04-17T09:37:31.052Z</time>
</trkpt>
<trkpt lat="31.4889500" lon="34.6318800">
<ele>108.150002</ele>
<time>2024-04-17T09:37:31.052Z</time>
</trkpt>
<trkpt lat="31.4889000" lon="34.6319400">
<ele>107.199997</ele>
<time>2024-04-17T09:37:31.052Z</time>
</trkpt>
<trkpt lat="31.4889200" lon="34.6320200">
<ele>107.500000</ele>
<time>2024-04-17T09:37:31.052Z</time>
</trkpt>
<trkpt lat="31.4889300" lon="34.6321500">
<ele>107.520004</ele>
<time>2024-04-17T09:37:31.052Z</time>
</trkpt>
<trkpt lat="31.4888300" lon="34.6323900">
<ele>107.659996</ele>
<time>2024-04-17T09:37:31.052Z</time>
</trkpt>
<trkpt lat="31.4888300" lon="34.6324900">
<ele>108.300003</ele>
<time>2024-04-17T09:37:31.052Z</time>
</trkpt>
<trkpt lat="31.4888500" lon="34.6325600">
<ele>108.389999</ele>
<time>2024-04-17T09:37:31.052Z</time>
</trkpt>
<trkpt lat="31.4889900" lon="34.6326500">
<ele>108.130005</ele>
<time>2024-04-17T09:37:31.052Z</time>
</trkpt>
<trkpt lat="31.4890000" lon="34.6327300">
<ele>108.029999</ele>
<time>2024-04-17T09:37:31.052Z</time>
</trkpt>
<trkpt lat="31.4889600" lon="34.6328200">
<ele>108.379997</ele>
<time>2024-04-17T09:37:31.052Z</time>
</trkpt>
<trkpt lat="31.4889000" lon="34.6328700">
<ele>108.689995</ele>
<time>2024-04-17T09:37:31.052Z</time>
</trkpt>
<trkpt lat="31.4886600" lon="34.6329400">
<ele>106.559998</ele>
<time>2024-04-17T09:37:31.052Z</time>
</trkpt>
<trkpt lat="31.4885700" lon="34.6330300">
<ele>106.200005</ele>
<time>2024-04-17T09:37:31.052Z</time>
</trkpt>
<trkpt lat="31.4884100" lon="34.6331400">
<ele>106.500000</ele>
<time>2024-04-17T09:37:31.052Z</time>
</trkpt>
<trkpt lat="31.4883400" lon="34.6331600">
<ele>106.610001</ele>
<time>2024-04-17T09:37:31.052Z</time>
</trkpt>
<trkpt lat="31.4880500" lon="34.6332000">
<ele>107.530006</ele>
<time>2024-04-17T09:37:31.052Z</time>
</trkpt>
<trkpt lat="31.4879400" lon="34.6331900">
<ele>109.400002</ele>
<time>2024-04-17T09:37:31.052Z</time>
</trkpt>
<trkpt lat="31.4871700" lon="34.6329700">
<ele>112.229996</ele>
<time>2024-04-17T09:37:31.052Z</time>
</trkpt>
<trkpt lat="31.4870700" lon="34.6329700">
<ele>109.570000</ele>
<time>2024-04-17T09:37:31.052Z</time>
</trkpt>
<trkpt lat="31.4869500" lon="34.6328400">
<ele>108.229996</ele>
<time>2024-04-17T09:37:31.052Z</time>
</trkpt>
<trkpt lat="31.4868100" lon="34.6326100">
<ele>111.139999</ele>
<time>2024-04-17T09:37:31.052Z</time>
</trkpt>
<trkpt lat="31.4867400" lon="34.6326200">
<ele>110.590004</ele>
<time>2024-04-17T09:37:31.052Z</time>
</trkpt>
<trkpt lat="31.4866700" lon="34.6326700">
<ele>109.789993</ele>
<time>2024-04-17T09:37:31.052Z</time>
</trkpt>
<trkpt lat="31.4866500" lon="34.6327600">
<ele>109.360001</ele>
<time>2024-04-17T09:37:31.052Z</time>
</trkpt>
<trkpt lat="31.4866500" lon="34.6328700">
<ele>107.909996</ele>
<time>2024-04-17T09:37:31.052Z</time>
</trkpt>
<trkpt lat="31.4867100" lon="34.6331600">
<ele>103.379997</ele>
<time>2024-04-17T09:37:31.052Z</time>
</trkpt>
<trkpt lat="31.4867600" lon="34.6333100">
<ele>100.720001</ele>
<time>2024-04-17T09:37:31.052Z</time>
</trkpt>
<trkpt lat="31.4868000" lon="34.6336000">
<ele>105.679993</ele>
<time>2024-04-17T09:37:31.052Z</time>
</trkpt>
<trkpt lat="31.4868300" lon="34.6337000">
<ele>106.879997</ele>
<time>2024-04-17T09:37:31.052Z</time>
</trkpt>
<trkpt lat="31.4869100" lon="34.6338100">
<ele>107.860001</ele>
<time>2024-04-17T09:37:31.052Z</time>
</trkpt>
<trkpt lat="31.4869700" lon="34.6338600">
<ele>108.080002</ele>
<time>2024-04-17T09:37:31.052Z</time>
</trkpt>
<trkpt lat="31.4870300" lon="34.6338700">
<ele>108.290001</ele>
<time>2024-04-17T09:37:31.052Z</time>
</trkpt>
<trkpt lat="31.4872200" lon="34.6338000">
<ele>108.669998</ele>
<time>2024-04-17T09:37:31.052Z</time>
</trkpt>
<trkpt lat="31.4873700" lon="34.6337700">
<ele>110.549995</ele>
<time>2024-04-17T09:37:31.052Z</time>
</trkpt>
<trkpt lat="31.4876000" lon="34.6338000">
<ele>111.970001</ele>
<time>2024-04-17T09:37:31.052Z</time>
</trkpt>
<trkpt lat="31.4878300" lon="34.6337000">
<ele>110.919998</ele>
<time>2024-04-17T09:37:31.052Z</time>
</trkpt>
<trkpt lat="31.4880800" lon="34.6336400">
<ele>105.489998</ele>
<time>2024-04-17T09:37:31.052Z</time>
</trkpt>
<trkpt lat="31.4882100" lon="34.6336300">
<ele>105.750000</ele>
<time>2024-04-17T09:37:31.052Z</time>
</trkpt>
<trkpt lat="31.4882100" lon="34.6336300">
<ele>105.750000</ele>
<time>2024-04-17T09:37:31.052Z</time>
</trkpt>
<trkpt lat="31.4884500" lon="34.6336000">
<ele>105.599998</ele>
<time>2024-04-17T09:37:31.052Z</time>
</trkpt>
<trkpt lat="31.4887400" lon="34.6335100">
<ele>104.820000</ele>
<time>2024-04-17T09:37:31.052Z</time>
</trkpt>
<trkpt lat="31.4888500" lon="34.6334600">
<ele>105.300003</ele>
<time>2024-04-17T09:37:31.052Z</time>
</trkpt>
<trkpt lat="31.4890300" lon="34.6333200">
<ele>107.180000</ele>
<time>2024-04-17T09:37:31.052Z</time>
</trkpt>
<trkpt lat="31.4891300" lon="34.6333000">
<ele>106.920006</ele>
<time>2024-04-17T09:37:31.052Z</time>
</trkpt>
<trkpt lat="31.4892600" lon="34.6333000">
<ele>106.180000</ele>
<time>2024-04-17T09:37:31.052Z</time>
</trkpt>
<trkpt lat="31.4894900" lon="34.6333600">
<ele>105.059998</ele>
<time>2024-04-17T09:37:31.052Z</time>
</trkpt>
<trkpt lat="31.4895200" lon="34.6333700">
<ele>105.059998</ele>
<time>2024-04-17T09:37:31.052Z</time>
</trkpt>
<trkpt lat="31.4896700" lon="34.6333600">
<ele>104.940002</ele>
<time>2024-04-17T09:37:31.052Z</time>
</trkpt>
<trkpt lat="31.4897400" lon="34.6333900">
<ele>104.959999</ele>
<time>2024-04-17T09:37:31.052Z</time>
</trkpt>
<trkpt lat="31.4898000" lon="34.6334400">
<ele>105.240005</ele>
<time>2024-04-17T09:37:31.052Z</time>
</trkpt>
<trkpt lat="31.4898500" lon="34.6335000">
<ele>105.229996</ele>
<time>2024-04-17T09:37:31.052Z</time>
</trkpt>
<trkpt lat="31.4901900" lon="34.6337500">
<ele>107.550003</ele>
<time>2024-04-17T09:37:31.052Z</time>
</trkpt>
<trkpt lat="31.4903500" lon="34.6338700">
<ele>107.969994</ele>
<time>2024-04-17T09:37:31.052Z</time>
</trkpt>
<trkpt lat="31.4904300" lon="34.6339500">
<ele>107.939995</ele>
<time>2024-04-17T09:37:31.052Z</time>
</trkpt>
<trkpt lat="31.4904300" lon="34.6339500">
<ele>107.939995</ele>
<time>2024-04-17T09:37:31.052Z</time>
</trkpt>
<trkpt lat="31.4904900" lon="34.6340900">
<ele>106.360001</ele>
<time>2024-04-17T09:37:31.052Z</time>
</trkpt>
<trkpt lat="31.4906700" lon="34.6344800">
<ele>99.940002</ele>
<time>2024-04-17T09:37:31.052Z</time>
</trkpt>
<trkpt lat="31.4906800" lon="34.6345800">
<ele>98.090004</ele>
<time>2024-04-17T09:37:31.052Z</time>
</trkpt>
<trkpt lat="31.4907000" lon="34.6347700">
<ele>95.149994</ele>
<time>2024-04-17T09:37:31.052Z</time>
</trkpt>
<trkpt lat="31.4907200" lon="34.6349500">
<ele>94.040001</ele>
<time>2024-04-17T09:37:31.052Z</time>
</trkpt>
<trkpt lat="31.4908000" lon="34.6350500">
<ele>94.130005</ele>
<time>2024-04-17T09:37:31.052Z</time>
</trkpt>
<trkpt lat="31.4909800" lon="34.6349000">
<ele>96.799995</ele>
<time>2024-04-17T09:37:31.052Z</time>
</trkpt>
<trkpt lat="31.4915600" lon="34.6345100">
<ele>103.110001</ele>
<time>2024-04-17T09:37:31.052Z</time>
</trkpt>
<trkpt lat="31.4918700" lon="34.6342500">
<ele>106.959999</ele>
<time>2024-04-17T09:37:31.052Z</time>
</trkpt>
<trkpt lat="31.4920900" lon="34.6340200">
<ele>108.470001</ele>
<time>2024-04-17T09:37:31.052Z</time>
</trkpt>
<trkpt lat="31.4922300" lon="34.6338300">
<ele>105.180000</ele>
<time>2024-04-17T09:37:31.052Z</time>
</trkpt>
<trkpt lat="31.4923900" lon="34.6336600">
<ele>98.380005</ele>
<time>2024-04-17T09:37:31.052Z</time>
</trkpt>
<trkpt lat="31.4924900" lon="34.6335700">
<ele>96.100006</ele>
<time>2024-04-17T09:37:31.052Z</time>
</trkpt>
<trkpt lat="31.4926100" lon="34.6334900">
<ele>94.399994</ele>
<time>2024-04-17T09:37:31.052Z</time>
</trkpt>
<trkpt lat="31.4928300" lon="34.6333900">
<ele>88.860001</ele>
<time>2024-04-17T09:37:31.052Z</time>
</trkpt>
<trkpt lat="31.4929600" lon="34.6333400">
<ele>86.779999</ele>
<time>2024-04-17T09:37:31.052Z</time>
</trkpt>
<trkpt lat="31.4930500" lon="34.6333100">
<ele>86.299995</ele>
<time>2024-04-17T09:37:31.052Z</time>
</trkpt>
<trkpt lat="31.4934700" lon="34.6333800">
<ele>92.820000</ele>
<time>2024-04-17T09:37:31.052Z</time>
</trkpt>
<trkpt lat="31.4934700" lon="34.6333800">
<ele>92.820000</ele>
<time>2024-04-17T09:37:31.052Z</time>
</trkpt>
<trkpt lat="31.4937900" lon="34.6334300">
<ele>95.520004</ele>
<time>2024-04-17T09:37:31.052Z</time>
</trkpt>
<trkpt lat="31.4942600" lon="34.6338000">
<ele>97.149994</ele>
<time>2024-04-17T09:37:31.052Z</time>
</trkpt>
<trkpt lat="31.4947100" lon="34.6342700">
<ele>99.639999</ele>
<time>2024-04-17T09:37:31.052Z</time>
</trkpt>
<trkpt lat="31.4951500" lon="34.6347400">
<ele>98.540001</ele>
<time>2024-04-17T09:37:31.052Z</time>
</trkpt>
<trkpt lat="31.4954200" lon="34.6352000">
<ele>100.789993</ele>
<time>2024-04-17T09:37:31.052Z</time>
</trkpt>
<trkpt lat="31.4956700" lon="34.6355300">
<ele>109.150002</ele>
<time>2024-04-17T09:37:31.052Z</time>
</trkpt>
<trkpt lat="31.4960100" lon="34.6356900">
<ele>105.979996</ele>
<time>2024-04-17T09:37:31.052Z</time>
</trkpt>
<trkpt lat="31.4964600" lon="34.6361200">
<ele>95.309998</ele>
<time>2024-04-17T09:37:31.052Z</time>
</trkpt>
<trkpt lat="31.4968900" lon="34.6363500">
<ele>83.429993</ele>
<time>2024-04-17T09:37:31.052Z</time>
</trkpt>
<trkpt lat="31.4973200" lon="34.6365700">
<ele>77.750000</ele>
<time>2024-04-17T09:37:31.052Z</time>
</trkpt>
<trkpt lat="31.4976700" lon="34.6366500">
<ele>83.549995</ele>
<time>2024-04-17T09:37:31.052Z</time>
</trkpt>
<trkpt lat="31.4976700" lon="34.6366500">
<ele>83.549995</ele>
<time>2024-04-17T09:37:31.052Z</time>
</trkpt>
<trkpt lat="31.4989700" lon="34.6369600">
<ele>101.800003</ele>
<time>2024-04-17T09:37:31.052Z</time>
</trkpt>
<trkpt lat="31.4993200" lon="34.6370400">
<ele>103.120003</ele>
<time>2024-04-17T09:37:31.052Z</time>
</trkpt>
<trkpt lat="31.4996200" lon="34.6371700">
<ele>97.830002</ele>
<time>2024-04-17T09:37:31.052Z</time>
</trkpt>
<trkpt lat="31.4999000" lon="34.6373500">
<ele>87.910004</ele>
<time>2024-04-17T09:37:31.052Z</time>
</trkpt>
<trkpt lat="31.5000200" lon="34.6374500">
<ele>87.829994</ele>
<time>2024-04-17T09:37:31.052Z</time>
</trkpt>
<trkpt lat="31.5002200" lon="34.6376900">
<ele>85.699997</ele>
<time>2024-04-17T09:37:31.052Z</time>
</trkpt>
<trkpt lat="31.5003300" lon="34.6379000">
<ele>87.680000</ele>
<time>2024-04-17T09:37:31.052Z</time>
</trkpt>
<trkpt lat="31.5007200" lon="34.6391800">
<ele>90.470001</ele>
<time>2024-04-17T09:37:31.052Z</time>
</trkpt>
<trkpt lat="31.5008500" lon="34.6394700">
<ele>89.369995</ele>
<time>2024-04-17T09:37:31.052Z</time>
</trkpt>
<trkpt lat="31.5011200" lon="34.6398700">
<ele>92.839996</ele>
<time>2024-04-17T09:37:31.052Z</time>
</trkpt>
<trkpt lat="31.5013000" lon="34.6400700">
<ele>89.290001</ele>
<time>2024-04-17T09:37:31.052Z</time>
</trkpt>
<trkpt lat="31.5014200" lon="34.6401700">
<ele>87.959999</ele>
<time>2024-04-17T09:37:31.052Z</time>
</trkpt>
<trkpt lat="31.5015500" lon="34.6402500">
<ele>88.299995</ele>
<time>2024-04-17T09:37:31.052Z</time>
</trkpt>
<trkpt lat="31.5017500" lon="34.6403300">
<ele>88.170006</ele>
<time>2024-04-17T09:37:31.052Z</time>
</trkpt>
<trkpt lat="31.5018200" lon="34.6403400">
<ele>88.129997</ele>
<time>2024-04-17T09:37:31.052Z</time>
</trkpt>
<trkpt lat="31.5018900" lon="34.6403000">
<ele>88.729996</ele>
<time>2024-04-17T09:37:31.052Z</time>
</trkpt>
<trkpt lat="31.5019500" lon="34.6404400">
<ele>87.209999</ele>
<time>2024-04-17T09:37:31.052Z</time>
</trkpt>
<trkpt lat="31.5020700" lon="34.6406000">
<ele>84.909996</ele>
<time>2024-04-17T09:37:31.052Z</time>
</trkpt>
<trkpt lat="31.5023700" lon="34.6409800">
<ele>80.500000</ele>
<time>2024-04-17T09:37:31.052Z</time>
</trkpt>
<trkpt lat="31.5024600" lon="34.6411200">
<ele>81.149994</ele>
<time>2024-04-17T09:37:31.052Z</time>
</trkpt>
<trkpt lat="31.5025100" lon="34.6412000">
<ele>82.599998</ele>
<time>2024-04-17T09:37:31.052Z</time>
</trkpt>
<trkpt lat="31.5025500" lon="34.6412500">
<ele>83.409996</ele>
<time>2024-04-17T09:37:31.052Z</time>
</trkpt>
<trkpt lat="31.5026700" lon="34.6414500">
<ele>85.569992</ele>
<time>2024-04-17T09:37:31.052Z</time>
</trkpt>
<trkpt lat="31.5028300" lon="34.6416400">
<ele>87.459999</ele>
<time>2024-04-17T09:37:31.052Z</time>
</trkpt>
<trkpt lat="31.5029400" lon="34.6417800">
<ele>88.159996</ele>
<time>2024-04-17T09:37:31.052Z</time>
</trkpt>
<trkpt lat="31.5030500" lon="34.6419000">
<ele>87.889999</ele>
<time>2024-04-17T09:37:31.052Z</time>
</trkpt>
<trkpt lat="31.5031400" lon="34.6420200">
<ele>85.419998</ele>
<time>2024-04-17T09:37:31.052Z</time>
</trkpt>
<trkpt lat="31.5032200" lon="34.6420800">
<ele>83.650002</ele>
<time>2024-04-17T09:37:31.052Z</time>
</trkpt>
<trkpt lat="31.5033100" lon="34.6422700">
<ele>82.120003</ele>
<time>2024-04-17T09:37:31.052Z</time>
</trkpt>
<trkpt lat="31.5033200" lon="34.6423900">
<ele>82.010002</ele>
<time>2024-04-17T09:37:31.052Z</time>
</trkpt>
<trkpt lat="31.5033500" lon="34.6426500">
<ele>83.000000</ele>
<time>2024-04-17T09:37:31.052Z</time>
</trkpt>
<trkpt lat="31.5033500" lon="34.6426500">
<ele>83.000000</ele>
<time>2024-04-17T09:37:31.052Z</time>
</trkpt>
<trkpt lat="31.5033600" lon="34.6426900">
<ele>83.279999</ele>
<time>2024-04-17T09:37:31.052Z</time>
</trkpt>
<trkpt lat="31.5033600" lon="34.6428900">
<ele>84.250000</ele>
<time>2024-04-17T09:37:31.052Z</time>
</trkpt>
<trkpt lat="31.5033900" lon="34.6427400">
<ele>83.639999</ele>
<time>2024-04-17T09:37:31.052Z</time>
</trkpt>
<trkpt lat="31.5036200" lon="34.6424600">
<ele>79.030006</ele>
<time>2024-04-17T09:37:31.052Z</time>
</trkpt>
<trkpt lat="31.5037600" lon="34.6423200">
<ele>79.540001</ele>
<time>2024-04-17T09:37:31.052Z</time>
</trkpt>
<trkpt lat="31.5038800" lon="34.6421600">
<ele>80.180000</ele>
<time>2024-04-17T09:37:31.052Z</time>
</trkpt>
<trkpt lat="31.5040500" lon="34.6419100">
<ele>83.809998</ele>
<time>2024-04-17T09:37:31.052Z</time>
</trkpt>
<trkpt lat="31.5043500" lon="34.6415300">
<ele>83.680000</ele>
<time>2024-04-17T09:37:31.052Z</time>
</trkpt>
<trkpt lat="31.5043900" lon="34.6415000">
<ele>83.519997</ele>
<time>2024-04-17T09:37:31.052Z</time>
</trkpt>
<trkpt lat="31.5045000" lon="34.6414000">
<ele>82.449997</ele>
<time>2024-04-17T09:37:31.052Z</time>
</trkpt>
<trkpt lat="31.5047800" lon="34.6411000">
<ele>84.339996</ele>
<time>2024-04-17T09:37:31.052Z</time>
</trkpt>
<trkpt lat="31.5047800" lon="34.6411000">
<ele>84.339996</ele>
<time>2024-04-17T09:37:31.052Z</time>
</trkpt>
<trkpt lat="31.5048500" lon="34.6410300">
<ele>82.449997</ele>
<time>2024-04-17T09:37:31.052Z</time>
</trkpt>
<trkpt lat="31.5051600" lon="34.6406800">
<ele>80.639999</ele>
<time>2024-04-17T09:37:31.052Z</time>
</trkpt>
<trkpt lat="31.5055500" lon="34.6403800">
<ele>81.950005</ele>
<time>2024-04-17T09:37:31.052Z</time>
</trkpt>
<trkpt lat="31.5060400" lon="34.6400100">
<ele>82.180000</ele>
<time>2024-04-17T09:37:31.052Z</time>
</trkpt>
<trkpt lat="31.5061200" lon="34.6400800">
<ele>81.720001</ele>
<time>2024-04-17T09:37:31.052Z</time>
</trkpt>
<trkpt lat="31.5062300" lon="34.6402900">
<ele>78.650002</ele>
<time>2024-04-17T09:37:31.052Z</time>
</trkpt>
<trkpt lat="31.5063500" lon="34.6404900">
<ele>78.459999</ele>
<time>2024-04-17T09:37:31.052Z</time>
</trkpt>
<trkpt lat="31.5064900" lon="34.6406900">
<ele>79.459999</ele>
<time>2024-04-17T09:37:31.052Z</time>
</trkpt>
<trkpt lat="31.5066600" lon="34.6409000">
<ele>81.699997</ele>
<time>2024-04-17T09:37:31.052Z</time>
</trkpt>
<trkpt lat="31.5067700" lon="34.6410400">
<ele>84.099998</ele>
<time>2024-04-17T09:37:31.052Z</time>
</trkpt>
<trkpt lat="31.5069200" lon="34.6412500">
<ele>84.939995</ele>
<time>2024-04-17T09:37:31.052Z</time>
</trkpt>
<trkpt lat="31.5069900" lon="34.6413500">
<ele>85.859993</ele>
<time>2024-04-17T09:37:31.052Z</time>
</trkpt>
<trkpt lat="31.5070500" lon="34.6414700">
<ele>87.450005</ele>
<time>2024-04-17T09:37:31.052Z</time>
</trkpt>
<trkpt lat="31.5070900" lon="34.6415900">
<ele>88.879997</ele>
<time>2024-04-17T09:37:31.052Z</time>
</trkpt>
<trkpt lat="31.5071200" lon="34.6417100">
<ele>88.980003</ele>
<time>2024-04-17T09:37:31.052Z</time>
</trkpt>
<trkpt lat="31.5071500" lon="34.6418400">
<ele>86.340004</ele>
<time>2024-04-17T09:37:31.052Z</time>
</trkpt>
<trkpt lat="31.5071600" lon="34.6419400">
<ele>84.099998</ele>
<time>2024-04-17T09:37:31.052Z</time>
</trkpt>
<trkpt lat="31.5071600" lon="34.6419800">
<ele>84.410004</ele>
<time>2024-04-17T09:37:31.052Z</time>
</trkpt>
<trkpt lat="31.5071700" lon="34.6422900">
<ele>89.139999</ele>
<time>2024-04-17T09:37:31.052Z</time>
</trkpt>
<trkpt lat="31.5077800" lon="34.6422800">
<ele>93.799995</ele>
<time>2024-04-17T09:37:31.052Z</time>
</trkpt>
<trkpt lat="31.5083100" lon="34.6422600">
<ele>97.180000</ele>
<time>2024-04-17T09:37:31.052Z</time>
</trkpt>
<trkpt lat="31.5088500" lon="34.6422500">
<ele>99.080002</ele>
<time>2024-04-17T09:37:31.052Z</time>
</trkpt>
<trkpt lat="31.5091300" lon="34.6422400">
<ele>99.239998</ele>
<time>2024-04-17T09:37:31.052Z</time>
</trkpt>
<trkpt lat="31.5091800" lon="34.6422500">
<ele>99.010002</ele>
<time>2024-04-17T09:37:31.052Z</time>
</trkpt>
<trkpt lat="31.5092300" lon="34.6422700">
<ele>98.470001</ele>
<time>2024-04-17T09:37:31.052Z</time>
</trkpt>
<trkpt lat="31.5092900" lon="34.6423100">
<ele>98.000000</ele>
<time>2024-04-17T09:37:31.052Z</time>
</trkpt>
<trkpt lat="31.5092900" lon="34.6423400">
<ele>98.260002</ele>
<time>2024-04-17T09:37:31.052Z</time>
</trkpt>
<trkpt lat="31.5093200" lon="34.6423700">
<ele>98.150002</ele>
<time>2024-04-17T09:37:31.052Z</time>
</trkpt>
<trkpt lat="31.5093400" lon="34.6424400">
<ele>98.560005</ele>
<time>2024-04-17T09:37:31.052Z</time>
</trkpt>
<trkpt lat="31.5093500" lon="34.6425100">
<ele>99.040001</ele>
<time>2024-04-17T09:37:31.052Z</time>
</trkpt>
<trkpt lat="31.5093600" lon="34.6425600">
<ele>99.059998</ele>
<time>2024-04-17T09:37:31.052Z</time>
</trkpt>
<trkpt lat="31.5093600" lon="34.6426500">
<ele>99.290001</ele>
<time>2024-04-17T09:37:31.052Z</time>
</trkpt>
<trkpt lat="31.5093700" lon="34.6426000">
<ele>99.070000</ele>
<time>2024-04-17T09:37:31.052Z</time>
</trkpt>
<trkpt lat="31.5093700" lon="34.6426000">
<ele>99.070000</ele>
<time>2024-04-17T09:37:31.052Z</time>
</trkpt>
<trkpt lat="31.5093700" lon="34.6426000">
<ele>99.070000</ele>
<time>2024-04-17T09:37:31.052Z</time>
</trkpt>
<trkpt lat="31.5093900" lon="34.6425400">
<ele>98.700005</ele>
<time>2024-04-17T09:37:31.052Z</time>
</trkpt>
<trkpt lat="31.5094200" lon="34.6424900">
<ele>98.159996</ele>
<time>2024-04-17T09:37:31.052Z</time>
</trkpt>
<trkpt lat="31.5094500" lon="34.6424400">
<ele>97.360001</ele>
<time>2024-04-17T09:37:31.052Z</time>
</trkpt>
<trkpt lat="31.5094900" lon="34.6423900">
<ele>97.010002</ele>
<time>2024-04-17T09:37:31.052Z</time>
</trkpt>
<trkpt lat="31.5095200" lon="34.6423500">
<ele>96.820000</ele>
<time>2024-04-17T09:37:31.052Z</time>
</trkpt>
<trkpt lat="31.5095400" lon="34.6423000">
<ele>96.580002</ele>
<time>2024-04-17T09:37:31.052Z</time>
</trkpt>
<trkpt lat="31.5095500" lon="34.6422500">
<ele>96.330002</ele>
<time>2024-04-17T09:37:31.052Z</time>
</trkpt>
<trkpt lat="31.5095400" lon="34.6421900">
<ele>95.919998</ele>
<time>2024-04-17T09:37:31.052Z</time>
</trkpt>
<trkpt lat="31.5095100" lon="34.6421400">
<ele>95.409996</ele>
<time>2024-04-17T09:37:31.052Z</time>
</trkpt>
<trkpt lat="31.5094800" lon="34.6421100">
<ele>94.979996</ele>
<time>2024-04-17T09:37:31.052Z</time>
</trkpt>
<trkpt lat="31.5094300" lon="34.6420900">
<ele>94.680000</ele>
<time>2024-04-17T09:37:31.052Z</time>
</trkpt>
<trkpt lat="31.5093900" lon="34.6420900">
<ele>95.119995</ele>
<time>2024-04-17T09:37:31.052Z</time>
</trkpt>
<trkpt lat="31.5093400" lon="34.6421100">
<ele>95.800003</ele>
<time>2024-04-17T09:37:31.052Z</time>
</trkpt>
<trkpt lat="31.5093100" lon="34.6421500">
<ele>96.420006</ele>
<time>2024-04-17T09:37:31.052Z</time>
</trkpt>
<trkpt lat="31.5092800" lon="34.6422000">
<ele>97.190002</ele>
<time>2024-04-17T09:37:31.052Z</time>
</trkpt>
<trkpt lat="31.5092700" lon="34.6422400">
<ele>97.660004</ele>
<time>2024-04-17T09:37:31.052Z</time>
</trkpt>
<trkpt lat="31.5092800" lon="34.6422900">
<ele>97.959999</ele>
<time>2024-04-17T09:37:31.052Z</time>
</trkpt>
<trkpt lat="31.5092900" lon="34.6423100">
<ele>98.000000</ele>
<time>2024-04-17T09:37:31.052Z</time>
</trkpt>
<trkpt lat="31.5092900" lon="34.6423400">
<ele>98.260002</ele>
<time>2024-04-17T09:37:31.052Z</time>
</trkpt>
<trkpt lat="31.5093200" lon="34.6423700">
<ele>98.150002</ele>
<time>2024-04-17T09:37:31.052Z</time>
</trkpt>
<trkpt lat="31.5093400" lon="34.6424400">
<ele>98.560005</ele>
<time>2024-04-17T09:37:31.052Z</time>
</trkpt>
<trkpt lat="31.5093500" lon="34.6425100">
<ele>99.040001</ele>
<time>2024-04-17T09:37:31.052Z</time>
</trkpt>
<trkpt lat="31.5093600" lon="34.6425600">
<ele>99.059998</ele>
<time>2024-04-17T09:37:31.052Z</time>
</trkpt>
<trkpt lat="31.5093600" lon="34.6426500">
<ele>99.290001</ele>
<time>2024-04-17T09:37:31.052Z</time>
</trkpt>
<trkpt lat="31.5093500" lon="34.6426900">
<ele>99.470001</ele>
<time>2024-04-17T09:37:31.052Z</time>
</trkpt>
<trkpt lat="31.5093100" lon="34.6427800">
<ele>99.959999</ele>
<time>2024-04-17T09:37:31.052Z</time>
</trkpt>
<trkpt lat="31.5093000" lon="34.6428100">
<ele>99.980003</ele>
<time>2024-04-17T09:37:31.052Z</time>
</trkpt>
<trkpt lat="31.5092700" lon="34.6428900">
<ele>99.900002</ele>
<time>2024-04-17T09:37:31.052Z</time>
</trkpt>
<trkpt lat="31.5087400" lon="34.6441100">
<ele>101.360001</ele>
<time>2024-04-17T09:37:31.052Z</time>
</trkpt>
<trkpt lat="31.5086400" lon="34.6443300">
<ele>104.289993</ele>
<time>2024-04-17T09:37:31.052Z</time>
</trkpt>
<trkpt lat="31.5085800" lon="34.6444700">
<ele>105.860001</ele>
<time>2024-04-17T09:37:31.052Z</time>
</trkpt>
<trkpt lat="31.5085600" lon="34.6445500">
<ele>105.940002</ele>
<time>2024-04-17T09:37:31.052Z</time>
</trkpt>
<trkpt lat="31.5085500" lon="34.6446500">
<ele>106.139999</ele>
<time>2024-04-17T09:37:31.052Z</time>
</trkpt>
<trkpt lat="31.5085600" lon="34.6447300">
<ele>106.460007</ele>
<time>2024-04-17T09:37:31.052Z</time>
</trkpt>
<trkpt lat="31.5086000" lon="34.6452200">
<ele>107.980003</ele>
<time>2024-04-17T09:37:31.052Z</time>
</trkpt>
<trkpt lat="31.5085800" lon="34.6452200">
<ele>108.320000</ele>
<time>2024-04-17T09:37:31.052Z</time>
</trkpt>
<trkpt lat="31.5085500" lon="34.6452400">
<ele>109.000000</ele>
<time>2024-04-17T09:37:31.052Z</time>
</trkpt>
<trkpt lat="31.5085300" lon="34.6452600">
<ele>109.580002</ele>
<time>2024-04-17T09:37:31.052Z</time>
</trkpt>
<trkpt lat="31.5085200" lon="34.6453000">
<ele>109.970001</ele>
<time>2024-04-17T09:37:31.052Z</time>
</trkpt>
<trkpt lat="31.5085100" lon="34.6453600">
<ele>110.160004</ele>
<time>2024-04-17T09:37:31.052Z</time>
</trkpt>
<trkpt lat="31.5085400" lon="34.6455100">
<ele>109.730003</ele>
<time>2024-04-17T09:37:31.052Z</time>
</trkpt>
<trkpt lat="31.5085500" lon="34.6455500">
<ele>109.649994</ele>
<time>2024-04-17T09:37:31.052Z</time>
</trkpt>
<trkpt lat="31.5085600" lon="34.6455600">
<ele>109.510002</ele>
<time>2024-04-17T09:37:31.052Z</time>
</trkpt>
<trkpt lat="31.5085700" lon="34.6455700">
<ele>109.320000</ele>
<time>2024-04-17T09:37:31.052Z</time>
</trkpt>
<trkpt lat="31.5085900" lon="34.6455900">
<ele>108.950005</ele>
<time>2024-04-17T09:37:31.052Z</time>
</trkpt>
<trkpt lat="31.5086300" lon="34.6456000">
<ele>108.489998</ele>
<time>2024-04-17T09:37:31.052Z</time>
</trkpt>
<trkpt lat="31.5086600" lon="34.6456000">
<ele>108.180000</ele>
<time>2024-04-17T09:37:31.052Z</time>
</trkpt>
<trkpt lat="31.5086900" lon="34.6455800">
<ele>108.000000</ele>
<time>2024-04-17T09:37:31.052Z</time>
</trkpt>
<trkpt lat="31.5087100" lon="34.6455600">
<ele>107.909996</ele>
<time>2024-04-17T09:37:31.052Z</time>
</trkpt>
<trkpt lat="31.5087400" lon="34.6456600">
<ele>107.029999</ele>
<time>2024-04-17T09:37:31.052Z</time>
</trkpt>
<trkpt lat="31.5087500" lon="34.6457100">
<ele>106.669998</ele>
<time>2024-04-17T09:37:31.052Z</time>
</trkpt>
<trkpt lat="31.5088000" lon="34.6461600">
<ele>102.670006</ele>
<time>2024-04-17T09:37:31.052Z</time>
</trkpt>
<trkpt lat="31.5088200" lon="34.6464200">
<ele>98.570000</ele>
<time>2024-04-17T09:37:31.052Z</time>
</trkpt>
<trkpt lat="31.5088300" lon="34.6466300">
<ele>93.849998</ele>
<time>2024-04-17T09:37:31.052Z</time>
</trkpt>
<trkpt lat="31.5088200" lon="34.6468200">
<ele>91.860001</ele>
<time>2024-04-17T09:37:31.052Z</time>
</trkpt>
<trkpt lat="31.5088100" lon="34.6470500">
<ele>90.639999</ele>
<time>2024-04-17T09:37:31.052Z</time>
</trkpt>
<trkpt lat="31.5088000" lon="34.6472500">
<ele>90.080002</ele>
<time>2024-04-17T09:37:31.052Z</time>
</trkpt>
<trkpt lat="31.5087500" lon="34.6479100">
<ele>82.860001</ele>
<time>2024-04-17T09:37:31.052Z</time>
</trkpt>
<trkpt lat="31.5088800" lon="34.6479300">
<ele>81.759995</ele>
<time>2024-04-17T09:37:31.052Z</time>
</trkpt>
<trkpt lat="31.5090800" lon="34.6479700">
<ele>81.540001</ele>
<time>2024-04-17T09:37:31.052Z</time>
</trkpt>
<trkpt lat="31.5092700" lon="34.6480100">
<ele>82.419998</ele>
<time>2024-04-17T09:37:31.052Z</time>
</trkpt>
<trkpt lat="31.5099500" lon="34.6481600">
<ele>84.099998</ele>
<time>2024-04-17T09:37:31.052Z</time>
</trkpt>
<trkpt lat="31.5099500" lon="34.6481500">
<ele>84.320000</ele>
<time>2024-04-17T09:37:31.052Z</time>
</trkpt>
<trkpt lat="31.5101300" lon="34.6481900">
<ele>81.889999</ele>
<time>2024-04-17T09:37:31.052Z</time>
</trkpt>
<trkpt lat="31.5100400" lon="34.6482700">
<ele>81.200005</ele>
<time>2024-04-17T09:37:31.052Z</time>
</trkpt>
<trkpt lat="31.5099700" lon="34.6484100">
<ele>79.269997</ele>
<time>2024-04-17T09:37:31.052Z</time>
</trkpt>
<trkpt lat="31.5099200" lon="34.6484100">
<ele>79.430000</ele>
<time>2024-04-17T09:37:31.052Z</time>
</trkpt>
<trkpt lat="31.5096900" lon="34.6483900">
<ele>80.650002</ele>
<time>2024-04-17T09:37:31.052Z</time>
</trkpt>
<trkpt lat="31.5095500" lon="34.6483800">
<ele>81.040001</ele>
<time>2024-04-17T09:37:31.052Z</time>
</trkpt>
<trkpt lat="31.5091200" lon="34.6483400">
<ele>78.139999</ele>
<time>2024-04-17T09:37:31.052Z</time>
</trkpt>
<trkpt lat="31.5088300" lon="34.6485500">
<ele>85.169998</ele>
<time>2024-04-17T09:37:31.052Z</time>
</trkpt>
<trkpt lat="31.5087400" lon="34.6486500">
<ele>84.909996</ele>
<time>2024-04-17T09:37:31.052Z</time>
</trkpt>
<trkpt lat="31.5086800" lon="34.6488600">
<ele>82.120003</ele>
<time>2024-04-17T09:37:31.052Z</time>
</trkpt>
<trkpt lat="31.5086000" lon="34.6490800">
<ele>81.849998</ele>
<time>2024-04-17T09:37:31.052Z</time>
</trkpt>
<trkpt lat="31.5085600" lon="34.6492300">
<ele>81.349998</ele>
<time>2024-04-17T09:37:31.052Z</time>
</trkpt>
<trkpt lat="31.5085800" lon="34.6495000">
<ele>83.370003</ele>
<time>2024-04-17T09:37:31.052Z</time>
</trkpt>
<trkpt lat="31.5086100" lon="34.6497800">
<ele>87.820000</ele>
<time>2024-04-17T09:37:31.052Z</time>
</trkpt>
<trkpt lat="31.5085700" lon="34.6501700">
<ele>90.599998</ele>
<time>2024-04-17T09:37:31.052Z</time>
</trkpt>
<trkpt lat="31.5077100" lon="34.6509800">
<ele>85.639999</ele>
<time>2024-04-17T09:37:31.052Z</time>
</trkpt>
<trkpt lat="31.5075000" lon="34.6510000">
<ele>86.000000</ele>
<time>2024-04-17T09:37:31.052Z</time>
</trkpt>
<trkpt lat="31.5071900" lon="34.6508500">
<ele>84.709999</ele>
<time>2024-04-17T09:37:31.052Z</time>
</trkpt>
<trkpt lat="31.5069800" lon="34.6508500">
<ele>82.440002</ele>
<time>2024-04-17T09:37:31.052Z</time>
</trkpt>
<trkpt lat="31.5068800" lon="34.6508300">
<ele>82.930000</ele>
<time>2024-04-17T09:37:31.052Z</time>
</trkpt>
<trkpt lat="31.5066800" lon="34.6507800">
<ele>86.350006</ele>
<time>2024-04-17T09:37:31.052Z</time>
</trkpt>
<trkpt lat="31.5063400" lon="34.6508400">
<ele>92.050003</ele>
<time>2024-04-17T09:37:31.052Z</time>
</trkpt>
<trkpt lat="31.5059000" lon="34.6507800">
<ele>85.559998</ele>
<time>2024-04-17T09:37:31.052Z</time>
</trkpt>
<trkpt lat="31.5056000" lon="34.6506700">
<ele>88.269997</ele>
<time>2024-04-17T09:37:31.052Z</time>
</trkpt>
<trkpt lat="31.5056000" lon="34.6506700">
<ele>88.269997</ele>
<time>2024-04-17T09:37:31.052Z</time>
</trkpt>
<trkpt lat="31.5053400" lon="34.6505700">
<ele>90.419998</ele>
<time>2024-04-17T09:37:31.052Z</time>
</trkpt>
<trkpt lat="31.5052100" lon="34.6504000">
<ele>90.790001</ele>
<time>2024-04-17T09:37:31.052Z</time>
</trkpt>
<trkpt lat="31.5052100" lon="34.6502600">
<ele>90.920006</ele>
<time>2024-04-17T09:37:31.052Z</time>
</trkpt>
<trkpt lat="31.5052500" lon="34.6501300">
<ele>90.099998</ele>
<time>2024-04-17T09:37:31.052Z</time>
</trkpt>
<trkpt lat="31.5050700" lon="34.6500800">
<ele>91.169998</ele>
<time>2024-04-17T09:37:31.052Z</time>
</trkpt>
<trkpt lat="31.5048400" lon="34.6501100">
<ele>88.500000</ele>
<time>2024-04-17T09:37:31.052Z</time>
</trkpt>
<trkpt lat="31.5047100" lon="34.6501300">
<ele>86.110001</ele>
<time>2024-04-17T09:37:31.052Z</time>
</trkpt>
<trkpt lat="31.5046000" lon="34.6501000">
<ele>86.720001</ele>
<time>2024-04-17T09:37:31.052Z</time>
</trkpt>
<trkpt lat="31.5044100" lon="34.6500500">
<ele>88.030006</ele>
<time>2024-04-17T09:37:31.052Z</time>
</trkpt>
<trkpt lat="31.5041900" lon="34.6502600">
<ele>89.730003</ele>
<time>2024-04-17T09:37:31.052Z</time>
</trkpt>
<trkpt lat="31.5040400" lon="34.6503000">
<ele>91.320000</ele>
<time>2024-04-17T09:37:31.052Z</time>
</trkpt>
<trkpt lat="31.5039400" lon="34.6502900">
<ele>92.910004</ele>
<time>2024-04-17T09:37:31.052Z</time>
</trkpt>
<trkpt lat="31.5038000" lon="34.6502800">
<ele>94.890007</ele>
<time>2024-04-17T09:37:31.052Z</time>
</trkpt>
<trkpt lat="31.5034300" lon="34.6505500">
<ele>89.410004</ele>
<time>2024-04-17T09:37:31.052Z</time>
</trkpt>
<trkpt lat="31.5032100" lon="34.6506700">
<ele>88.879997</ele>
<time>2024-04-17T09:37:31.052Z</time>
</trkpt>
<trkpt lat="31.5029500" lon="34.6507800">
<ele>87.829994</ele>
<time>2024-04-17T09:37:31.052Z</time>
</trkpt>
<trkpt lat="31.5026700" lon="34.6507800">
<ele>92.180000</ele>
<time>2024-04-17T09:37:31.052Z</time>
</trkpt>
<trkpt lat="31.5024300" lon="34.6508400">
<ele>91.459999</ele>
<time>2024-04-17T09:37:31.052Z</time>
</trkpt>
<trkpt lat="31.5022200" lon="34.6510100">
<ele>91.730003</ele>
<time>2024-04-17T09:37:31.052Z</time>
</trkpt>
<trkpt lat="31.5021000" lon="34.6512300">
<ele>90.760002</ele>
<time>2024-04-17T09:37:31.052Z</time>
</trkpt>
<trkpt lat="31.5020300" lon="34.6515600">
<ele>91.919998</ele>
<time>2024-04-17T09:37:31.052Z</time>
</trkpt>
<trkpt lat="31.5020100" lon="34.6518300">
<ele>92.310005</ele>
<time>2024-04-17T09:37:31.052Z</time>
</trkpt>
<trkpt lat="31.5020600" lon="34.6520100">
<ele>92.099998</ele>
<time>2024-04-17T09:37:31.052Z</time>
</trkpt>
<trkpt lat="31.5021600" lon="34.6521000">
<ele>92.429993</ele>
<time>2024-04-17T09:37:31.052Z</time>
</trkpt>
<trkpt lat="31.5022200" lon="34.6522500">
<ele>93.090004</ele>
<time>2024-04-17T09:37:31.052Z</time>
</trkpt>
<trkpt lat="31.5023800" lon="34.6526400">
<ele>97.149994</ele>
<time>2024-04-17T09:37:31.052Z</time>
</trkpt>
<trkpt lat="31.5025200" lon="34.6529400">
<ele>99.080002</ele>
<time>2024-04-17T09:37:31.052Z</time>
</trkpt>
<trkpt lat="31.5027100" lon="34.6531900">
<ele>98.930000</ele>
<time>2024-04-17T09:37:31.052Z</time>
</trkpt>
<trkpt lat="31.5029500" lon="34.6533000">
<ele>95.550003</ele>
<time>2024-04-17T09:37:31.052Z</time>
</trkpt>
<trkpt lat="31.5032700" lon="34.6533700">
<ele>89.919998</ele>
<time>2024-04-17T09:37:31.052Z</time>
</trkpt>
<trkpt lat="31.5034100" lon="34.6534200">
<ele>88.119995</ele>
<time>2024-04-17T09:37:31.052Z</time>
</trkpt>
<trkpt lat="31.5035300" lon="34.6534500">
<ele>87.349998</ele>
<time>2024-04-17T09:37:31.052Z</time>
</trkpt>
<trkpt lat="31.5035500" lon="34.6535000">
<ele>87.459999</ele>
<time>2024-04-17T09:37:31.052Z</time>
</trkpt>
<trkpt lat="31.5037400" lon="34.6535400">
<ele>87.949997</ele>
<time>2024-04-17T09:37:31.052Z</time>
</trkpt>
<trkpt lat="31.5037900" lon="34.6536100">
<ele>88.640007</ele>
<time>2024-04-17T09:37:31.052Z</time>
</trkpt>
<trkpt lat="31.5038100" lon="34.6536900">
<ele>89.359993</ele>
<time>2024-04-17T09:37:31.052Z</time>
</trkpt>
<trkpt lat="31.5038100" lon="34.6538100">
<ele>90.349998</ele>
<time>2024-04-17T09:37:31.052Z</time>
</trkpt>
<trkpt lat="31.5038300" lon="34.6540300">
<ele>91.799995</ele>
<time>2024-04-17T09:37:31.052Z</time>
</trkpt>
<trkpt lat="31.5038200" lon="34.6541900">
<ele>92.519997</ele>
<time>2024-04-17T09:37:31.052Z</time>
</trkpt>
<trkpt lat="31.5038200" lon="34.6541900">
<ele>92.519997</ele>
<time>2024-04-17T09:37:31.052Z</time>
</trkpt>
<trkpt lat="31.5038200" lon="34.6543400">
<ele>92.660004</ele>
<time>2024-04-17T09:37:31.052Z</time>
</trkpt>
<trkpt lat="31.5037900" lon="34.6547600">
<ele>94.420006</ele>
<time>2024-04-17T09:37:31.052Z</time>
</trkpt>
<trkpt lat="31.5038400" lon="34.6549600">
<ele>96.160004</ele>
<time>2024-04-17T09:37:31.052Z</time>
</trkpt>
<trkpt lat="31.5039900" lon="34.6552000">
<ele>94.650002</ele>
<time>2024-04-17T09:37:31.052Z</time>
</trkpt>
<trkpt lat="31.5040300" lon="34.6556300">
<ele>92.849998</ele>
<time>2024-04-17T09:37:31.052Z</time>
</trkpt>
<trkpt lat="31.5041100" lon="34.6559600">
<ele>93.290001</ele>
<time>2024-04-17T09:37:31.052Z</time>
</trkpt>
<trkpt lat="31.5041800" lon="34.6562700">
<ele>98.720001</ele>
<time>2024-04-17T09:37:31.052Z</time>
</trkpt>
<trkpt lat="31.5042000" lon="34.6565800">
<ele>100.070000</ele>
<time>2024-04-17T09:37:31.052Z</time>
</trkpt>
<trkpt lat="31.5041000" lon="34.6569900">
<ele>98.519997</ele>
<time>2024-04-17T09:37:31.052Z</time>
</trkpt>
<trkpt lat="31.5039300" lon="34.6570000">
<ele>97.299995</ele>
<time>2024-04-17T09:37:31.052Z</time>
</trkpt>
<trkpt lat="31.5037600" lon="34.6571300">
<ele>95.609993</ele>
<time>2024-04-17T09:37:31.052Z</time>
</trkpt>
<trkpt lat="31.5035900" lon="34.6575800">
<ele>94.699997</ele>
<time>2024-04-17T09:37:31.052Z</time>
</trkpt>
<trkpt lat="31.5035100" lon="34.6579300">
<ele>97.239998</ele>
<time>2024-04-17T09:37:31.052Z</time>
</trkpt>
<trkpt lat="31.5034800" lon="34.6582300">
<ele>97.800003</ele>
<time>2024-04-17T09:37:31.052Z</time>
</trkpt>
<trkpt lat="31.5035400" lon="34.6584400">
<ele>98.669998</ele>
<time>2024-04-17T09:37:31.052Z</time>
</trkpt>
<trkpt lat="31.5035800" lon="34.6588300">
<ele>99.889999</ele>
<time>2024-04-17T09:37:31.052Z</time>
</trkpt>
<trkpt lat="31.5036600" lon="34.6592700">
<ele>99.970001</ele>
<time>2024-04-17T09:37:31.052Z</time>
</trkpt>
<trkpt lat="31.5037100" lon="34.6598200">
<ele>104.110001</ele>
<time>2024-04-17T09:37:31.052Z</time>
</trkpt>
<trkpt lat="31.5036900" lon="34.6605300">
<ele>103.529999</ele>
<time>2024-04-17T09:37:31.052Z</time>
</trkpt>
<trkpt lat="31.5037700" lon="34.6608300">
<ele>104.980003</ele>
<time>2024-04-17T09:37:31.052Z</time>
</trkpt>
<trkpt lat="31.5038300" lon="34.6610700">
<ele>101.949997</ele>
<time>2024-04-17T09:37:31.052Z</time>
</trkpt>
<trkpt lat="31.5039400" lon="34.6612800">
<ele>100.139999</ele>
<time>2024-04-17T09:37:31.052Z</time>
</trkpt>
<trkpt lat="31.5040300" lon="34.6618100">
<ele>96.459999</ele>
<time>2024-04-17T09:37:31.052Z</time>
</trkpt>
<trkpt lat="31.5038000" lon="34.6622000">
<ele>94.590004</ele>
<time>2024-04-17T09:37:31.052Z</time>
</trkpt>
<trkpt lat="31.5034400" lon="34.6628100">
<ele>98.610001</ele>
<time>2024-04-17T09:37:31.052Z</time>
</trkpt>
<trkpt lat="31.5032900" lon="34.6629700">
<ele>97.149994</ele>
<time>2024-04-17T09:37:31.052Z</time>
</trkpt>
<trkpt lat="31.5031300" lon="34.6634400">
<ele>95.690002</ele>
<time>2024-04-17T09:37:31.052Z</time>
</trkpt>
<trkpt lat="31.5029300" lon="34.6637200">
<ele>96.320000</ele>
<time>2024-04-17T09:37:31.052Z</time>
</trkpt>
<trkpt lat="31.5026800" lon="34.6638500">
<ele>100.889999</ele>
<time>2024-04-17T09:37:31.052Z</time>
</trkpt>
<trkpt lat="31.5024400" lon="34.6637800">
<ele>101.610001</ele>
<time>2024-04-17T09:37:31.052Z</time>
</trkpt>
<trkpt lat="31.5019600" lon="34.6636300">
<ele>100.860001</ele>
<time>2024-04-17T09:37:31.052Z</time>
</trkpt>
<trkpt lat="31.5015300" lon="34.6637400">
<ele>99.029999</ele>
<time>2024-04-17T09:37:31.052Z</time>
</trkpt>
<trkpt lat="31.5013700" lon="34.6643200">
<ele>102.889999</ele>
<time>2024-04-17T09:37:31.052Z</time>
</trkpt>
<trkpt lat="31.5011300" lon="34.6647300">
<ele>101.250000</ele>
<time>2024-04-17T09:37:31.052Z</time>
</trkpt>
<trkpt lat="31.5007100" lon="34.6649100">
<ele>96.500000</ele>
<time>2024-04-17T09:37:31.052Z</time>
</trkpt>
<trkpt lat="31.5004200" lon="34.6650800">
<ele>95.759995</ele>
<time>2024-04-17T09:37:31.052Z</time>
</trkpt>
<trkpt lat="31.5004200" lon="34.6650800">
<ele>95.759995</ele>
<time>2024-04-17T09:37:31.052Z</time>
</trkpt>
<trkpt lat="31.5003700" lon="34.6651000">
<ele>95.950005</ele>
<time>2024-04-17T09:37:31.052Z</time>
</trkpt>
<trkpt lat="31.5000100" lon="34.6652800">
<ele>100.830002</ele>
<time>2024-04-17T09:37:31.052Z</time>
</trkpt>
<trkpt lat="31.4995800" lon="34.6656400">
<ele>103.330002</ele>
<time>2024-04-17T09:37:31.052Z</time>
</trkpt>
<trkpt lat="31.4992000" lon="34.6659900">
<ele>101.750000</ele>
<time>2024-04-17T09:37:31.052Z</time>
</trkpt>
<trkpt lat="31.4990100" lon="34.6662800">
<ele>103.720001</ele>
<time>2024-04-17T09:37:31.052Z</time>
</trkpt>
<trkpt lat="31.4989400" lon="34.6665700">
<ele>107.199997</ele>
<time>2024-04-17T09:37:31.052Z</time>
</trkpt>
<trkpt lat="31.4987300" lon="34.6668400">
<ele>107.880005</ele>
<time>2024-04-17T09:37:31.052Z</time>
</trkpt>
<trkpt lat="31.4985100" lon="34.6673700">
<ele>101.130005</ele>
<time>2024-04-17T09:37:31.052Z</time>
</trkpt>
<trkpt lat="31.4983200" lon="34.6676100">
<ele>102.619995</ele>
<time>2024-04-17T09:37:31.052Z</time>
</trkpt>
<trkpt lat="31.4980500" lon="34.6679500">
<ele>107.430000</ele>
<time>2024-04-17T09:37:31.052Z</time>
</trkpt>
<trkpt lat="31.4977000" lon="34.6686700">
<ele>109.099998</ele>
<time>2024-04-17T09:37:31.052Z</time>
</trkpt>
<trkpt lat="31.4974100" lon="34.6691800">
<ele>108.900002</ele>
<time>2024-04-17T09:37:31.052Z</time>
</trkpt>
<trkpt lat="31.4970700" lon="34.6696700">
<ele>103.029999</ele>
<time>2024-04-17T09:37:31.052Z</time>
</trkpt>
<trkpt lat="31.4968600" lon="34.6697300">
<ele>101.120003</ele>
<time>2024-04-17T09:37:31.052Z</time>
</trkpt>
<trkpt lat="31.4966000" lon="34.6697300">
<ele>99.279999</ele>
<time>2024-04-17T09:37:31.052Z</time>
</trkpt>
<trkpt lat="31.4963700" lon="34.6696800">
<ele>100.080002</ele>
<time>2024-04-17T09:37:31.052Z</time>
</trkpt>
<trkpt lat="31.4960800" lon="34.6696500">
<ele>98.570000</ele>
<time>2024-04-17T09:37:31.052Z</time>
</trkpt>
<trkpt lat="31.4958300" lon="34.6697900">
<ele>104.490005</ele>
<time>2024-04-17T09:37:31.052Z</time>
</trkpt>
<trkpt lat="31.4956100" lon="34.6700100">
<ele>102.149994</ele>
<time>2024-04-17T09:37:31.052Z</time>
</trkpt>
<trkpt lat="31.4953500" lon="34.6702200">
<ele>102.260002</ele>
<time>2024-04-17T09:37:31.052Z</time>
</trkpt>
<trkpt lat="31.4952400" lon="34.6705400">
<ele>102.680000</ele>
<time>2024-04-17T09:37:31.052Z</time>
</trkpt>
<trkpt lat="31.4951300" lon="34.6707000">
<ele>101.730003</ele>
<time>2024-04-17T09:37:31.052Z</time>
</trkpt>
<trkpt lat="31.4948800" lon="34.6709800">
<ele>106.490005</ele>
<time>2024-04-17T09:37:31.052Z</time>
</trkpt>
<trkpt lat="31.4948400" lon="34.6713900">
<ele>111.000000</ele>
<time>2024-04-17T09:37:31.052Z</time>
</trkpt>
<trkpt lat="31.4947000" lon="34.6719700">
<ele>110.940002</ele>
<time>2024-04-17T09:37:31.052Z</time>
</trkpt>
<trkpt lat="31.4946400" lon="34.6721900">
<ele>111.550003</ele>
<time>2024-04-17T09:37:31.052Z</time>
</trkpt>
<trkpt lat="31.4947000" lon="34.6726600">
<ele>112.219994</ele>
<time>2024-04-17T09:37:31.052Z</time>
</trkpt>
<trkpt lat="31.4946800" lon="34.6727500">
<ele>111.660004</ele>
<time>2024-04-17T09:37:31.052Z</time>
</trkpt>
<trkpt lat="31.4946600" lon="34.6729100">
<ele>112.539993</ele>
<time>2024-04-17T09:37:31.052Z</time>
</trkpt>
<trkpt lat="31.4945800" lon="34.6731600">
<ele>113.579994</ele>
<time>2024-04-17T09:37:31.052Z</time>
</trkpt>
<trkpt lat="31.4946000" lon="34.6733700">
<ele>115.940002</ele>
<time>2024-04-17T09:37:31.052Z</time>
</trkpt>
<trkpt lat="31.4945900" lon="34.6734200">
<ele>116.199997</ele>
<time>2024-04-17T09:37:31.052Z</time>
</trkpt>
<trkpt lat="31.4945100" lon="34.6738300">
<ele>116.709999</ele>
<time>2024-04-17T09:37:31.052Z</time>
</trkpt>
<trkpt lat="31.4944500" lon="34.6740100">
<ele>116.060005</ele>
<time>2024-04-17T09:37:31.052Z</time>
</trkpt>
<trkpt lat="31.4944700" lon="34.6741800">
<ele>116.449997</ele>
<time>2024-04-17T09:37:31.052Z</time>
</trkpt>
<trkpt lat="31.4944400" lon="34.6744700">
<ele>120.170006</ele>
<time>2024-04-17T09:37:31.052Z</time>
</trkpt>
<trkpt lat="31.4943700" lon="34.6746900">
<ele>121.489998</ele>
<time>2024-04-17T09:37:31.052Z</time>
</trkpt>
<trkpt lat="31.4942700" lon="34.6750800">
<ele>121.570000</ele>
<time>2024-04-17T09:37:31.052Z</time>
</trkpt>
<trkpt lat="31.4942100" lon="34.6753000">
<ele>120.619995</ele>
<time>2024-04-17T09:37:31.052Z</time>
</trkpt>
<trkpt lat="31.4939900" lon="34.6753000">
<ele>118.830002</ele>
<time>2024-04-17T09:37:31.052Z</time>
</trkpt>
<trkpt lat="31.4939900" lon="34.6753000">
<ele>118.830002</ele>
<time>2024-04-17T09:37:31.052Z</time>
</trkpt>
<trkpt lat="31.4939100" lon="34.6753000">
<ele>118.299995</ele>
<time>2024-04-17T09:37:31.052Z</time>
</trkpt>
<trkpt lat="31.4937500" lon="34.6755800">
<ele>117.540001</ele>
<time>2024-04-17T09:37:31.052Z</time>
</trkpt>
<trkpt lat="31.4936200" lon="34.6759000">
<ele>116.129997</ele>
<time>2024-04-17T09:37:31.052Z</time>
</trkpt>
<trkpt lat="31.4934800" lon="34.6762500">
<ele>113.899994</ele>
<time>2024-04-17T09:37:31.052Z</time>
</trkpt>
<trkpt lat="31.4934600" lon="34.6765400">
<ele>115.910004</ele>
<time>2024-04-17T09:37:31.052Z</time>
</trkpt>
<trkpt lat="31.4934200" lon="34.6767500">
<ele>116.860001</ele>
<time>2024-04-17T09:37:31.052Z</time>
</trkpt>
<trkpt lat="31.4933500" lon="34.6768500">
<ele>115.959999</ele>
<time>2024-04-17T09:37:31.052Z</time>
</trkpt>
<trkpt lat="31.4932600" lon="34.6770500">
<ele>115.540001</ele>
<time>2024-04-17T09:37:31.052Z</time>
</trkpt>
<trkpt lat="31.4931500" lon="34.6773800">
<ele>117.059998</ele>
<time>2024-04-17T09:37:31.052Z</time>
</trkpt>
<trkpt lat="31.4931400" lon="34.6776300">
<ele>119.480003</ele>
<time>2024-04-17T09:37:31.052Z</time>
</trkpt>
<trkpt lat="31.4932400" lon="34.6778600">
<ele>122.480003</ele>
<time>2024-04-17T09:37:31.052Z</time>
</trkpt>
<trkpt lat="31.4932300" lon="34.6780200">
<ele>123.300003</ele>
<time>2024-04-17T09:37:31.052Z</time>
</trkpt>
<trkpt lat="31.4931800" lon="34.6781300">
<ele>122.500000</ele>
<time>2024-04-17T09:37:31.052Z</time>
</trkpt>
<trkpt lat="31.4931500" lon="34.6783300">
<ele>121.059998</ele>
<time>2024-04-17T09:37:31.052Z</time>
</trkpt>
<trkpt lat="31.4931700" lon="34.6786300">
<ele>120.650002</ele>
<time>2024-04-17T09:37:31.052Z</time>
</trkpt>
<trkpt lat="31.4932300" lon="34.6789400">
<ele>121.629997</ele>
<time>2024-04-17T09:37:31.052Z</time>
</trkpt>
<trkpt lat="31.4933000" lon="34.6791400">
<ele>123.320000</ele>
<time>2024-04-17T09:37:31.052Z</time>
</trkpt>
<trkpt lat="31.4934600" lon="34.6793500">
<ele>128.910004</ele>
<time>2024-04-17T09:37:31.052Z</time>
</trkpt>
<trkpt lat="31.4936600" lon="34.6796100">
<ele>137.720001</ele>
<time>2024-04-17T09:37:31.052Z</time>
</trkpt>
<trkpt lat="31.4937100" lon="34.6798000">
<ele>139.919998</ele>
<time>2024-04-17T09:37:31.052Z</time>
</trkpt>
<trkpt lat="31.4936800" lon="34.6798700">
<ele>139.729996</ele>
<time>2024-04-17T09:37:31.052Z</time>
</trkpt>
<trkpt lat="31.4934700" lon="34.6798800">
<ele>135.660004</ele>
<time>2024-04-17T09:37:31.052Z</time>
</trkpt>
<trkpt lat="31.4933200" lon="34.6797800">
<ele>131.620010</ele>
<time>2024-04-17T09:37:31.052Z</time>
</trkpt>
<trkpt lat="31.4930800" lon="34.6797900">
<ele>124.900002</ele>
<time>2024-04-17T09:37:31.052Z</time>
</trkpt>
<trkpt lat="31.4928900" lon="34.6798200">
<ele>122.970001</ele>
<time>2024-04-17T09:37:31.052Z</time>
</trkpt>
<trkpt lat="31.4927800" lon="34.6799100">
<ele>123.400002</ele>
<time>2024-04-17T09:37:31.052Z</time>
</trkpt>
<trkpt lat="31.4926900" lon="34.6801000">
<ele>126.500000</ele>
<time>2024-04-17T09:37:31.052Z</time>
</trkpt>
<trkpt lat="31.4925500" lon="34.6802900">
<ele>127.840004</ele>
<time>2024-04-17T09:37:31.052Z</time>
</trkpt>
<trkpt lat="31.4924700" lon="34.6805300">
<ele>129.509995</ele>
<time>2024-04-17T09:37:31.052Z</time>
</trkpt>
<trkpt lat="31.4924300" lon="34.6806300">
<ele>130.500000</ele>
<time>2024-04-17T09:37:31.052Z</time>
</trkpt>
<trkpt lat="31.4923000" lon="34.6807400">
<ele>130.740005</ele>
<time>2024-04-17T09:37:31.052Z</time>
</trkpt>
<trkpt lat="31.4922500" lon="34.6808400">
<ele>131.350006</ele>
<time>2024-04-17T09:37:31.052Z</time>
</trkpt>
<trkpt lat="31.4921700" lon="34.6809200">
<ele>129.809998</ele>
<time>2024-04-17T09:37:31.052Z</time>
</trkpt>
<trkpt lat="31.4921200" lon="34.6810600">
<ele>128.720001</ele>
<time>2024-04-17T09:37:31.052Z</time>
</trkpt>
<trkpt lat="31.4920900" lon="34.6811800">
<ele>127.610001</ele>
<time>2024-04-17T09:37:31.052Z</time>
</trkpt>
<trkpt lat="31.4920900" lon="34.6812900">
<ele>127.360001</ele>
<time>2024-04-17T09:37:31.052Z</time>
</trkpt>
<trkpt lat="31.4922200" lon="34.6814400">
<ele>130.139999</ele>
<time>2024-04-17T09:37:31.052Z</time>
</trkpt>
<trkpt lat="31.4923600" lon="34.6815100">
<ele>134.750000</ele>
<time>2024-04-17T09:37:31.052Z</time>
</trkpt>
<trkpt lat="31.4925400" lon="34.6817500">
<ele>136.739990</ele>
<time>2024-04-17T09:37:31.052Z</time>
</trkpt>
<trkpt lat="31.4927400" lon="34.6819900">
<ele>134.820007</ele>
<time>2024-04-17T09:37:31.052Z</time>
</trkpt>
<trkpt lat="31.4929600" lon="34.6822700">
<ele>137.090012</ele>
<time>2024-04-17T09:37:31.052Z</time>
</trkpt>
<trkpt lat="31.4930800" lon="34.6823900">
<ele>138.050003</ele>
<time>2024-04-17T09:37:31.052Z</time>
</trkpt>
<trkpt lat="31.4931300" lon="34.6825300">
<ele>139.169998</ele>
<time>2024-04-17T09:37:31.052Z</time>
</trkpt>
<trkpt lat="31.4933900" lon="34.6826900">
<ele>139.770004</ele>
<time>2024-04-17T09:37:31.052Z</time>
</trkpt>
<trkpt lat="31.4934900" lon="34.6828200">
<ele>138.000000</ele>
<time>2024-04-17T09:37:31.052Z</time>
</trkpt>
<trkpt lat="31.4935400" lon="34.6830200">
<ele>136.020004</ele>
<time>2024-04-17T09:37:31.052Z</time>
</trkpt>
<trkpt lat="31.4935000" lon="34.6831200">
<ele>136.110001</ele>
<time>2024-04-17T09:37:31.052Z</time>
</trkpt>
<trkpt lat="31.4933900" lon="34.6831900">
<ele>137.000000</ele>
<time>2024-04-17T09:37:31.052Z</time>
</trkpt>
<trkpt lat="31.4932200" lon="34.6832100">
<ele>139.080002</ele>
<time>2024-04-17T09:37:31.052Z</time>
</trkpt>
<trkpt lat="31.4930300" lon="34.6832000">
<ele>141.349991</ele>
<time>2024-04-17T09:37:31.052Z</time>
</trkpt>
<trkpt lat="31.4928700" lon="34.6831700">
<ele>140.410004</ele>
<time>2024-04-17T09:37:31.052Z</time>
</trkpt>
<trkpt lat="31.4927600" lon="34.6829900">
<ele>138.180008</ele>
<time>2024-04-17T09:37:31.052Z</time>
</trkpt>
<trkpt lat="31.4927100" lon="34.6829900">
<ele>137.860001</ele>
<time>2024-04-17T09:37:31.052Z</time>
</trkpt>
<trkpt lat="31.4926800" lon="34.6830300">
<ele>138.050003</ele>
<time>2024-04-17T09:37:31.052Z</time>
</trkpt>
<trkpt lat="31.4926800" lon="34.6831100">
<ele>138.759995</ele>
<time>2024-04-17T09:37:31.052Z</time>
</trkpt>
<trkpt lat="31.4927000" lon="34.6832300">
<ele>139.869995</ele>
<time>2024-04-17T09:37:31.052Z</time>
</trkpt>
<trkpt lat="31.4926400" lon="34.6833900">
<ele>140.910004</ele>
<time>2024-04-17T09:37:31.052Z</time>
</trkpt>
<trkpt lat="31.4925200" lon="34.6834200">
<ele>141.229996</ele>
<time>2024-04-17T09:37:31.052Z</time>
</trkpt>
<trkpt lat="31.4924500" lon="34.6833800">
<ele>140.970001</ele>
<time>2024-04-17T09:37:31.052Z</time>
</trkpt>
<trkpt lat="31.4923700" lon="34.6832800">
<ele>140.360001</ele>
<time>2024-04-17T09:37:31.052Z</time>
</trkpt>
<trkpt lat="31.4922800" lon="34.6832000">
<ele>140.139999</ele>
<time>2024-04-17T09:37:31.052Z</time>
</trkpt>
<trkpt lat="31.4920900" lon="34.6831500">
<ele>140.330002</ele>
<time>2024-04-17T09:37:31.052Z</time>
</trkpt>
<trkpt lat="31.4921600" lon="34.6832800">
<ele>141.470001</ele>
<time>2024-04-17T09:37:31.052Z</time>
</trkpt>
<trkpt lat="31.4920900" lon="34.6831500">
<ele>140.330002</ele>
<time>2024-04-17T09:37:31.052Z</time>
</trkpt>
<trkpt lat="31.4919700" lon="34.6832500">
<ele>141.370010</ele>
<time>2024-04-17T09:37:31.052Z</time>
</trkpt>
<trkpt lat="31.4919300" lon="34.6833600">
<ele>141.540009</ele>
<time>2024-04-17T09:37:31.052Z</time>
</trkpt>
<trkpt lat="31.4919400" lon="34.6834800">
<ele>141.360001</ele>
<time>2024-04-17T09:37:31.052Z</time>
</trkpt>
<trkpt lat="31.4919800" lon="34.6836100">
<ele>141.389999</ele>
<time>2024-04-17T09:37:31.052Z</time>
</trkpt>
<trkpt lat="31.4920700" lon="34.6837400">
<ele>141.169998</ele>
<time>2024-04-17T09:37:31.052Z</time>
</trkpt>
<trkpt lat="31.4923000" lon="34.6838300">
<ele>142.419998</ele>
<time>2024-04-17T09:37:31.052Z</time>
</trkpt>
<trkpt lat="31.4924100" lon="34.6839200">
<ele>141.699997</ele>
<time>2024-04-17T09:37:31.052Z</time>
</trkpt>
<trkpt lat="31.4924800" lon="34.6840300">
<ele>140.910004</ele>
<time>2024-04-17T09:37:31.052Z</time>
</trkpt>
<trkpt lat="31.4925000" lon="34.6842000">
<ele>139.759995</ele>
<time>2024-04-17T09:37:31.052Z</time>
</trkpt>
<trkpt lat="31.4925600" lon="34.6842900">
<ele>139.519989</ele>
<time>2024-04-17T09:37:31.052Z</time>
</trkpt>
<trkpt lat="31.4926300" lon="34.6843500">
<ele>139.770004</ele>
<time>2024-04-17T09:37:31.052Z</time>
</trkpt>
<trkpt lat="31.4927100" lon="34.6843800">
<ele>140.380005</ele>
<time>2024-04-17T09:37:31.052Z</time>
</trkpt>
<trkpt lat="31.4929200" lon="34.6844600">
<ele>139.349991</ele>
<time>2024-04-17T09:37:31.052Z</time>
</trkpt>
<trkpt lat="31.4930200" lon="34.6845900">
<ele>138.119995</ele>
<time>2024-04-17T09:37:31.052Z</time>
</trkpt>
<trkpt lat="31.4931800" lon="34.6848000">
<ele>139.819992</ele>
<time>2024-04-17T09:37:31.052Z</time>
</trkpt>
<trkpt lat="31.4933500" lon="34.6850500">
<ele>137.360001</ele>
<time>2024-04-17T09:37:31.052Z</time>
</trkpt>
<trkpt lat="31.4932700" lon="34.6852600">
<ele>136.769989</ele>
<time>2024-04-17T09:37:31.052Z</time>
</trkpt>
<trkpt lat="31.4929600" lon="34.6854500">
<ele>140.919998</ele>
<time>2024-04-17T09:37:31.052Z</time>
</trkpt>
<trkpt lat="31.4925000" lon="34.6854600">
<ele>139.660004</ele>
<time>2024-04-17T09:37:31.052Z</time>
</trkpt>
<trkpt lat="31.4921200" lon="34.6853000">
<ele>142.130005</ele>
<time>2024-04-17T09:37:31.052Z</time>
</trkpt>
<trkpt lat="31.4920200" lon="34.6853100">
<ele>142.380005</ele>
<time>2024-04-17T09:37:31.052Z</time>
</trkpt>
<trkpt lat="31.4920000" lon="34.6853700">
<ele>141.800003</ele>
<time>2024-04-17T09:37:31.052Z</time>
</trkpt>
<trkpt lat="31.4920000" lon="34.6855200">
<ele>140.180008</ele>
<time>2024-04-17T09:37:31.052Z</time>
</trkpt>
<trkpt lat="31.4920400" lon="34.6857700">
<ele>138.690002</ele>
<time>2024-04-17T09:37:31.052Z</time>
</trkpt>
<trkpt lat="31.4920200" lon="34.6859200">
<ele>137.729996</ele>
<time>2024-04-17T09:37:31.052Z</time>
</trkpt>
<trkpt lat="31.4920300" lon="34.6861300">
<ele>137.570007</ele>
<time>2024-04-17T09:37:31.052Z</time>
</trkpt>
<trkpt lat="31.4920400" lon="34.6862800">
<ele>137.910004</ele>
<time>2024-04-17T09:37:31.052Z</time>
</trkpt>
<trkpt lat="31.4919700" lon="34.6863900">
<ele>137.279999</ele>
<time>2024-04-17T09:37:31.052Z</time>
</trkpt>
<trkpt lat="31.4919900" lon="34.6866000">
<ele>137.619995</ele>
<time>2024-04-17T09:37:31.052Z</time>
</trkpt>
<trkpt lat="31.4919800" lon="34.6867700">
<ele>136.769989</ele>
<time>2024-04-17T09:37:31.052Z</time>
</trkpt>
<trkpt lat="31.4919900" lon="34.6868700">
<ele>136.190002</ele>
<time>2024-04-17T09:37:31.052Z</time>
</trkpt>
<trkpt lat="31.4921200" lon="34.6871700">
<ele>135.900009</ele>
<time>2024-04-17T09:37:31.052Z</time>
</trkpt>
<trkpt lat="31.4922600" lon="34.6873900">
<ele>137.550003</ele>
<time>2024-04-17T09:37:31.052Z</time>
</trkpt>
<trkpt lat="31.4926600" lon="34.6880000">
<ele>137.440002</ele>
<time>2024-04-17T09:37:31.052Z</time>
</trkpt>
<trkpt lat="31.4928400" lon="34.6882000">
<ele>139.020004</ele>
<time>2024-04-17T09:37:31.052Z</time>
</trkpt>
<trkpt lat="31.4933200" lon="34.6881900">
<ele>137.500000</ele>
<time>2024-04-17T09:37:31.052Z</time>
</trkpt>
<trkpt lat="31.4936300" lon="34.6885300">
<ele>142.330002</ele>
<time>2024-04-17T09:37:31.052Z</time>
</trkpt>
<trkpt lat="31.4937500" lon="34.6887600">
<ele>143.040009</ele>
<time>2024-04-17T09:37:31.052Z</time>
</trkpt>
<trkpt lat="31.4937000" lon="34.6891200">
<ele>143.619995</ele>
<time>2024-04-17T09:37:31.052Z</time>
</trkpt>
<trkpt lat="31.4937000" lon="34.6891200">
<ele>143.619995</ele>
<time>2024-04-17T09:37:31.052Z</time>
</trkpt>
<trkpt lat="31.4937000" lon="34.6891200">
<ele>143.619995</ele>
<time>2024-04-17T09:37:31.052Z</time>
</trkpt>
<trkpt lat="31.4936900" lon="34.6892000">
<ele>143.559998</ele>
<time>2024-04-17T09:37:31.052Z</time>
</trkpt>
<trkpt lat="31.4937200" lon="34.6896800">
<ele>141.550003</ele>
<time>2024-04-17T09:37:31.052Z</time>
</trkpt>
<trkpt lat="31.4938600" lon="34.6901300">
<ele>140.139999</ele>
<time>2024-04-17T09:37:31.052Z</time>
</trkpt>
<trkpt lat="31.4939000" lon="34.6904700">
<ele>138.940002</ele>
<time>2024-04-17T09:37:31.052Z</time>
</trkpt>
<trkpt lat="31.4937900" lon="34.6909300">
<ele>141.820007</ele>
<time>2024-04-17T09:37:31.052Z</time>
</trkpt>
<trkpt lat="31.4937300" lon="34.6912100">
<ele>143.029999</ele>
<time>2024-04-17T09:37:31.052Z</time>
</trkpt>
<trkpt lat="31.4937700" lon="34.6915200">
<ele>143.169998</ele>
<time>2024-04-17T09:37:31.052Z</time>
</trkpt>
<trkpt lat="31.4939200" lon="34.6917200">
<ele>144.559998</ele>
<time>2024-04-17T09:37:31.052Z</time>
</trkpt>
<trkpt lat="31.4941300" lon="34.6917500">
<ele>146.250000</ele>
<time>2024-04-17T09:37:31.052Z</time>
</trkpt>
<trkpt lat="31.4942100" lon="34.6913900">
<ele>143.629990</ele>
<time>2024-04-17T09:37:31.052Z</time>
</trkpt>
<trkpt lat="31.4943000" lon="34.6914500">
<ele>145.470001</ele>
<time>2024-04-17T09:37:31.052Z</time>
</trkpt>
<trkpt lat="31.4943600" lon="34.6914400">
<ele>146.279999</ele>
<time>2024-04-17T09:37:31.052Z</time>
</trkpt>
<trkpt lat="31.4944600" lon="34.6914100">
<ele>147.500000</ele>
<time>2024-04-17T09:37:31.052Z</time>
</trkpt>
<trkpt lat="31.4944600" lon="34.6918000">
<ele>152.059998</ele>
<time>2024-04-17T09:37:31.052Z</time>
</trkpt>
<trkpt lat="31.4945000" lon="34.6921200">
<ele>154.580002</ele>
<time>2024-04-17T09:37:31.052Z</time>
</trkpt>
<trkpt lat="31.4946400" lon="34.6925500">
<ele>153.819992</ele>
<time>2024-04-17T09:37:31.052Z</time>
</trkpt>
<trkpt lat="31.4947600" lon="34.6929200">
<ele>152.389999</ele>
<time>2024-04-17T09:37:31.052Z</time>
</trkpt>
<trkpt lat="31.4949700" lon="34.6936400">
<ele>153.400009</ele>
<time>2024-04-17T09:37:31.052Z</time>
</trkpt>
<trkpt lat="31.4954300" lon="34.6950900">
<ele>146.260010</ele>
<time>2024-04-17T09:37:31.052Z</time>
</trkpt>
<trkpt lat="31.4954800" lon="34.6953000">
<ele>147.160004</ele>
<time>2024-04-17T09:37:31.052Z</time>
</trkpt>
<trkpt lat="31.4955100" lon="34.6953700">
<ele>147.660004</ele>
<time>2024-04-17T09:37:31.052Z</time>
</trkpt>
<trkpt lat="31.4955100" lon="34.6953700">
<ele>147.660004</ele>
<time>2024-04-17T09:37:31.052Z</time>
</trkpt>
<trkpt lat="31.4955300" lon="34.6954000">
<ele>147.879990</ele>
<time>2024-04-17T09:37:31.052Z</time>
</trkpt>
<trkpt lat="31.4955800" lon="34.6954100">
<ele>147.520004</ele>
<time>2024-04-17T09:37:31.052Z</time>
</trkpt>
<trkpt lat="31.4956600" lon="34.6954400">
<ele>146.220001</ele>
<time>2024-04-17T09:37:31.052Z</time>
</trkpt>
<trkpt lat="31.4956300" lon="34.6951900">
<ele>145.630005</ele>
<time>2024-04-17T09:37:31.052Z</time>
</trkpt>
<trkpt lat="31.4955600" lon="34.6947000">
<ele>145.429993</ele>
<time>2024-04-17T09:37:31.052Z</time>
</trkpt>
<trkpt lat="31.4954900" lon="34.6945600">
<ele>147.569992</ele>
<time>2024-04-17T09:37:31.052Z</time>
</trkpt>
<trkpt lat="31.4953300" lon="34.6943100">
<ele>149.630005</ele>
<time>2024-04-17T09:37:31.052Z</time>
</trkpt>
<trkpt lat="31.4953100" lon="34.6940900">
<ele>149.930008</ele>
<time>2024-04-17T09:37:31.052Z</time>
</trkpt>
<trkpt lat="31.4955200" lon="34.6939600">
<ele>148.130005</ele>
<time>2024-04-17T09:37:31.052Z</time>
</trkpt>
<trkpt lat="31.4957600" lon="34.6940400">
<ele>151.940002</ele>
<time>2024-04-17T09:37:31.052Z</time>
</trkpt>
<trkpt lat="31.4957600" lon="34.6940400">
<ele>151.940002</ele>
<time>2024-04-17T09:37:31.052Z</time>
</trkpt>
<trkpt lat="31.4958100" lon="34.6940600">
<ele>153.090012</ele>
<time>2024-04-17T09:37:31.052Z</time>
</trkpt>
<trkpt lat="31.4960400" lon="34.6942100">
<ele>152.940002</ele>
<time>2024-04-17T09:37:31.052Z</time>
</trkpt>
<trkpt lat="31.4961000" lon="34.6944300">
<ele>151.139999</ele>
<time>2024-04-17T09:37:31.052Z</time>
</trkpt>
<trkpt lat="31.4961700" lon="34.6945400">
<ele>146.330002</ele>
<time>2024-04-17T09:37:31.052Z</time>
</trkpt>
<trkpt lat="31.4962500" lon="34.6944500">
<ele>145.369995</ele>
<time>2024-04-17T09:37:31.052Z</time>
</trkpt>
<trkpt lat="31.4962600" lon="34.6942500">
<ele>146.880005</ele>
<time>2024-04-17T09:37:31.052Z</time>
</trkpt>
<trkpt lat="31.4962500" lon="34.6941300">
<ele>147.410004</ele>
<time>2024-04-17T09:37:31.052Z</time>
</trkpt>
<trkpt lat="31.4961700" lon="34.6940600">
<ele>148.600006</ele>
<time>2024-04-17T09:37:31.052Z</time>
</trkpt>
<trkpt lat="31.4960200" lon="34.6940000">
<ele>150.309998</ele>
<time>2024-04-17T09:37:31.052Z</time>
</trkpt>
<trkpt lat="31.4959700" lon="34.6939700">
<ele>150.710007</ele>
<time>2024-04-17T09:37:31.052Z</time>
</trkpt>
<trkpt lat="31.4959700" lon="34.6939100">
<ele>149.860001</ele>
<time>2024-04-17T09:37:31.052Z</time>
</trkpt>
<trkpt lat="31.4960100" lon="34.6938800">
<ele>148.410004</ele>
<time>2024-04-17T09:37:31.052Z</time>
</trkpt>
<trkpt lat="31.4962900" lon="34.6939900">
<ele>144.160004</ele>
<time>2024-04-17T09:37:31.052Z</time>
</trkpt>
<trkpt lat="31.4965500" lon="34.6941100">
<ele>140.269989</ele>
<time>2024-04-17T09:37:31.052Z</time>
</trkpt>
<trkpt lat="31.4966700" lon="34.6942900">
<ele>137.149994</ele>
<time>2024-04-17T09:37:31.052Z</time>
</trkpt>
<trkpt lat="31.4967400" lon="34.6946300">
<ele>132.029999</ele>
<time>2024-04-17T09:37:31.052Z</time>
</trkpt>
<trkpt lat="31.4966000" lon="34.6949500">
<ele>133.300003</ele>
<time>2024-04-17T09:37:31.052Z</time>
</trkpt>
<trkpt lat="31.4965000" lon="34.6951200">
<ele>132.210007</ele>
<time>2024-04-17T09:37:31.052Z</time>
</trkpt>
<trkpt lat="31.4964600" lon="34.6953400">
<ele>129.630005</ele>
<time>2024-04-17T09:37:31.052Z</time>
</trkpt>
<trkpt lat="31.4963200" lon="34.6955700">
<ele>131.539993</ele>
<time>2024-04-17T09:37:31.052Z</time>
</trkpt>
<trkpt lat="31.4963200" lon="34.6955700">
<ele>131.539993</ele>
<time>2024-04-17T09:37:31.052Z</time>
</trkpt>
<trkpt lat="31.4963100" lon="34.6958200">
<ele>132.659988</ele>
<time>2024-04-17T09:37:31.052Z</time>
</trkpt>
<trkpt lat="31.4963800" lon="34.6959000">
<ele>132.100006</ele>
<time>2024-04-17T09:37:31.052Z</time>
</trkpt>
<trkpt lat="31.4964300" lon="34.6959600">
<ele>132.690002</ele>
<time>2024-04-17T09:37:31.052Z</time>
</trkpt>
<trkpt lat="31.4965800" lon="34.6961800">
<ele>133.970001</ele>
<time>2024-04-17T09:37:31.052Z</time>
</trkpt>
<trkpt lat="31.4967700" lon="34.6962000">
<ele>134.619995</ele>
<time>2024-04-17T09:37:31.052Z</time>
</trkpt>
<trkpt lat="31.4969300" lon="34.6961600">
<ele>135.580002</ele>
<time>2024-04-17T09:37:31.052Z</time>
</trkpt>
<trkpt lat="31.4972000" lon="34.6960300">
<ele>136.300003</ele>
<time>2024-04-17T09:37:31.052Z</time>
</trkpt>
<trkpt lat="31.4973500" lon="34.6960400">
<ele>137.880005</ele>
<time>2024-04-17T09:37:31.052Z</time>
</trkpt>
<trkpt lat="31.4974000" lon="34.6962100">
<ele>140.380005</ele>
<time>2024-04-17T09:37:31.052Z</time>
</trkpt>
<trkpt lat="31.4975700" lon="34.6963000">
<ele>141.020004</ele>
<time>2024-04-17T09:37:31.052Z</time>
</trkpt>
<trkpt lat="31.4977300" lon="34.6964400">
<ele>141.050003</ele>
<time>2024-04-17T09:37:31.052Z</time>
</trkpt>
<trkpt lat="31.4979200" lon="34.6964300">
<ele>142.130005</ele>
<time>2024-04-17T09:37:31.052Z</time>
</trkpt>
<trkpt lat="31.4980700" lon="34.6965100">
<ele>144.949997</ele>
<time>2024-04-17T09:37:31.052Z</time>
</trkpt>
<trkpt lat="31.4980000" lon="34.6966700">
<ele>146.460007</ele>
<time>2024-04-17T09:37:31.052Z</time>
</trkpt>
<trkpt lat="31.4979600" lon="34.6968600">
<ele>149.210007</ele>
<time>2024-04-17T09:37:31.052Z</time>
</trkpt>
<trkpt lat="31.4979800" lon="34.6971000">
<ele>153.260010</ele>
<time>2024-04-17T09:37:31.052Z</time>
</trkpt>
<trkpt lat="31.4981400" lon="34.6975000">
<ele>154.000000</ele>
<time>2024-04-17T09:37:31.052Z</time>
</trkpt>
<trkpt lat="31.4982700" lon="34.6975900">
<ele>152.779999</ele>
<time>2024-04-17T09:37:31.052Z</time>
</trkpt>
<trkpt lat="31.4982700" lon="34.6976000">
<ele>152.639999</ele>
<time>2024-04-17T09:37:31.052Z</time>
</trkpt>
<trkpt lat="31.4985400" lon="34.6978100">
<ele>147.850006</ele>
<time>2024-04-17T09:37:31.052Z</time>
</trkpt>
<trkpt lat="31.4988100" lon="34.6980600">
<ele>149.419998</ele>
<time>2024-04-17T09:37:31.052Z</time>
</trkpt>
<trkpt lat="31.4989800" lon="34.6981400">
<ele>149.470001</ele>
<time>2024-04-17T09:37:31.052Z</time>
</trkpt>
<trkpt lat="31.4991300" lon="34.6982900">
<ele>149.020004</ele>
<time>2024-04-17T09:37:31.052Z</time>
</trkpt>
<trkpt lat="31.4992600" lon="34.6983500">
<ele>149.590012</ele>
<time>2024-04-17T09:37:31.052Z</time>
</trkpt>
<trkpt lat="31.4992600" lon="34.6983500">
<ele>149.590012</ele>
<time>2024-04-17T09:37:31.052Z</time>
</trkpt>
<trkpt lat="31.4993700" lon="34.6983300">
<ele>150.479996</ele>
<time>2024-04-17T09:37:31.052Z</time>
</trkpt>
<trkpt lat="31.4994500" lon="34.6983900">
<ele>150.669998</ele>
<time>2024-04-17T09:37:31.052Z</time>
</trkpt>
<trkpt lat="31.4994800" lon="34.6984700">
<ele>150.529999</ele>
<time>2024-04-17T09:37:31.052Z</time>
</trkpt>
<trkpt lat="31.4994700" lon="34.6986200">
<ele>149.360001</ele>
<time>2024-04-17T09:37:31.052Z</time>
</trkpt>
<trkpt lat="31.4994500" lon="34.6987900">
<ele>149.029999</ele>
<time>2024-04-17T09:37:31.052Z</time>
</trkpt>
<trkpt lat="31.4994500" lon="34.6987900">
<ele>149.029999</ele>
<time>2024-04-17T09:37:31.052Z</time>
</trkpt>
<trkpt lat="31.4994500" lon="34.6987900">
<ele>149.029999</ele>
<time>2024-04-17T09:37:31.052Z</time>
</trkpt>
<trkpt lat="31.4994500" lon="34.6989900">
<ele>149.360001</ele>
<time>2024-04-17T09:37:31.052Z</time>
</trkpt>
<trkpt lat="31.4994800" lon="34.6990800">
<ele>149.690002</ele>
<time>2024-04-17T09:37:31.052Z</time>
</trkpt>
<trkpt lat="31.4993300" lon="34.6992900">
<ele>150.210007</ele>
<time>2024-04-17T09:37:31.052Z</time>
</trkpt>
<trkpt lat="31.4992100" lon="34.6993800">
<ele>150.570007</ele>
<time>2024-04-17T09:37:31.052Z</time>
</trkpt>
<trkpt lat="31.4991100" lon="34.6995500">
<ele>151.410004</ele>
<time>2024-04-17T09:37:31.052Z</time>
</trkpt>
<trkpt lat="31.4989800" lon="34.6997400">
<ele>153.539993</ele>
<time>2024-04-17T09:37:31.052Z</time>
</trkpt>
<trkpt lat="31.4989800" lon="34.6997400">
<ele>153.539993</ele>
<time>2024-04-17T09:37:31.052Z</time>
</trkpt>
<trkpt lat="31.4989800" lon="34.6997400">
<ele>153.539993</ele>
<time>2024-04-17T09:37:31.052Z</time>
</trkpt>
<trkpt lat="31.4989700" lon="34.6997600">
<ele>153.819992</ele>
<time>2024-04-17T09:37:31.052Z</time>
</trkpt>
<trkpt lat="31.4989700" lon="34.6997600">
<ele>153.819992</ele>
<time>2024-04-17T09:37:31.052Z</time>
</trkpt>
</trkseg>
</trk>
</gpx>
